GFSGBSN_925_thetae_000.txt.gz
Theta_e
310 310 310 310 309 309 309 309 309 309 308 305 302 302 302 302 302 302 302 303 304 306 306 306 307 311 316 317 316 322 319 319 321 324 323 318 319 322 328 327 327 328 328 337 340 337 340
309 310 310 310 309 309 309 308 308 309 308 306 303 302 302 302 302 302 302 303 304 306 306 307 309 312 318 317 321 318 321 326 325 324 322 319 321 324 327 328 326 326 337 339 339 339 341
309 309 309 310 310 309 308 308 308 308 305 305 303 302 302 302 302 302 303 304 304 305 307 310 313 320 322 317 322 321 321 325 325 323 319 321 322 324 325 327 325 337 339 339 340 341 349
308 308 308 308 308 308 308 308 308 308 305 304 302 301 302 302 302 302 303 305 306 306 317 321 317 321 317 324 322 322 327 321 320 324 322 322 322 321 325 325 332 337 338 343 341 342 347
309 308 308 308 308 307 307 307 307 306 305 305 304 302 301 302 302 302 303 306 307 318 316 317 322 321 323 324 324 328 328 322 319 320 321 320 321 321 322 323 335 334 343 342 344 341 346
308 308 308 308 307 306 307 307 305 304 304 304 304 303 302 302 301 302 304 308 314 324 324 323 325 325 321 324 325 326 325 322 319 316 319 320 316 320 318 323 341 340 343 340 346 341 345
308 307 307 307 307 306 306 306 305 304 304 304 304 302 302 301 301 302 307 310 310 313 323 321 321 323 322 321 324 325 324 320 317 315 315 315 317 318 322 322 328 334 340 343 342 340 343
307 307 307 306 306 306 306 305 305 306 307 305 303 302 302 301 302 304 307 307 311 310 308 311 314 317 319 324 324 323 324 321 320 318 315 318 317 318 321 324 326 334 334 339 336 338 343
307 306 306 306 306 305 305 304 305 306 306 303 302 302 303 302 302 312 303 305 310 307 310 313 313 316 316 319 321 323 321 319 318 317 315 315 318 319 325 325 325 326 327 327 338 341 344
306 305 306 305 305 305 304 304 305 305 302 300 300 302 304 301 303 304 306 309 306 307 314 317 319 319 321 321 323 323 323 321 316 318 315 315 317 322 324 327 326 326 324 327 335 341 343
306 305 305 305 305 304 303 304 304 305 304 300 300 300 304 304 304 306 307 306 307 310 321 320 322 321 319 320 320 322 322 320 322 318 316 317 318 320 326 325 325 327 325 327 334 336 340
306 305 305 305 305 303 304 302 304 305 303 299 299 299 304 304 305 303 306 306 310 316 321 320 324 322 322 322 320 320 322 320 320 319 316 318 318 319 320 325 327 324 321 322 324 329 337
306 305 305 304 304 304 304 301 302 304 302 297 299 298 303 305 306 305 306 307 314 317 317 320 321 319 320 320 322 321 320 319 321 320 319 319 318 321 323 323 325 320 322 324 328 336 336
305 305 304 304 304 304 303 302 302 303 300 297 298 300 303 304 304 306 306 306 317 317 317 317 319 318 320 318 320 321 318 322 318 318 317 317 318 319 321 322 323 322 322 323 327 330 338
304 305 305 304 303 304 303 302 303 302 300 298 299 303 305 308 310 307 303 306 312 317 320 321 318 320 320 319 320 321 319 318 320 315 319 316 318 319 321 322 322 322 322 320 321 322 326
305 305 305 304 304 303 303 303 303 302 300 300 304 303 304 311 312 307 305 305 308 314 317 314 319 319 320 318 318 319 319 319 319 317 315 316 319 317 320 323 322 322 320 324 319 326 331
305 304 304 304 303 303 303 303 303 302 301 301 303 300 307 312 308 304 304 305 308 309 311 311 316 318 318 317 318 318 319 320 320 320 314 315 315 318 319 320 321 322 322 319 319 320 324
304 304 303 304 303 303 303 303 303 302 302 302 302 298 309 309 311 304 306 306 309 311 312 313 314 314 314 316 315 317 318 319 319 318 317 314 316 318 318 319 320 321 321 321 325 322 320
305 304 304 303 303 304 303 303 302 302 302 303 302 302 306 307 312 311 310 314 315 318 318 319 316 313 314 316 319 316 317 318 318 319 319 316 314 318 318 317 321 322 321 318 317 318 323
304 304 304 304 304 304 303 302 303 302 302 303 303 304 305 304 303 307 306 308 313 316 318 318 318 318 317 319 317 318 322 325 326 328 341 329 313 318 321 320 319 323 324 321 320 322 322
304 304 304 303 304 303 303 303 303 302 302 303 304 304 307 310 309 309 306 308 313 315 315 317 318 319 319 319 321 319 319 322 328 331 325 314 318 316 321 317 322 323 324 323 323 322 325
304 303 303 303 303 304 303 302 302 302 302 304 308 309 306 308 308 306 308 309 313 314 313 314 318 320 320 320 322 324 324 326 329 332 328 315 317 315 321 318 320 322 322 325 324 324 323
303 303 303 304 304 304 303 301 301 303 302 302 302 303 307 309 310 309 308 311 312 312 313 313 314 317 323 324 320 322 322 324 330 329 333 326 316 316 321 318 318 321 321 321 324 323 324
303 303 303 303 303 303 303 303 302 302 303 302 301 302 307 308 312 312 311 312 312 312 311 311 310 313 321 312 316 318 321 322 324 325 329 335 320 315 322 321 323 321 326 323 326 334 332
303 303 303 303 302 302 304 302 302 301 303 303 302 300 306 308 310 311 312 310 308 308 308 312 312 315 308 314 321 325 327 328 329 332 332 329 319 321 320 320 323 335 334 334 333 335 333
303 303 303 303 301 302 303 302 302 302 302 303 303 303 300 304 307 308 310 310 309 306 306 308 312 307 314 317 323 326 331 332 335 332 330 329 326 327 324 324 333 332 333 334 333 335 331
303 302 302 302 302 303 302 302 302 302 302 303 303 302 303 306 305 307 308 308 306 307 307 307 307 310 319 321 324 326 327 327 337 337 337 336 337 337 334 334 333 334 333 333 335 331 331
303 303 302 302 301 301 301 302 302 302 301 302 303 302 303 304 305 306 306 307 307 307 309 308 310 318 321 327 328 327 326 329 333 332 335 336 342 342 337 337 339 331 334 334 334 329 330
302 301 302 301 301 301 301 301 301 301 301 302 303 302 304 303 304 304 304 305 306 306 306 306 306 310 319 320 322 324 331 328 331 340 333 339 339 341 336 336 331 330 329 328 329 329 329

GFSGBSN_925_thetae_003.txt.gz
Theta_e
310 310 310 310 310 310 310 310 310 310 309 309 309 303 302 302 302 302 302 302 303 305 305 306 308 310 316 320 321 320 320 321 323 323 322 323 322 323 324 328 329 332 332 337 340 345 347
309 310 309 309 309 309 309 309 309 309 309 309 308 305 302 302 302 302 302 303 303 305 306 307 309 314 318 320 319 319 320 325 328 327 323 322 323 324 325 332 332 329 332 335 342 345 346
309 309 309 309 309 308 308 309 309 308 308 308 308 306 302 302 302 302 302 303 304 305 306 312 317 319 321 321 320 319 319 323 327 325 323 321 322 327 329 330 328 340 344 344 344 345 348
308 308 308 309 308 307 307 308 307 307 307 308 307 305 304 302 302 301 303 304 305 307 313 321 319 322 325 323 325 324 322 324 322 322 322 322 322 324 325 328 338 341 344 346 346 348 349
308 308 308 308 308 307 306 307 307 307 308 307 306 303 301 301 301 301 303 304 309 317 318 320 321 322 328 324 325 326 326 321 318 322 322 322 323 324 325 330 341 342 344 347 348 347 351
308 308 308 308 308 307 306 307 306 307 308 308 303 301 301 301 301 301 303 309 316 322 322 321 324 327 327 327 324 324 325 319 319 320 321 322 323 323 326 332 336 342 346 346 348 347 351
308 307 307 307 307 307 306 306 306 307 307 304 300 299 301 300 301 302 307 310 316 317 321 324 323 327 325 324 321 325 322 322 318 320 322 321 322 322 325 330 335 339 344 345 347 345 348
308 307 307 307 306 306 306 306 306 306 306 303 299 298 299 300 302 305 303 306 311 308 310 311 312 315 317 319 320 322 323 325 323 324 318 320 320 323 325 328 329 341 344 346 344 344 346
307 306 306 306 306 306 305 305 303 304 306 306 299 298 299 300 302 309 303 305 307 306 310 313 313 315 318 317 319 321 323 324 325 326 321 320 320 321 325 327 328 333 340 344 345 342 346
306 306 305 305 305 305 304 304 303 302 304 305 299 298 300 299 303 303 308 307 306 306 317 320 320 321 321 321 323 321 322 325 322 327 322 322 320 321 324 328 330 332 335 340 345 345 349
306 305 305 305 305 305 304 304 303 302 302 301 298 297 299 303 304 308 306 305 306 309 321 321 322 321 322 325 321 323 323 324 326 324 322 323 319 321 324 326 329 333 331 335 341 344 343
305 306 306 305 304 304 304 304 303 303 303 300 298 298 302 305 305 303 304 306 310 320 321 321 325 323 323 324 324 323 323 323 325 325 320 323 320 321 323 326 329 328 330 332 336 339 340
306 306 305 305 305 304 304 304 303 302 303 301 299 298 299 304 307 305 305 309 317 320 319 320 323 322 321 322 324 323 324 324 327 329 328 326 323 321 321 324 329 329 331 334 336 338 337
306 306 305 304 304 304 304 303 303 303 302 301 299 299 301 303 305 306 306 310 316 317 318 319 321 320 320 321 323 323 325 324 327 328 328 328 326 324 323 323 327 329 330 335 337 337 335
306 304 305 304 303 304 302 303 304 303 303 301 299 301 304 308 311 307 308 307 312 316 321 323 321 321 320 321 321 322 324 325 325 326 327 327 327 322 322 325 327 329 331 331 334 330 334
306 305 304 303 304 303 303 302 304 303 302 301 303 303 303 310 312 307 308 307 310 316 320 316 319 321 321 321 320 322 323 324 326 325 328 325 325 322 323 323 326 327 328 330 331 339 337
306 306 306 304 304 303 302 303 303 303 302 301 303 303 306 312 307 309 310 308 309 311 316 315 316 319 321 319 319 320 321 323 322 324 326 327 324 321 322 323 324 325 327 329 331 332 336
306 305 305 304 304 302 303 303 303 302 302 303 303 301 306 309 314 310 311 309 308 312 312 312 315 317 317 317 317 319 320 323 321 321 322 325 326 326 323 323 323 325 327 330 332 336 331
305 305 304 304 304 303 304 303 302 303 302 303 303 304 303 307 312 314 313 313 314 315 316 317 315 317 317 317 318 320 321 321 321 322 327 322 325 327 327 326 324 324 325 328 329 331 339
305 305 305 305 304 303 303 303 303 303 302 303 304 306 308 309 307 311 313 313 313 314 317 319 318 320 321 322 322 323 322 324 326 324 332 328 330 330 328 327 325 324 325 327 328 330 331
305 304 304 304 304 304 304 303 302 302 302 302 304 307 309 315 313 314 310 310 311 313 315 316 320 321 322 322 322 322 322 322 322 327 332 331 331 331 331 329 326 324 323 326 329 331 332
304 304 304 304 304 304 303 304 302 301 302 303 305 308 306 309 310 312 311 311 313 314 314 315 318 318 319 323 323 324 325 325 328 332 334 324 335 325 327 328 326 325 324 325 328 327 330
303 303 303 304 304 303 303 303 302 302 303 302 302 302 304 306 309 310 312 312 312 311 313 314 314 314 316 318 318 320 322 324 328 332 338 340 335 337 332 325 324 327 326 326 329 330 330
303 303 303 304 304 304 303 303 303 302 303 302 301 301 304 304 307 309 311 311 312 312 311 311 312 312 313 313 316 321 319 322 325 329 330 342 343 332 336 330 331 325 326 326 327 327 329
303 303 303 303 303 303 302 303 302 302 302 302 302 302 303 304 305 306 309 311 311 311 310 310 311 310 311 312 320 328 329 330 330 329 332 337 336 336 334 332 332 330 333 328 326 328 338
304 304 303 302 303 303 303 304 304 302 302 302 303 302 303 302 301 303 309 309 310 311 309 308 309 309 314 322 325 331 329 327 333 338 333 335 337 337 338 338 336 339 338 336 337 334 337
303 303 304 303 303 303 303 303 302 302 301 302 302 302 303 304 302 303 305 307 308 309 309 309 308 311 319 328 328 330 330 330 333 336 337 342 342 338 343 342 335 339 337 336 338 338 336
303 303 303 302 302 302 302 303 302 301 302 303 302 302 303 303 302 302 303 306 308 308 309 307 309 314 323 333 333 331 331 333 336 337 338 339 342 345 345 346 342 335 338 341 340 336 336
303 303 302 301 301 302 302 303 301 301 301 301 302 302 302 304 302 302 302 303 304 306 307 307 307 308 314 321 326 329 337 335 340 337 334 341 338 342 342 344 335 332 335 335 336 336 336

GFSGBSN_925_thetae_006.txt.gz
Theta_e
310 310 310 310 309 309 309 310 310 309 309 307 304 302 301 302 302 302 302 302 302 303 305 305 306 308 321 325 323 323 320 321 324 333 325 327 325 326 327 329 330 333 333 334 336 341 342
309 309 309 309 309 309 309 309 308 308 309 309 308 304 301 301 302 302 302 302 303 303 305 306 310 311 324 322 321 324 330 333 330 327 324 324 325 326 327 329 331 333 333 334 335 340 344
309 309 309 309 308 308 308 309 308 308 309 309 309 306 301 301 301 301 302 302 303 304 306 307 318 319 325 323 321 321 323 327 330 327 326 323 324 325 326 329 331 333 336 341 341 343 347
309 308 309 308 308 308 307 308 309 307 308 306 302 300 299 300 300 301 302 303 304 308 311 320 320 325 325 324 324 324 325 326 326 329 326 325 323 325 326 331 332 334 337 342 344 346 348
308 308 308 308 307 307 306 306 307 308 308 307 301 299 298 299 300 301 302 304 310 318 319 320 325 328 327 326 327 327 327 325 324 326 324 323 324 326 327 331 335 337 340 340 349 347 351
308 308 308 308 308 307 307 306 306 305 306 307 306 299 298 298 300 301 303 307 316 321 322 324 327 331 329 326 329 326 329 324 325 327 326 324 325 326 328 331 336 339 339 340 342 350 351
308 308 307 307 307 306 307 306 306 303 302 302 301 299 298 298 299 301 306 312 322 326 325 325 324 328 324 325 325 326 327 323 324 326 324 323 324 325 329 332 334 336 339 341 341 348 351
308 306 307 306 306 305 306 305 305 303 302 301 300 299 298 299 299 304 307 311 313 311 314 316 317 318 319 321 321 323 325 327 325 326 324 323 323 325 327 330 332 335 337 339 341 347 348
307 307 306 306 305 305 305 305 305 303 302 301 300 299 298 300 300 311 308 312 310 309 314 318 318 318 320 319 321 323 325 327 326 325 324 324 323 324 326 328 332 335 337 339 343 347 347
307 306 306 307 305 304 304 304 305 303 303 302 301 300 299 298 307 307 312 311 310 309 318 322 322 323 323 323 324 324 323 326 326 326 325 323 324 323 324 327 331 335 334 337 340 345 349
306 306 306 306 304 305 304 304 304 304 303 303 302 299 299 301 305 310 310 308 309 312 323 323 324 324 326 327 327 326 323 324 326 326 326 325 323 323 323 325 328 333 334 335 337 343 345
306 306 305 305 305 304 303 304 303 303 304 304 303 301 300 306 308 308 308 309 313 322 323 322 325 325 326 326 326 325 324 325 325 326 327 326 324 323 324 325 327 331 334 336 337 338 345
307 306 305 304 304 304 304 304 302 303 304 304 303 302 301 305 308 308 309 310 318 320 321 322 323 325 325 324 325 326 325 325 326 329 328 325 324 323 323 325 326 330 335 340 341 341 342
308 307 306 305 304 303 304 303 303 303 304 303 303 301 306 307 307 307 308 311 317 319 320 322 323 324 325 324 324 325 326 324 325 327 328 328 325 324 323 324 328 329 333 337 342 339 339
308 308 306 306 305 304 304 303 302 303 303 302 303 305 305 309 309 309 312 311 315 317 319 319 321 323 324 324 322 325 326 326 325 327 329 329 328 325 324 324 326 330 334 334 336 336 337
307 307 307 306 306 304 304 303 302 303 303 302 304 305 306 308 312 312 312 311 314 314 317 321 322 322 323 323 323 324 325 326 326 326 328 329 330 327 325 325 326 328 331 334 336 344 341
306 306 306 305 304 303 304 302 302 303 302 303 305 306 309 314 314 316 314 312 313 313 314 318 319 320 321 322 323 324 325 325 326 326 328 329 329 327 326 325 325 327 329 333 335 335 338
306 305 305 305 304 304 304 303 303 303 303 305 305 306 309 313 316 315 315 314 312 313 313 313 316 317 319 321 323 323 324 324 325 327 329 330 330 330 325 325 325 327 329 332 336 341 337
305 305 305 305 305 305 304 303 303 303 303 304 307 306 305 308 311 311 314 314 314 314 313 313 313 315 317 319 321 321 322 321 322 325 328 330 331 333 331 325 325 324 326 329 332 335 343
305 305 305 305 305 305 304 303 303 303 303 303 306 306 308 313 310 312 314 316 315 314 314 315 316 316 315 318 319 320 322 321 323 323 337 332 329 331 331 331 327 326 324 326 328 335 335
304 304 304 304 304 304 304 303 303 303 302 303 306 307 310 308 314 316 317 316 315 315 315 316 317 319 318 319 320 321 322 324 326 329 331 335 336 332 330 328 328 328 326 325 326 328 333
304 304 304 304 304 304 304 303 303 302 302 303 306 308 309 308 308 309 309 313 315 314 316 318 319 317 318 320 321 321 321 323 322 327 328 332 338 335 334 331 329 329 328 326 325 326 327
304 304 304 304 304 304 304 304 303 303 302 304 304 304 304 305 304 307 308 310 311 314 314 315 317 318 319 321 322 323 324 326 327 327 330 333 336 340 338 333 332 333 331 329 327 326 327
304 304 305 304 304 304 304 304 302 303 303 302 304 303 304 306 305 306 307 309 309 310 313 313 314 314 316 315 316 319 321 323 325 327 329 336 341 340 339 338 338 330 330 330 328 326 327
303 303 304 304 304 304 304 304 304 303 303 303 303 302 304 305 305 304 305 307 309 309 311 312 311 311 313 313 317 321 323 327 326 326 328 332 337 339 338 338 336 334 334 330 329 328 327
303 303 303 303 303 304 304 304 304 304 302 302 302 302 302 304 305 304 305 307 310 310 310 310 310 311 312 313 319 326 325 325 326 328 330 332 335 338 338 338 340 340 341 340 341 338 329
303 303 303 303 303 303 304 304 304 303 303 302 303 303 303 305 305 305 305 306 308 309 311 310 310 311 315 323 323 326 326 325 327 333 336 338 339 336 337 340 337 342 338 340 345 335 331
302 303 303 303 303 302 303 304 304 303 302 302 302 302 303 304 304 305 305 305 306 309 312 311 310 314 317 328 328 325 327 327 327 333 340 340 339 335 339 343 341 338 340 344 345 344 342
302 302 303 303 301 301 302 303 303 302 301 301 303 304 303 304 304 304 304 304 304 304 307 308 309 310 311 322 329 331 337 334 331 331 336 337 335 335 338 337 340 337 338 339 340 343 343

GFSGBSN_925_thetae_009.txt.gz
Theta_e
310 310 310 310 309 309 309 309 309 309 309 311 309 303 300 300 301 301 301 302 302 304 305 305 306 307 319 326 325 328 323 321 329 329 333 330 331 332 334 333 334 335 337 337 337 339 341
310 310 310 309 309 309 308 309 308 309 309 308 305 300 300 299 300 300 301 301 302 304 305 306 306 308 324 325 323 325 325 330 328 330 328 328 330 330 331 333 334 335 336 336 336 337 340
309 309 309 309 308 307 307 308 308 308 307 305 302 300 299 299 299 300 301 302 303 304 306 307 309 319 324 325 323 323 327 328 328 327 329 326 327 328 329 331 333 334 335 337 338 337 340
309 309 308 309 309 308 308 307 308 306 304 302 301 300 299 299 299 300 301 302 304 306 311 314 317 323 325 325 326 324 323 324 326 328 327 326 324 327 328 331 333 334 335 339 340 339 340
309 308 309 309 308 307 307 307 306 304 303 302 301 300 299 300 300 300 300 303 306 314 319 319 327 329 326 326 327 325 325 327 327 326 328 326 327 326 328 329 332 336 337 339 341 341 344
309 308 308 308 308 306 306 307 305 305 304 303 302 300 300 300 300 300 302 309 313 321 324 326 328 332 328 328 328 328 328 326 326 328 327 327 326 327 328 331 334 338 338 340 347 341 346
308 307 308 308 308 305 305 305 305 305 304 303 302 301 300 300 300 301 306 316 324 330 327 329 330 328 328 326 329 327 328 326 326 328 327 326 325 326 328 332 334 337 339 339 340 340 344
308 308 307 307 307 306 305 305 304 304 304 304 303 302 300 299 301 305 310 316 317 313 315 319 321 323 323 324 325 327 328 326 325 327 327 326 325 326 329 332 333 335 338 340 340 341 343
307 307 307 307 307 306 305 305 304 304 304 304 304 304 302 301 302 313 311 314 313 313 316 319 321 322 323 323 322 324 326 328 326 326 327 326 325 326 328 332 334 335 337 338 340 347 345
307 307 306 306 306 306 305 304 303 304 303 304 304 304 303 300 308 309 314 314 313 313 319 322 322 322 323 323 323 323 325 326 328 327 326 326 326 325 326 330 332 335 335 337 338 344 349
307 307 306 305 305 305 304 304 304 304 303 303 304 304 303 302 306 312 312 311 311 315 324 326 325 325 326 327 329 327 326 326 328 328 327 326 326 326 326 328 331 333 334 336 338 343 349
307 307 308 307 305 305 304 304 304 303 302 303 303 303 303 306 308 311 310 310 313 320 325 326 326 327 328 328 327 328 326 326 327 328 327 327 327 326 326 327 329 331 334 336 336 339 342
307 307 308 308 306 306 305 304 304 303 302 303 303 303 303 305 309 311 311 313 317 321 325 325 325 326 326 326 327 328 326 326 327 327 329 328 327 327 326 326 328 330 333 337 340 339 339
307 307 307 308 307 306 305 304 304 303 302 303 303 303 307 309 310 309 309 313 317 322 323 325 325 327 326 327 327 328 328 327 326 327 328 329 329 328 326 326 327 329 332 335 342 341 340
307 308 307 307 307 305 304 303 304 303 303 303 303 307 308 310 310 310 313 314 317 320 323 324 325 325 327 327 326 326 328 327 327 327 329 330 330 328 327 326 326 328 332 333 336 338 339
307 307 307 306 305 305 304 304 304 303 303 303 305 308 310 310 312 312 314 315 317 318 321 321 323 325 327 327 327 326 328 328 328 327 328 329 331 330 327 326 325 326 329 333 338 344 342
306 305 304 305 306 305 305 305 304 303 303 303 308 310 311 311 314 317 315 315 315 316 318 319 321 324 324 325 326 327 326 326 327 328 327 327 330 331 330 328 326 325 327 331 334 336 340
305 305 305 306 305 305 305 305 304 303 303 306 308 312 310 313 318 317 318 317 315 317 318 317 317 321 324 325 325 326 326 327 327 327 328 328 329 333 331 330 328 327 327 328 336 341 336
304 304 305 305 305 305 305 304 304 303 303 305 309 311 309 308 311 313 315 316 317 318 318 318 317 317 320 322 324 325 325 326 326 327 329 329 330 332 334 331 329 328 327 328 328 334 344
304 305 305 305 305 305 305 304 304 303 303 304 309 311 311 311 311 311 312 314 315 317 317 317 318 318 317 318 321 322 324 325 325 325 334 330 331 332 334 334 330 328 327 327 328 331 333
305 305 305 305 305 305 305 304 303 303 303 303 307 309 309 313 312 312 314 316 317 320 319 318 318 317 317 318 319 320 322 324 324 327 327 328 333 332 332 332 332 330 326 326 326 328 332
304 305 305 305 305 305 305 303 304 303 303 303 309 309 309 310 311 311 311 311 312 314 316 317 318 318 318 318 319 319 321 323 326 324 327 328 332 334 333 330 330 330 330 328 327 326 328
304 304 304 305 305 305 305 305 304 302 303 304 305 306 309 307 308 309 308 310 311 310 313 316 316 319 322 319 320 322 324 323 324 328 329 331 333 338 339 334 334 334 330 330 330 329 328
303 304 304 304 305 304 305 305 304 303 303 304 303 304 308 308 307 309 309 307 310 311 313 313 312 316 317 315 317 320 322 325 326 326 326 331 335 334 336 338 339 334 333 332 331 330 330
303 303 304 304 304 305 305 304 304 304 303 304 303 302 305 308 306 307 308 307 308 309 310 309 310 311 311 314 318 322 323 323 324 325 329 332 333 335 339 340 342 339 339 340 341 335 331
303 303 303 303 304 304 305 305 305 304 303 304 305 303 303 305 307 307 308 307 309 309 311 310 310 311 312 314 316 322 323 322 324 323 324 329 334 339 340 340 341 336 341 340 338 338 333
303 303 303 303 304 304 304 305 305 305 303 304 303 303 302 305 305 306 307 308 307 309 313 313 313 312 311 313 316 319 319 320 323 325 326 327 332 333 337 340 337 341 339 339 339 339 347
303 303 303 303 303 303 302 304 304 304 303 303 304 305 303 305 304 306 306 307 306 309 309 313 313 312 314 318 320 319 320 321 324 327 330 329 334 333 336 336 337 341 340 341 347 345 345
303 303 302 302 303 301 302 304 303 303 302 302 304 303 302 303 305 305 305 305 306 308 309 309 311 311 314 321 325 326 333 334 329 330 328 332 331 333 334 337 346 343 342 342 341 344 344

GFSGBSN_925_thetae_012.txt.gz
Theta_e
310 310 310 311 310 309 309 309 309 309 307 306 305 302 301 300 300 300 301 301 301 302 304 305 306 306 315 323 326 325 321 321 323 327 327 330 330 333 335 337 336 335 340 339 338 339 341
311 310 310 310 310 309 309 309 308 307 304 303 302 301 300 300 300 300 301 301 302 303 304 305 306 308 323 321 323 327 326 330 326 327 326 330 330 332 334 335 335 335 335 336 336 336 339
310 310 310 310 309 307 307 308 307 306 304 303 302 302 300 300 300 300 301 301 302 304 305 306 310 317 321 320 324 325 325 328 326 328 327 328 329 331 332 333 334 334 335 336 336 336 339
310 310 309 309 309 306 305 305 305 305 305 304 303 302 300 300 300 300 300 302 304 305 306 314 316 323 322 320 323 324 325 326 327 328 327 328 327 328 330 331 331 332 333 336 337 338 338
309 309 308 309 309 308 306 305 306 305 305 304 304 303 301 300 300 301 301 304 305 309 316 320 325 328 328 325 326 326 326 325 325 326 328 327 327 326 327 329 330 332 335 335 337 339 339
310 309 308 308 308 307 306 306 307 305 304 304 304 304 303 301 301 301 302 307 313 314 325 325 326 330 331 329 328 326 326 325 326 328 327 328 327 327 326 329 331 333 334 337 338 341 340
307 307 307 307 307 306 306 306 305 304 304 303 303 304 304 302 301 301 305 315 324 326 326 330 330 326 327 329 326 329 328 328 328 327 327 329 327 328 328 328 331 333 336 337 338 342 341
307 307 307 306 306 305 305 305 304 304 304 304 303 303 304 302 302 303 308 319 318 316 316 318 320 326 328 329 329 330 328 329 327 326 328 327 327 326 327 330 331 333 335 338 339 343 344
308 307 307 307 306 305 305 304 304 304 304 303 303 303 303 302 303 312 314 313 316 315 316 318 319 319 322 328 328 326 328 329 326 326 328 328 327 326 326 329 331 333 335 337 339 342 341
308 307 308 308 308 306 305 305 304 304 304 303 302 302 303 302 311 309 313 315 313 314 317 321 323 322 322 323 323 324 325 328 329 326 325 328 328 326 325 327 331 333 334 335 336 342 345
308 307 308 308 309 307 306 306 306 304 304 303 302 303 303 301 306 311 314 313 313 315 322 327 325 326 324 323 325 324 324 325 326 328 328 326 327 326 325 326 329 333 334 335 336 341 345
308 308 308 307 307 308 307 306 305 304 304 303 302 303 303 306 308 311 312 312 314 318 323 326 327 326 324 323 325 329 325 324 325 325 328 329 328 327 327 326 327 331 333 334 335 337 342
308 308 308 308 307 308 307 305 304 304 304 303 302 303 304 306 308 310 311 314 316 320 325 327 327 328 328 326 325 328 326 325 327 327 329 329 328 328 327 327 327 328 331 337 338 340 340
307 307 307 308 307 306 305 305 304 304 304 303 303 304 308 309 310 312 311 314 318 322 322 326 327 327 327 329 327 328 329 328 327 327 328 329 329 328 328 326 327 327 329 336 340 341 340
306 306 306 306 305 305 306 306 305 305 304 302 304 308 309 310 311 312 314 313 319 321 324 325 326 326 327 327 328 327 328 329 327 327 329 329 329 330 328 328 326 327 328 330 333 335 338
305 305 305 305 305 306 306 305 305 305 304 302 305 308 312 313 311 313 314 316 317 318 321 323 324 325 327 328 327 328 328 329 329 327 327 328 330 330 330 328 328 327 328 328 331 339 342
305 305 304 304 305 305 305 305 305 305 304 303 307 312 311 312 313 316 318 316 317 317 318 318 319 321 324 327 328 328 328 328 329 329 328 327 330 330 331 330 328 326 327 327 329 333 339
305 304 304 304 304 305 304 305 305 305 303 306 307 311 312 313 316 317 319 319 317 318 319 319 320 319 320 321 326 327 329 328 328 329 329 328 328 332 330 331 329 328 328 327 329 337 334
305 304 305 305 304 304 304 304 304 304 304 305 308 309 308 309 313 313 313 314 317 319 320 321 320 320 320 320 324 324 327 328 329 328 328 330 330 333 329 331 332 329 327 327 327 329 335
304 304 305 305 305 305 304 304 304 304 304 304 307 309 309 311 311 312 312 313 313 314 316 318 320 321 322 322 322 323 323 325 327 328 336 331 329 334 332 333 332 333 330 329 328 328 331
304 304 305 305 305 306 305 304 304 303 303 304 307 309 308 309 311 312 313 316 316 317 315 317 319 320 321 323 321 320 321 322 325 329 330 328 333 332 330 329 331 332 330 330 330 331 332
303 304 304 304 305 305 305 305 305 303 303 304 306 308 309 309 309 309 308 311 311 313 315 314 316 319 320 322 322 322 321 324 325 327 327 327 333 331 332 331 331 332 332 330 329 330 331
303 304 304 304 304 304 304 304 304 304 303 305 304 305 308 309 308 308 308 308 310 311 312 314 314 317 319 318 318 316 318 320 324 327 330 331 329 335 335 331 332 334 333 333 331 328 329
303 304 304 304 304 304 305 305 304 304 304 305 305 306 306 309 307 308 309 308 310 312 311 312 311 315 315 313 315 317 319 321 323 324 324 334 333 333 335 335 338 333 332 331 331 331 331
303 304 304 304 304 304 305 305 305 304 304 305 305 305 304 307 307 306 308 308 309 310 308 310 311 311 311 313 317 319 321 323 324 324 325 329 334 335 338 336 336 334 335 336 334 333 334
303 304 304 304 304 304 305 305 305 305 304 304 305 305 303 304 305 306 309 307 308 310 309 310 313 312 311 313 317 321 323 324 325 327 327 328 337 336 337 339 342 340 336 340 338 341 340
303 304 304 304 304 304 305 305 305 305 305 304 305 305 302 303 304 306 308 309 309 310 311 312 314 315 312 313 317 319 323 323 326 328 328 330 334 336 337 335 335 339 339 337 340 341 346
303 302 304 303 303 304 303 303 304 305 304 304 305 305 304 305 304 306 306 308 307 307 309 311 310 315 313 312 317 317 321 322 325 328 330 330 329 334 341 343 346 340 340 342 347 344 343
302 302 303 303 302 303 302 304 303 302 304 303 304 305 305 306 305 304 305 307 306 307 308 309 310 311 316 316 320 322 324 327 326 327 325 328 328 329 333 335 342 346 347 344 343 343 344

GFSGBSN_925_thetae_015.txt.gz
Theta_e
312 312 311 310 308 306 307 308 309 305 305 304 303 302 300 300 300 300 301 301 301 302 303 304 304 305 310 322 323 319 322 321 321 322 327 325 323 324 327 332 333 336 339 341 344 342 340
310 311 311 310 309 307 306 305 305 305 305 305 304 303 302 301 300 300 301 301 301 302 303 303 305 310 321 318 316 319 322 321 323 328 325 325 325 326 329 332 332 333 334 338 337 342 341
310 310 309 309 309 309 307 307 308 306 305 304 304 303 303 302 301 301 301 302 303 303 303 305 310 318 321 317 319 322 324 327 328 326 324 325 327 327 328 330 331 331 331 332 333 334 342
310 310 309 308 308 307 307 307 307 306 305 304 304 303 302 302 301 301 301 302 303 304 305 309 318 321 322 316 318 319 321 322 327 326 327 327 326 326 326 327 330 330 328 329 331 333 334
308 307 308 307 307 306 306 306 305 305 304 304 304 304 303 303 302 302 302 303 305 310 310 318 322 325 328 325 323 321 322 323 326 327 327 327 326 324 325 325 326 326 327 329 330 333 337
308 307 307 307 306 306 305 305 304 304 304 304 304 302 302 302 303 303 303 306 314 315 322 324 325 328 329 327 327 325 323 325 324 323 324 326 324 323 323 322 326 326 328 328 331 335 337
308 308 308 307 308 307 305 305 305 304 304 304 304 303 302 302 303 304 304 309 317 320 324 330 328 325 322 324 327 327 326 325 323 322 323 324 324 325 323 322 324 327 328 330 331 337 347
309 309 308 308 308 309 307 306 306 306 305 304 304 303 302 302 304 306 311 314 316 313 314 315 316 319 325 328 329 327 327 324 324 325 325 323 325 325 326 325 324 326 328 329 331 338 345
310 309 308 308 308 308 309 307 307 305 304 304 304 303 302 303 305 313 307 310 314 314 312 314 315 316 316 319 325 328 326 326 326 325 325 324 326 327 326 326 327 326 327 329 331 339 343
308 308 309 309 308 308 308 308 307 305 304 304 304 303 303 303 310 306 310 313 313 313 312 316 318 318 318 317 320 323 328 327 327 326 325 324 326 326 325 325 324 327 328 330 331 333 345
308 308 308 308 308 308 307 307 306 305 304 304 304 303 303 303 305 309 312 311 311 313 319 324 322 321 318 317 321 324 328 324 327 328 323 323 326 327 326 324 323 325 329 330 331 332 340
308 307 306 306 307 307 306 305 305 305 305 305 304 303 303 305 306 307 309 310 312 315 320 323 324 322 318 318 319 322 325 323 323 327 326 326 325 324 325 326 324 324 326 329 330 331 335
307 306 305 306 306 306 305 305 306 305 305 305 304 303 303 306 307 308 309 312 314 316 322 326 324 324 321 320 319 320 321 321 320 321 323 324 326 326 325 324 323 323 321 327 330 333 333
306 305 304 305 305 305 305 306 306 305 305 304 304 303 305 308 309 310 311 312 315 321 319 322 322 324 325 324 321 321 323 321 321 320 321 322 323 326 327 324 323 322 321 325 330 333 333
305 304 305 304 304 304 304 305 305 305 305 304 303 305 306 307 310 311 312 315 317 318 320 320 318 323 325 326 326 323 323 322 321 321 323 323 324 328 327 327 324 323 322 322 323 328 330
305 305 304 304 304 304 304 304 305 304 304 303 304 306 309 310 313 312 313 315 316 316 316 316 317 319 319 319 322 326 324 325 325 324 324 324 327 327 328 326 325 323 324 322 323 325 330
305 304 304 305 305 305 304 304 304 304 303 303 306 308 308 309 311 313 314 314 315 315 316 317 318 318 319 319 319 319 323 327 326 327 325 324 324 325 327 326 325 325 322 321 321 324 327
304 304 304 304 304 305 305 304 304 304 304 305 306 308 307 307 308 314 314 315 314 316 317 318 319 319 319 319 319 320 320 320 326 327 327 324 323 324 325 326 326 325 323 321 323 324 326
303 303 303 304 304 304 304 305 305 304 304 304 305 306 306 307 309 310 312 313 314 314 313 313 316 318 320 320 321 321 321 322 321 322 327 326 324 324 326 324 325 326 325 323 322 321 323
304 304 304 304 304 304 304 304 304 304 303 304 306 307 307 308 309 309 310 312 313 313 314 314 315 316 318 320 321 322 322 323 322 320 336 332 325 325 326 326 326 330 327 326 323 322 323
304 304 304 304 304 304 304 304 304 304 303 303 307 307 306 308 310 308 309 312 311 311 311 311 313 315 316 318 322 322 322 319 320 324 324 323 327 326 326 327 327 326 328 327 325 323 324
303 304 304 304 305 305 304 304 303 304 304 304 306 306 305 305 307 307 308 308 309 309 309 311 313 316 315 318 320 320 318 319 318 318 317 319 328 330 329 329 326 327 328 330 326 326 326
304 304 304 304 305 305 305 304 304 303 304 304 304 304 306 306 306 306 308 307 308 309 310 311 311 313 313 315 315 314 314 314 316 318 318 319 324 330 328 330 330 330 327 328 330 329 328
303 304 304 305 305 305 305 304 304 304 304 303 304 305 306 306 305 305 306 306 307 309 309 309 311 310 310 311 312 314 316 317 318 319 318 320 322 329 327 331 334 331 330 331 331 332 329
304 304 304 305 305 305 305 305 305 304 304 304 304 306 305 306 305 306 305 307 308 308 307 309 309 309 312 312 315 320 319 319 319 320 320 320 322 328 329 329 329 331 330 332 331 331 329
303 302 303 305 305 304 305 305 305 305 304 304 304 305 304 303 305 305 306 306 306 309 309 308 308 310 312 315 317 324 324 322 325 324 321 321 323 329 327 329 330 330 333 339 338 340 346
302 302 302 304 304 304 305 304 305 305 304 305 305 304 303 302 302 304 306 308 308 309 309 309 310 309 311 315 316 317 320 320 324 327 326 324 333 334 330 326 328 332 336 335 338 346 346
302 302 302 302 302 303 304 305 305 305 304 304 304 304 305 304 304 304 304 306 306 307 309 309 310 310 312 316 316 318 319 320 324 325 326 328 332 332 335 335 337 342 340 340 343 346 342
301 302 302 302 302 303 304 304 304 304 304 304 304 304 304 306 305 304 304 305 305 305 307 308 310 310 311 318 317 319 320 323 327 331 326 330 334 338 332 341 345 337 334 332 337 342 345

GFSGBSN_925_thetae_018.txt.gz
Theta_e
311 311 310 310 310 309 308 308 308 307 307 306 305 304 304 303 302 302 302 301 302 301 302 302 302 305 312 320 319 317 320 321 323 322 329 325 322 320 322 323 327 333 336 341 343 341 338
310 310 310 310 309 307 308 309 309 307 305 305 305 304 304 305 304 304 303 303 302 303 303 303 305 312 317 310 314 316 317 318 321 325 326 323 322 321 322 325 327 330 331 332 339 342 340
308 307 308 307 306 306 306 306 306 305 305 305 305 304 303 304 305 304 304 304 304 304 304 305 309 317 320 311 316 319 325 321 321 324 324 324 323 324 324 326 327 329 329 329 330 340 341
308 308 308 307 307 307 306 305 306 305 305 305 305 304 303 303 303 304 304 305 306 306 308 309 314 320 318 313 316 315 317 320 324 325 326 326 325 322 324 324 325 326 326 327 328 331 341
310 309 309 309 308 308 308 307 306 306 305 305 304 304 304 303 302 303 304 306 308 313 312 314 320 321 321 322 323 321 317 318 320 323 324 326 322 321 323 323 321 322 325 326 326 333 343
311 310 310 309 308 308 309 309 307 307 305 305 304 304 304 303 303 303 304 309 316 321 323 322 324 322 319 322 328 324 323 318 321 323 323 324 322 322 319 319 323 324 325 324 326 329 341
310 310 310 309 309 308 308 308 308 307 305 305 304 304 304 304 304 303 308 313 310 311 322 325 324 322 321 323 325 324 323 320 321 321 321 321 321 325 322 320 321 323 324 325 326 330 340
308 308 308 309 309 309 309 308 308 307 305 305 305 305 304 303 304 307 309 310 314 312 309 312 314 319 321 321 325 327 325 321 321 321 319 320 322 321 323 322 321 322 323 324 325 327 340
309 309 308 308 308 308 308 307 306 305 305 305 305 305 304 304 304 309 306 308 310 310 307 310 313 314 314 315 318 321 323 321 321 320 321 320 322 323 324 324 323 321 321 323 324 326 343
309 309 307 307 307 307 307 305 305 305 305 305 305 304 304 303 305 305 308 310 309 310 309 312 313 313 314 314 315 319 324 323 324 322 322 322 323 323 324 325 323 321 323 323 325 327 329
307 307 305 304 306 307 305 305 305 305 305 305 305 304 304 303 304 306 306 308 309 309 319 321 318 316 313 315 317 318 320 323 325 324 322 322 323 323 325 325 324 323 322 325 326 326 327
307 307 304 304 305 304 304 304 305 305 305 304 304 304 303 304 304 306 308 309 310 311 317 319 320 316 314 315 317 320 321 323 323 325 324 322 322 323 324 325 325 324 321 322 325 326 328
306 304 304 304 303 303 303 304 304 304 304 304 303 303 303 304 305 306 309 308 310 313 317 322 319 316 315 315 316 317 324 325 326 320 323 326 326 323 322 322 322 320 317 319 322 324 329
305 305 305 304 304 304 304 304 304 304 303 303 303 303 303 304 305 306 310 307 312 316 316 317 316 317 319 316 316 317 317 326 324 317 317 322 325 322 324 324 321 318 318 320 322 325 326
305 304 304 304 304 304 305 305 304 304 303 303 303 304 305 305 307 306 306 312 311 313 315 315 315 317 317 318 316 316 316 318 321 321 319 317 320 321 322 323 324 322 317 318 318 322 324
304 304 304 303 304 304 304 304 305 304 303 302 304 305 305 307 307 308 307 312 311 313 314 315 316 315 318 317 317 317 316 318 319 320 319 318 320 320 322 322 322 320 319 320 314 320 322
304 304 303 303 303 303 303 304 304 305 303 302 305 302 305 306 304 306 311 310 312 312 313 315 315 316 317 318 318 318 318 317 319 319 319 319 318 321 323 321 324 323 321 318 317 316 321
303 303 303 303 303 303 303 304 304 304 304 303 303 303 304 304 302 303 310 310 311 312 312 313 314 316 316 315 317 319 319 318 320 319 319 318 317 319 322 321 323 324 322 317 320 319 319
303 303 303 303 303 303 303 304 304 304 304 303 301 300 304 305 304 304 305 310 310 311 311 312 312 312 314 315 318 319 320 320 319 319 319 322 319 322 320 319 320 322 322 321 313 315 320
304 304 304 304 304 304 304 304 304 303 304 303 301 304 299 300 303 304 306 309 309 309 310 310 310 313 315 315 315 319 319 320 317 317 323 317 323 320 325 324 321 321 323 321 321 321 321
304 304 304 305 305 304 304 304 303 303 304 303 300 301 302 303 304 304 305 307 309 309 308 308 310 311 315 316 317 317 319 318 317 318 316 315 316 318 319 323 323 324 324 324 322 323 322
304 304 304 305 305 305 305 304 303 303 304 303 304 304 303 303 302 302 305 307 308 307 309 310 312 311 312 313 314 316 317 313 315 315 314 313 317 318 324 324 324 325 325 325 325 324 322
304 304 304 305 305 305 305 304 304 303 304 303 303 304 304 305 303 302 303 304 305 306 308 310 309 310 311 309 310 312 312 311 311 313 314 314 315 317 322 323 324 325 326 325 324 324 323
303 304 304 305 305 305 305 305 304 304 304 304 304 304 304 305 304 304 304 304 306 306 308 307 306 309 309 309 309 309 310 311 311 312 313 316 317 316 321 323 328 326 326 325 323 325 325
303 303 304 304 305 305 305 305 305 304 303 304 304 304 302 305 304 304 304 305 305 304 304 307 307 306 307 309 311 312 315 316 316 315 316 317 318 318 323 325 324 329 328 326 325 326 327
301 302 302 303 304 304 305 305 305 303 303 303 304 303 304 303 304 303 304 304 303 304 306 307 305 306 308 310 313 315 316 320 322 322 318 318 318 320 322 325 328 325 329 334 330 335 342
301 301 301 302 303 304 305 305 305 305 304 304 304 303 303 303 303 301 303 304 303 304 304 305 308 306 308 312 315 313 314 316 324 323 325 325 319 322 323 327 322 327 332 332 335 333 343
301 300 301 301 301 304 305 305 305 305 304 304 303 303 304 304 303 303 303 303 304 303 306 304 308 307 308 312 317 314 314 317 322 324 327 329 333 335 334 329 333 335 335 329 331 342 339
301 301 301 302 302 303 304 304 305 304 304 304 304 303 304 304 303 303 304 304 303 303 303 303 307 309 309 310 313 316 317 319 320 327 327 332 332 332 336 335 334 336 333 339 345 349 349

GFSGBSN_925_thetae_021.txt.gz
Theta_e
308 309 309 309 307 307 306 307 308 307 306 306 305 304 305 304 304 304 304 303 303 304 304 304 306 304 313 318 313 317 320 321 317 326 327 323 322 321 320 320 325 339 336 334 340 339 349
309 310 310 310 309 309 309 308 308 306 306 305 305 304 304 304 304 304 303 303 304 305 305 306 309 308 314 306 314 315 314 321 321 328 326 323 322 319 320 321 323 327 328 329 332 336 343
310 310 310 310 309 308 309 310 309 307 307 305 305 304 304 304 304 304 304 304 305 307 307 310 312 314 319 309 315 319 322 315 322 323 322 325 322 320 319 321 322 326 328 326 327 330 342
312 311 311 310 309 308 308 308 310 308 307 306 305 305 305 304 304 304 304 305 307 308 312 313 314 318 312 311 313 313 316 316 316 323 322 322 323 319 322 323 323 325 324 327 327 328 339
310 310 310 310 310 309 309 309 308 308 306 305 305 305 305 304 304 304 304 306 310 316 311 314 317 318 315 318 323 315 314 316 317 322 324 325 320 320 322 323 321 320 325 325 325 325 339
309 310 309 309 309 309 309 309 307 306 305 305 305 305 305 304 304 304 307 312 315 322 321 321 323 320 317 318 327 325 321 316 317 316 320 321 320 319 317 318 324 324 324 323 325 331 340
309 309 309 307 307 307 308 307 306 305 305 305 305 305 305 304 304 306 306 311 308 310 317 320 322 320 318 320 323 323 318 316 318 320 320 320 322 321 321 319 321 323 323 323 324 330 340
309 309 307 305 306 307 306 306 305 305 305 305 305 305 304 304 304 308 305 306 308 308 308 309 310 312 316 318 319 319 320 317 318 318 319 319 322 321 322 320 321 321 322 322 322 325 330
306 307 306 304 306 306 306 305 304 305 304 304 304 304 303 304 304 306 305 308 307 308 305 308 310 311 312 314 317 318 319 318 320 319 318 321 319 320 322 322 321 320 320 322 322 324 333
307 307 306 306 305 304 303 303 303 303 303 303 303 303 303 303 304 303 306 306 308 308 307 312 311 311 312 315 317 317 321 320 320 321 320 319 319 321 322 323 322 321 320 322 322 323 324
306 305 305 305 304 303 303 303 303 303 303 303 303 302 303 302 304 304 304 306 309 306 320 321 314 313 311 313 316 316 321 321 322 320 319 320 321 321 322 323 321 324 322 322 323 322 324
306 306 306 305 304 304 304 304 304 303 303 302 302 302 302 304 303 304 305 304 307 310 316 318 316 314 313 313 314 316 318 321 322 322 321 321 321 321 322 322 322 323 322 319 320 320 323
305 305 304 304 304 304 304 304 304 304 304 303 302 302 302 304 304 304 304 305 308 311 315 319 315 314 315 314 315 317 318 320 323 324 324 322 323 320 321 322 322 321 317 320 319 321 324
305 304 304 303 303 303 303 304 303 303 304 303 302 302 303 303 305 304 306 306 310 314 312 314 315 314 316 315 315 315 320 322 322 319 321 325 325 323 320 321 321 319 319 317 319 320 322
305 304 304 304 303 303 303 303 304 303 303 303 302 303 304 305 305 305 304 308 309 311 314 315 315 315 316 316 316 316 314 323 323 317 320 319 322 321 324 322 321 319 320 318 316 319 319
305 304 304 303 303 303 303 303 303 303 303 304 302 303 304 305 303 306 306 309 309 312 312 313 315 315 316 316 316 316 316 316 318 321 317 316 318 317 321 322 321 322 317 320 311 320 322
304 304 304 303 303 303 303 303 303 303 303 303 303 300 303 303 304 303 308 308 310 310 311 312 313 313 315 316 317 317 318 318 320 320 318 318 316 319 318 318 322 319 320 316 314 314 321
304 303 303 303 303 303 303 304 304 303 303 303 300 300 303 303 301 299 304 305 309 310 310 311 312 313 314 314 316 315 317 318 318 318 320 317 311 319 318 319 320 320 321 316 319 318 314
304 304 304 304 304 303 304 304 304 303 304 304 298 297 303 303 304 302 303 307 309 309 309 310 311 311 313 314 315 318 318 318 317 317 322 320 318 316 316 317 319 319 319 320 316 315 322
304 304 304 304 304 304 304 305 304 303 303 303 299 302 298 297 300 303 304 305 309 308 309 308 309 312 313 314 313 315 315 318 314 314 321 313 314 318 319 318 319 319 321 321 320 320 323
304 305 305 305 305 305 305 305 304 303 303 303 300 300 299 301 302 302 303 304 308 307 308 308 309 312 314 314 315 315 315 316 313 316 313 313 316 315 317 318 319 319 319 322 320 322 322
304 304 304 304 304 305 305 305 304 303 304 303 303 304 303 302 302 304 302 305 308 305 305 308 312 310 308 311 311 310 312 313 313 313 311 310 317 314 318 319 321 322 320 321 322 322 320
303 304 304 305 305 305 305 304 304 304 304 303 303 303 303 304 305 304 303 303 304 304 306 307 307 307 307 309 309 308 308 310 310 312 311 312 315 316 319 318 319 322 322 322 322 321 321
303 304 304 304 305 305 305 304 304 304 304 303 303 303 305 304 304 304 303 303 304 304 305 305 305 307 307 306 306 307 305 308 309 309 310 312 314 315 317 317 325 322 322 323 322 322 320
301 301 303 304 304 305 305 305 305 304 303 304 304 304 304 304 303 304 304 304 304 303 303 303 303 304 304 307 308 309 309 312 311 311 311 311 314 317 319 320 322 323 325 322 321 322 322
301 301 301 302 303 304 305 305 305 304 303 304 304 303 303 304 304 304 304 303 303 303 304 305 303 302 306 305 309 309 311 316 314 318 311 312 313 318 317 322 325 323 336 336 322 325 332
301 301 301 301 301 302 304 305 305 305 304 304 304 303 303 304 303 302 303 302 302 302 303 302 303 305 305 305 309 309 311 313 315 320 318 316 317 320 319 321 321 333 338 337 329 326 338
301 301 301 301 301 302 304 304 305 305 304 304 303 303 303 304 302 302 301 303 303 303 305 301 304 305 305 308 310 311 312 312 314 317 320 323 325 323 320 325 326 336 340 344 339 340 338
301 301 301 302 303 302 303 305 305 305 304 303 304 303 303 303 303 303 303 303 302 302 303 303 304 304 308 308 309 309 315 313 313 318 317 321 325 326 327 326 336 334 335 338 340 340 341

GFSGBSN_925_thetae_024.txt.gz
Theta_e
312 312 311 311 310 310 310 311 311 311 310 308 306 305 305 305 305 307 308 307 306 305 306 306 310 309 314 316 310 318 317 323 332 340 340 335 347 335 325 330 339 344 342 336 336 337 348
312 312 312 311 310 310 310 310 310 310 308 306 305 305 305 305 305 305 305 306 306 306 305 307 312 313 312 304 311 312 314 317 335 335 327 323 325 321 321 320 326 324 331 330 327 329 336
312 311 311 310 310 310 310 310 309 307 306 305 305 306 305 305 305 304 304 305 306 308 309 310 313 313 317 305 312 314 316 318 322 329 323 323 321 321 319 321 319 321 324 325 326 327 336
309 310 310 310 309 308 309 309 308 306 305 305 305 305 305 304 304 304 305 306 308 311 314 315 315 315 308 309 310 311 317 322 321 323 322 324 323 319 320 320 321 323 323 325 326 326 334
310 310 310 309 308 308 308 308 307 305 305 305 305 304 304 303 303 303 307 307 316 316 312 315 315 315 311 316 319 313 313 313 322 323 323 322 320 319 320 320 320 319 324 324 325 324 335
309 309 309 308 308 307 307 306 305 305 304 304 303 303 303 303 303 304 307 314 322 321 318 319 319 317 316 317 322 323 315 313 314 316 319 321 318 318 315 317 319 323 322 323 325 330 337
308 308 308 307 307 306 306 305 304 304 303 303 303 303 302 302 302 305 306 309 305 308 307 321 321 318 318 318 320 319 317 314 316 316 318 318 320 321 318 317 320 321 322 324 324 327 339
308 308 307 307 306 305 305 304 303 303 302 302 302 302 302 302 302 306 308 306 305 304 307 307 307 310 316 315 317 317 316 314 315 317 317 317 322 320 320 318 320 321 322 322 321 323 325
306 305 305 306 305 304 304 304 304 304 303 302 302 302 302 302 302 303 305 305 304 306 304 307 308 310 310 311 314 315 314 315 316 317 319 322 319 321 322 320 320 319 320 321 323 322 326
306 305 305 305 305 304 304 303 303 304 303 303 303 302 302 302 302 302 302 304 303 306 306 311 310 310 312 311 313 316 316 317 318 318 316 317 318 322 320 322 320 319 318 321 321 320 322
305 305 305 305 304 304 303 303 303 303 303 303 302 302 302 302 303 303 303 304 304 303 319 320 311 312 310 313 314 315 318 320 319 318 318 319 318 319 320 321 320 323 320 320 320 319 320
305 305 305 305 304 304 303 303 303 303 303 302 302 302 302 303 303 304 304 304 305 313 318 317 313 313 312 312 313 314 318 319 318 319 320 319 318 320 319 320 320 320 321 317 316 317 321
305 305 305 304 303 303 303 302 302 303 303 302 302 302 303 303 303 305 304 302 307 312 313 317 315 313 313 313 314 314 316 320 321 321 320 320 321 320 319 320 319 320 318 320 320 320 324
305 304 304 304 303 303 303 303 303 303 302 301 302 302 302 304 303 305 305 304 310 312 311 313 314 313 315 314 315 316 315 320 320 320 320 321 322 321 319 320 319 318 316 318 321 320 322
305 304 304 304 303 303 303 304 303 303 302 302 302 302 303 305 303 304 302 306 308 309 312 312 313 315 316 315 315 315 314 318 322 317 322 321 323 320 320 319 321 318 320 316 315 316 317
305 304 304 303 304 303 303 303 303 303 302 302 303 301 302 303 303 304 305 308 308 309 310 310 314 314 315 315 315 314 315 318 320 319 316 318 322 318 322 321 319 317 315 320 312 322 321
304 304 303 303 303 303 303 304 304 303 302 302 302 298 302 303 303 301 303 305 307 308 309 310 310 311 313 314 313 313 316 319 318 319 317 316 314 318 318 321 324 317 317 314 316 314 319
303 304 304 304 304 304 304 304 304 304 302 303 298 299 302 303 299 297 300 303 305 309 307 309 310 312 314 314 315 314 319 319 315 317 321 320 313 318 317 317 319 323 321 314 320 318 312
304 304 304 304 304 304 304 305 305 304 303 304 297 298 303 302 300 300 302 304 306 308 308 308 309 311 312 313 313 317 315 316 314 314 321 318 315 315 316 317 317 317 321 317 319 315 320
304 304 304 304 304 304 305 305 305 303 303 303 297 301 297 297 297 302 304 302 306 307 309 308 308 310 312 312 312 314 316 316 313 316 319 313 313 315 318 318 317 318 318 317 319 322 322
304 304 304 305 304 304 304 304 304 304 303 303 297 298 299 300 300 303 303 302 306 306 306 308 310 310 307 311 311 312 311 312 312 314 311 311 316 315 316 317 318 318 319 318 317 320 321
304 304 304 304 305 305 304 304 304 304 304 303 302 304 302 303 302 304 303 301 304 304 304 305 311 309 307 308 310 310 308 311 312 311 309 308 315 314 317 318 318 318 319 320 320 318 319
302 304 304 304 304 305 304 303 304 304 304 302 303 302 302 305 302 303 302 303 303 302 303 305 306 305 306 306 307 306 305 305 307 311 309 310 313 316 318 317 318 320 319 319 319 318 319
301 301 302 302 304 304 304 304 304 304 304 303 303 302 304 305 305 303 304 303 303 303 305 304 303 304 304 304 304 304 303 305 307 308 307 309 311 314 317 316 321 318 317 319 320 320 319
301 301 301 301 302 304 304 305 305 304 303 304 304 303 304 303 303 303 303 303 302 301 302 302 302 301 301 304 306 305 305 309 308 309 308 309 310 314 316 318 317 317 329 338 338 330 320
300 301 301 301 301 302 304 305 305 304 304 304 304 304 303 304 303 303 303 303 303 302 302 303 301 300 304 302 306 308 307 308 313 314 308 308 309 311 314 320 322 320 336 335 337 335 323
301 301 301 301 301 302 304 305 305 305 304 304 304 303 303 304 302 302 304 303 299 303 303 302 302 302 303 305 307 307 308 310 311 314 311 312 313 313 314 319 318 318 336 337 330 335 341
300 301 301 300 300 301 304 305 305 305 305 304 303 303 303 303 302 301 302 303 302 302 303 303 303 304 307 309 308 309 307 308 309 308 313 311 314 315 314 319 320 332 338 348 339 339 339
300 300 300 300 300 301 304 305 305 305 305 305 304 303 303 303 303 303 302 302 302 301 302 303 304 304 302 306 305 306 308 309 311 312 311 313 316 318 314 316 319 333 336 334 336 336 337

GFSGBSN_925_thetae_027.txt.gz
Theta_e
312 312 311 311 310 310 310 310 311 308 307 307 307 306 305 305 305 304 305 305 305 306 306 309 311 312 313 316 311 315 318 320 345 344 343 347 352 351 351 352 348 356 347 344 344 341 338
310 310 310 310 309 309 309 309 309 309 308 307 305 304 303 303 303 303 303 305 306 306 306 309 312 314 312 307 309 313 319 341 345 344 342 343 349 343 334 331 341 335 335 332 331 331 333
310 310 310 309 309 308 309 308 308 307 307 305 303 303 303 303 302 302 303 305 305 309 309 310 314 313 315 310 309 311 327 340 342 337 340 336 334 339 329 324 325 324 324 325 326 329 331
309 309 309 309 309 307 307 307 307 304 303 303 302 302 302 303 302 302 303 306 316 316 314 315 315 314 311 308 309 312 329 325 340 333 330 329 325 336 323 323 324 325 326 328 328 328 330
308 308 309 308 308 307 306 306 305 303 302 302 302 302 302 302 302 302 305 306 318 314 317 317 314 316 312 315 313 310 314 322 332 331 323 325 324 324 322 323 322 324 328 328 329 329 337
308 308 307 307 307 306 306 306 305 303 303 303 303 303 302 302 302 303 306 314 320 319 317 318 316 317 314 317 318 313 313 320 324 326 324 323 324 325 324 323 324 324 325 326 328 329 331
307 307 308 307 307 306 306 305 303 303 302 302 302 302 302 302 302 303 307 308 310 312 308 323 323 318 320 317 321 318 312 316 319 322 321 323 323 325 323 323 323 322 324 327 327 327 333
307 307 306 306 305 304 303 302 302 302 301 301 302 302 302 302 302 303 307 307 305 304 309 310 308 312 316 316 318 319 313 315 317 319 321 323 324 323 322 323 323 321 323 325 326 326 329
306 306 305 305 305 304 303 301 301 301 301 301 301 302 302 302 302 302 304 304 303 304 309 311 310 311 313 313 317 319 315 316 317 319 320 324 323 323 323 324 324 323 322 323 326 326 326
305 305 304 305 304 302 302 302 302 301 301 301 301 302 302 302 302 303 304 303 304 304 313 316 312 313 312 314 316 317 318 320 318 319 320 322 323 323 324 325 324 324 322 323 324 326 329
305 305 305 305 304 304 303 302 303 302 301 301 301 301 302 303 303 305 304 304 304 305 315 318 312 311 314 317 316 316 317 320 320 320 321 322 323 324 325 324 325 324 324 324 324 326 327
305 305 305 305 304 303 303 303 303 303 302 301 301 301 302 303 303 303 303 304 305 314 317 319 313 313 315 315 315 317 318 321 321 321 321 322 321 324 324 325 325 325 325 324 324 326 328
306 306 304 304 304 304 303 303 304 303 302 301 301 301 302 303 304 303 304 306 313 316 316 318 317 316 316 317 315 317 319 322 324 323 323 323 323 322 323 323 324 325 325 326 326 326 327
306 305 304 304 304 304 304 303 304 304 303 301 301 301 303 304 303 302 305 307 313 313 314 313 314 315 317 317 318 318 319 322 325 323 323 324 324 324 323 324 324 325 325 324 324 324 324
305 304 304 303 303 304 304 304 304 304 303 301 301 302 302 302 302 302 308 305 310 312 311 312 314 317 318 317 317 318 318 321 324 323 324 324 323 323 323 323 324 324 327 324 323 322 324
303 304 304 304 304 304 304 305 304 304 303 301 302 301 302 302 303 305 307 308 310 309 310 311 314 314 317 317 318 318 321 320 322 321 321 325 327 325 323 324 323 323 324 324 324 324 324
304 303 304 303 304 304 304 305 304 304 302 302 301 303 302 302 301 305 307 307 306 308 310 311 312 313 314 316 316 317 321 318 316 319 322 322 322 322 325 325 325 322 324 324 325 324 324
304 304 304 304 303 303 304 304 304 304 302 302 300 303 302 302 304 303 305 305 305 307 309 309 310 312 315 315 316 318 321 319 314 319 324 320 320 326 325 325 325 325 325 325 326 328 325
303 304 304 304 304 304 304 304 303 303 303 303 302 301 301 302 304 304 304 304 304 307 308 310 311 312 313 315 316 317 318 316 315 319 321 319 323 328 327 325 322 326 326 325 326 326 328
304 304 304 304 304 304 304 303 303 303 303 303 303 304 303 302 301 302 303 304 305 306 308 309 311 309 310 314 314 315 315 315 312 316 318 317 320 325 329 327 322 324 322 326 325 328 327
303 304 304 304 304 304 304 304 304 303 303 302 303 303 303 303 303 303 304 303 305 306 304 306 310 309 309 312 312 313 311 312 311 313 314 316 320 319 319 318 319 321 322 322 323 326 330
301 303 304 304 305 304 304 303 304 304 303 303 305 305 303 303 304 304 304 304 304 304 304 304 307 308 308 311 308 311 310 311 312 313 313 313 316 317 317 316 319 320 321 321 322 323 323
301 302 304 304 304 304 304 303 304 304 304 303 302 303 303 303 305 305 304 304 304 303 304 305 306 306 306 306 306 306 307 307 308 309 312 312 313 314 316 317 316 321 321 322 322 322 323
301 301 301 303 303 303 305 304 304 304 304 303 303 302 304 305 306 304 303 302 302 303 305 304 304 305 304 304 305 306 307 308 308 308 309 312 316 315 313 314 319 320 321 321 323 324 323
300 301 301 301 301 302 304 305 304 304 304 304 303 303 304 305 303 303 303 302 303 302 304 303 304 304 304 305 307 306 306 310 309 308 309 311 311 313 312 315 317 317 319 332 336 328 332
300 300 300 300 300 300 302 305 305 304 305 304 304 303 304 305 304 303 303 302 303 303 303 303 303 303 306 307 308 308 305 307 306 313 311 309 311 312 312 312 316 320 319 322 336 330 342
300 300 300 300 300 300 301 305 306 305 305 306 303 303 303 304 303 303 304 303 303 303 305 303 303 303 306 307 307 307 307 307 307 306 314 312 312 312 312 313 313 316 321 339 336 332 343
300 300 300 300 300 300 302 305 306 306 305 306 304 303 303 304 303 302 302 303 303 303 304 303 304 305 307 309 308 308 310 308 311 308 309 313 314 313 313 312 312 315 323 323 334 341 342
300 300 300 301 301 301 304 306 307 306 306 306 306 304 303 303 304 303 302 302 302 302 303 303 304 306 307 308 307 308 311 310 311 312 311 313 312 315 315 313 315 318 324 333 339 342 342

GFSGBSN_925_thetae_030.txt.gz
Theta_e
311 311 310 310 309 309 309 308 308 307 307 306 304 303 303 302 302 303 303 304 304 306 306 308 311 312 316 318 315 317 320 321 329 329 331 336 343 342 343 346 347 353 346 342 344 342 339
310 309 310 309 309 308 306 306 307 305 304 304 303 303 303 302 302 303 303 304 305 306 311 311 312 313 316 315 314 313 324 327 332 332 332 335 341 339 340 342 346 340 344 342 337 334 335
309 309 308 308 308 307 306 306 305 304 303 302 302 302 302 302 301 302 303 304 305 315 317 317 314 315 318 318 312 314 326 332 335 334 333 334 336 341 334 336 331 338 330 329 330 331 333
308 308 308 308 307 307 305 304 302 302 302 301 302 301 301 301 301 301 302 306 314 314 316 315 315 316 320 315 314 319 325 333 338 335 332 333 332 340 333 328 327 330 330 333 335 332 332
308 308 308 307 307 305 302 302 302 302 302 301 301 301 301 301 301 301 302 310 319 318 318 316 318 319 321 313 312 314 327 329 337 333 333 331 333 333 334 333 329 329 335 337 337 333 335
307 307 307 307 306 304 302 301 301 301 301 301 301 301 301 301 302 302 304 313 318 319 319 320 318 320 318 319 317 313 318 322 336 332 329 329 327 327 331 330 333 332 332 336 338 336 334
307 307 306 306 306 304 303 302 301 301 301 301 301 301 301 301 302 303 306 311 318 322 313 325 327 322 322 319 320 315 314 324 330 332 327 325 325 326 325 327 328 331 332 334 335 334 334
306 306 306 306 306 303 302 301 301 301 302 302 301 300 301 301 302 305 309 311 306 305 310 313 313 317 323 321 324 320 315 324 324 330 326 325 326 325 324 324 326 327 329 331 333 332 332
306 306 305 305 305 304 303 302 302 302 302 302 301 300 301 302 303 307 308 307 307 307 312 316 316 316 317 318 322 322 318 321 323 326 325 325 325 324 324 325 325 326 328 330 331 332 331
306 306 305 304 304 304 303 302 302 301 302 302 301 300 301 303 306 307 307 306 307 307 316 318 316 317 317 319 321 323 316 320 321 324 323 324 324 324 324 324 324 326 325 326 327 330 333
306 306 305 305 304 304 303 303 303 303 303 303 301 300 301 303 306 307 306 306 307 309 316 321 317 315 317 321 324 321 320 318 320 322 323 323 323 324 325 325 325 325 324 325 325 327 330
305 305 305 304 304 304 305 305 304 304 304 303 301 301 302 306 307 306 305 306 309 316 316 321 316 317 317 319 320 322 322 320 320 322 323 324 324 325 326 325 325 324 324 325 326 325 329
305 304 305 304 305 305 304 304 304 304 304 302 301 302 305 305 306 305 305 310 313 314 317 320 319 319 320 320 321 320 323 324 327 326 325 324 324 324 324 326 326 325 327 328 327 327 328
304 305 305 304 304 304 304 305 304 304 303 302 301 304 304 305 304 305 306 311 310 314 317 316 316 318 320 321 320 320 322 325 324 326 327 326 325 324 325 326 327 326 326 326 328 326 326
305 305 305 304 304 303 304 304 303 304 303 302 303 304 305 304 304 306 310 308 310 315 313 313 316 320 322 321 321 321 321 324 325 327 328 328 328 324 325 326 326 328 329 326 326 326 327
305 304 305 304 303 303 304 304 303 302 302 302 305 305 305 304 304 307 309 308 311 310 310 312 316 317 321 321 322 322 322 323 326 326 327 329 330 326 325 325 326 327 327 327 326 329 329
303 303 303 303 303 304 304 303 303 302 302 303 306 307 304 304 305 307 306 307 307 307 309 311 313 315 318 319 320 322 324 320 320 322 325 327 329 330 326 326 326 326 327 327 327 327 328
303 302 303 304 303 304 304 304 303 303 302 305 306 306 304 304 306 306 306 306 305 306 307 309 311 311 315 317 319 322 325 323 318 322 326 327 329 331 328 326 326 327 327 328 328 331 328
301 301 303 304 304 304 304 304 303 303 303 305 307 306 304 304 306 306 305 306 306 307 307 308 311 313 313 316 319 319 321 317 316 321 325 326 327 331 331 329 328 328 327 328 328 329 333
301 302 305 304 304 304 304 303 304 303 303 305 307 307 306 306 305 306 306 306 306 306 306 306 311 311 314 313 314 317 317 315 314 315 317 320 328 330 332 331 329 330 328 328 328 331 330
301 301 303 304 305 305 304 303 303 304 303 305 306 306 305 307 306 306 305 306 306 306 306 306 310 309 311 314 314 314 315 314 315 315 316 319 327 327 330 325 325 329 328 329 330 330 331
300 300 301 302 303 303 304 304 304 304 303 305 306 305 305 306 305 305 305 306 306 305 305 306 306 306 307 311 311 313 312 314 315 315 316 316 324 323 325 323 323 325 326 327 328 330 330
300 301 301 301 302 302 302 303 304 305 304 305 305 305 305 305 306 306 305 305 304 304 305 306 306 306 307 307 308 309 310 310 310 312 314 315 318 321 326 324 323 326 326 326 327 327 328
300 300 301 301 301 301 302 302 303 304 304 305 305 305 306 307 305 306 305 304 304 304 305 305 305 306 306 306 307 308 308 309 309 310 312 315 316 318 322 323 326 325 326 326 326 327 327
300 300 300 300 301 301 301 303 305 304 304 305 304 305 306 307 305 305 305 304 304 304 305 304 305 306 306 307 308 309 309 309 310 309 310 311 315 317 320 322 323 323 322 323 326 328 327
300 300 300 300 300 300 302 305 305 305 305 305 305 303 306 306 306 305 305 305 305 304 306 305 305 305 306 308 309 309 308 308 309 311 310 310 313 315 316 320 323 322 322 322 327 330 329
300 300 300 300 301 301 303 306 307 306 306 306 305 304 303 306 304 305 305 306 304 305 306 304 305 305 306 309 309 308 307 307 308 309 315 311 312 313 314 316 318 320 323 331 329 343 339
300 301 302 302 302 302 305 306 306 307 307 307 306 306 303 304 305 305 305 305 305 304 305 304 305 307 306 309 308 308 308 308 308 308 309 313 312 312 312 314 314 314 316 320 330 333 335
303 302 302 302 302 303 307 306 306 307 307 308 308 306 305 304 305 305 305 305 304 304 304 304 305 305 307 310 310 310 312 312 312 312 310 311 311 313 312 313 314 316 315 319 322 323 327

GFSGBSN_925_thetae_033.txt.gz
Theta_e
310 309 309 309 309 307 307 308 308 305 303 302 302 301 301 301 301 302 302 302 303 305 305 306 311 308 316 322 319 326 317 327 321 326 325 336 340 345 346 344 346 349 348 347 346 344 342
308 309 309 309 308 307 307 307 307 304 302 301 301 301 301 301 301 301 302 302 304 308 313 317 316 313 319 323 321 319 322 325 324 329 325 332 337 341 343 343 345 346 346 346 344 343 341
309 309 308 308 308 306 305 305 304 302 301 301 301 301 301 300 300 301 302 302 307 317 317 316 318 315 322 325 320 316 324 325 327 329 327 329 332 340 341 342 342 345 341 345 345 340 338
308 308 308 308 307 306 305 304 302 301 301 301 301 300 300 300 301 301 302 304 314 320 318 315 316 318 326 323 323 317 324 327 330 330 328 328 330 337 340 339 335 342 342 341 339 338 337
308 308 307 307 307 303 302 301 301 301 301 301 301 300 300 300 301 302 303 306 317 318 316 315 320 322 328 318 319 321 322 330 332 333 333 330 333 336 339 339 335 334 339 340 339 338 338
307 307 307 307 306 302 302 302 301 302 302 302 301 300 300 300 302 304 306 310 315 318 321 322 323 325 324 324 322 319 321 328 335 336 335 334 335 336 340 342 339 335 336 339 341 340 338
307 307 307 307 305 304 303 303 303 302 302 302 302 301 300 301 303 307 310 313 318 326 324 328 328 326 326 324 321 319 324 328 335 335 337 336 337 341 334 340 337 336 335 336 339 339 339
307 307 306 305 304 304 303 302 302 303 303 303 302 301 300 301 306 308 310 313 311 310 313 314 315 316 320 324 326 320 321 326 336 337 331 332 336 331 329 329 334 335 335 336 337 338 339
307 305 305 305 303 303 303 303 303 303 303 303 302 301 300 301 306 309 311 309 309 310 313 314 316 317 318 324 326 327 320 326 333 337 330 328 328 327 326 326 328 330 333 334 335 337 338
306 305 306 304 304 304 304 304 304 304 303 303 302 301 301 303 307 309 310 307 308 310 316 317 319 320 319 321 325 326 320 323 329 334 334 329 328 327 326 326 326 327 328 331 332 334 338
305 305 305 305 304 304 304 305 304 304 303 303 302 301 301 306 309 311 307 307 308 312 318 321 320 319 321 320 325 325 323 320 326 327 330 331 328 327 327 327 326 327 327 327 330 332 334
305 305 305 304 304 304 304 304 304 303 303 302 302 302 303 307 308 307 306 307 311 317 317 322 320 320 321 321 324 326 325 321 324 326 327 328 327 327 327 327 326 326 326 326 327 328 333
306 305 305 305 305 303 304 304 303 302 302 302 302 304 305 306 308 306 307 310 312 313 318 323 321 322 322 323 324 326 327 322 324 325 327 327 327 326 326 327 327 327 327 328 327 328 330
306 305 305 305 304 304 303 303 302 302 302 302 303 306 308 307 306 306 308 310 310 313 318 317 317 318 320 323 324 325 327 329 323 324 326 328 328 327 327 327 328 328 327 328 330 329 328
305 305 304 303 303 304 304 303 303 302 302 303 306 308 308 306 306 306 310 310 310 314 313 313 315 321 321 324 325 325 325 328 327 324 327 331 330 328 328 327 329 329 330 328 329 329 329
303 303 303 303 303 303 305 304 303 303 302 304 308 309 309 305 306 308 311 309 310 309 309 310 313 318 324 325 325 326 326 326 327 327 329 331 333 330 328 328 327 330 328 328 329 332 332
302 302 302 303 304 303 303 304 304 303 303 305 309 310 308 306 307 310 308 308 308 307 308 308 309 312 316 319 321 326 327 325 325 327 328 330 332 333 331 328 329 328 330 329 329 329 331
301 302 302 302 303 304 303 303 303 303 303 306 309 311 308 306 309 308 308 307 305 307 307 308 310 312 313 315 319 323 326 326 319 324 329 330 332 335 331 328 329 329 329 331 331 334 329
301 301 302 302 303 303 303 304 303 303 303 306 311 310 308 307 308 308 307 306 307 307 307 307 308 311 314 316 319 322 323 321 318 323 328 329 332 336 336 331 329 329 329 330 330 331 334
300 301 302 302 302 303 303 304 304 303 302 305 310 310 309 309 308 307 307 307 306 307 307 307 309 309 312 313 314 318 320 319 317 319 319 323 331 334 338 335 331 330 330 329 331 333 332
300 301 301 302 302 302 302 303 304 304 304 306 309 309 308 308 308 307 307 307 307 307 307 306 309 310 310 312 314 317 318 318 318 319 321 324 331 332 332 333 332 331 330 329 330 331 332
300 301 301 301 301 301 301 302 303 304 304 307 309 308 308 309 307 307 307 308 307 307 306 306 307 307 307 310 312 312 315 315 317 318 319 322 326 330 333 332 331 331 332 330 330 330 331
300 300 300 301 301 301 301 302 304 304 305 305 306 306 307 308 308 307 308 307 306 306 306 307 307 306 307 308 309 310 310 312 313 314 316 319 324 330 334 332 331 332 331 332 332 331 331
300 300 300 301 301 301 301 302 304 305 305 305 304 304 308 309 308 308 306 306 307 305 306 306 306 307 308 307 308 309 310 311 312 312 313 317 322 324 328 331 335 331 330 330 330 331 331
300 300 300 300 300 301 302 304 305 305 305 305 304 304 306 310 307 308 307 307 306 306 307 307 307 306 307 308 309 309 310 311 312 312 313 314 318 323 326 330 330 329 328 330 330 331 330
300 300 300 301 302 303 304 306 306 306 306 306 306 304 304 306 309 308 309 309 307 307 308 308 308 307 307 308 309 312 311 311 313 313 312 313 315 318 324 327 332 328 327 325 329 331 330
302 303 303 303 302 302 305 307 307 307 307 307 307 304 304 306 306 307 309 310 308 308 308 307 308 307 308 310 312 313 310 311 312 313 314 313 314 317 319 323 325 325 327 328 330 344 335
303 302 302 302 303 304 307 307 307 307 307 308 309 306 305 305 305 306 307 308 308 308 309 307 308 308 307 311 311 311 310 310 309 311 313 317 315 316 318 320 323 321 321 327 331 333 333
302 302 302 303 304 306 307 306 307 307 307 308 309 308 306 305 306 307 307 307 307 307 307 307 307 308 309 311 313 312 312 311 312 314 311 312 314 316 316 317 319 319 320 320 320 323 324

GFSGBSN_925_thetae_036.txt.gz
Theta_e
310 310 310 309 307 305 303 302 302 301 301 301 301 300 300 300 300 301 301 302 302 303 310 314 311 312 315 322 321 323 319 319 320 318 325 328 336 342 349 348 346 348 352 350 347 346 350
309 309 309 308 305 303 302 302 302 301 301 301 301 300 300 300 300 301 302 302 302 306 317 319 317 315 318 325 325 325 327 327 321 320 325 326 334 338 346 346 345 346 349 349 349 346 342
309 309 309 308 307 304 303 303 302 301 301 301 301 301 300 300 300 302 303 304 304 309 316 317 319 316 319 324 325 321 323 328 324 324 325 325 330 336 342 345 343 343 346 346 346 344 342
308 308 308 308 306 303 302 302 301 301 302 302 302 301 300 300 301 302 306 308 308 311 318 317 321 318 324 327 325 324 318 322 324 325 326 325 328 334 338 342 342 343 345 347 345 345 342
308 308 307 307 305 303 302 302 301 302 303 303 302 302 301 300 301 307 310 311 311 312 320 317 320 321 328 325 326 325 322 325 326 328 328 327 328 330 334 342 344 343 345 348 346 344 340
308 307 307 307 305 303 303 303 303 303 303 303 303 302 301 300 302 308 310 312 312 315 322 321 324 327 326 328 326 325 325 323 328 331 331 330 330 330 333 340 348 343 339 343 344 340 339
307 307 307 306 305 305 304 304 304 303 303 303 303 302 301 301 302 308 308 312 313 324 314 322 328 325 326 328 324 323 324 323 330 333 335 334 334 334 333 337 340 340 336 337 339 339 339
307 306 306 305 304 304 303 304 303 303 303 303 302 302 301 300 302 309 309 312 310 310 312 313 314 316 319 323 327 324 323 324 330 336 336 336 337 334 333 335 338 340 339 335 335 338 340
306 305 305 304 303 302 303 303 303 302 302 302 302 302 301 301 305 311 312 309 308 310 312 312 314 315 315 318 324 327 323 325 330 336 338 338 336 334 335 335 334 340 340 337 335 335 339
305 306 304 303 303 302 303 303 303 302 302 302 302 302 302 302 308 311 311 308 308 309 311 314 317 318 316 317 320 326 323 328 330 335 338 336 334 334 334 335 333 333 335 335 336 336 339
306 304 304 303 303 303 304 304 303 302 302 302 302 302 303 304 308 312 308 307 308 311 316 321 320 321 320 317 322 322 326 324 329 329 337 337 331 331 332 332 328 327 329 332 332 334 335
304 303 304 303 303 304 303 302 302 302 302 302 302 303 304 309 310 310 307 308 309 313 314 321 322 322 322 319 319 323 326 325 326 329 333 337 332 328 328 328 327 327 327 327 328 330 336
303 303 304 304 303 303 303 303 302 302 303 303 303 305 305 307 310 307 307 310 310 311 314 318 317 317 319 323 321 321 326 328 324 328 333 333 335 332 329 328 327 327 327 328 329 330 331
303 303 303 303 303 302 301 302 302 302 303 303 303 308 308 310 308 307 308 310 311 310 312 313 313 314 318 321 323 323 325 329 324 324 328 330 331 331 329 328 328 327 327 328 331 330 328
303 302 302 302 302 303 302 301 301 302 302 303 305 311 312 310 308 307 310 311 311 312 312 310 311 315 319 320 321 324 325 328 327 323 329 330 330 329 329 327 328 328 328 327 327 328 328
302 302 302 302 302 303 303 303 303 302 303 304 307 311 312 310 308 309 311 310 310 310 309 308 309 310 312 313 316 321 327 326 328 324 325 328 330 329 329 328 327 328 329 328 329 333 335
302 302 302 302 303 303 303 303 303 303 304 306 310 313 311 309 309 311 311 308 309 308 307 307 307 308 309 316 316 319 323 326 324 326 328 326 329 330 330 329 329 328 331 329 328 329 332
301 301 301 302 302 303 303 303 303 303 304 306 310 315 311 309 310 310 309 308 307 308 309 308 308 308 311 314 315 320 326 326 324 322 326 329 326 331 333 331 329 329 330 331 331 335 331
301 301 301 302 302 302 302 302 303 302 303 306 312 314 311 308 310 309 309 308 307 308 309 309 308 307 309 310 314 319 319 321 320 321 324 326 331 334 334 334 331 330 329 330 331 330 337
301 301 301 301 302 302 302 302 302 302 301 306 312 313 312 310 309 309 308 307 307 308 309 308 309 308 308 310 311 316 317 319 318 319 328 323 329 334 336 336 335 333 330 330 330 333 333
300 300 301 301 301 302 302 302 303 303 302 307 310 312 310 311 310 310 308 308 309 310 309 309 307 310 311 309 310 313 314 314 317 322 321 325 332 333 332 334 334 330 329 330 332 334 335
300 300 300 301 301 301 302 302 304 304 304 306 310 311 308 311 310 309 309 308 309 307 306 307 308 309 308 307 309 311 312 313 317 317 317 321 328 331 334 334 334 335 331 330 330 330 332
300 300 300 301 301 301 301 302 305 305 305 307 307 305 306 309 310 310 311 310 308 307 307 307 307 307 307 307 308 308 309 309 311 313 316 318 324 329 333 333 334 336 334 331 330 330 331
300 300 300 300 300 301 302 305 306 306 305 307 307 304 305 309 309 310 310 310 310 308 308 307 306 307 308 308 308 308 308 309 310 312 314 317 320 325 330 333 338 335 333 332 333 331 331
299 300 302 303 303 303 304 306 306 306 306 307 307 303 305 308 309 310 309 310 310 310 308 309 309 309 309 308 307 310 310 310 311 312 313 315 317 323 329 332 334 334 333 333 332 333 332
302 304 303 303 303 303 306 307 307 307 307 307 307 306 304 306 308 308 311 309 310 313 309 308 309 309 307 307 308 311 311 311 311 312 313 314 317 320 325 330 333 333 331 330 331 333 333
303 302 302 302 302 305 307 307 307 307 307 307 308 308 304 305 305 307 308 310 309 310 310 309 309 308 308 309 314 315 312 313 314 313 314 315 317 319 322 325 329 327 326 328 333 344 339
302 302 302 302 305 307 306 306 307 307 307 307 309 308 305 306 305 306 307 308 309 310 311 310 309 311 312 313 312 316 316 315 314 313 315 316 317 318 319 323 327 325 325 331 336 331 330
301 302 303 306 307 306 306 307 307 307 308 308 309 309 308 305 307 306 306 307 308 308 310 309 309 309 310 313 314 312 313 312 314 314 313 314 315 318 318 320 326 323 322 321 321 322 326

GFSGBSN_925_thetae_039.txt.gz
Theta_e
309 309 309 309 304 301 301 301 301 301 302 302 302 301 301 300 300 300 302 303 305 306 306 316 319 315 314 319 319 321 322 320 320 318 319 320 324 332 337 346 347 348 352 350 348 345 346
309 309 309 308 304 302 302 301 301 302 302 302 302 302 301 301 300 301 304 307 308 308 308 316 321 317 316 320 322 323 328 322 323 319 319 320 326 330 338 345 347 345 347 350 348 347 347
308 308 308 308 303 303 302 302 303 303 302 302 302 302 302 301 301 302 307 308 309 309 310 317 321 317 318 315 323 325 327 323 322 319 318 321 325 327 335 339 344 345 347 351 350 347 347
308 308 308 306 304 303 303 303 303 303 303 303 302 302 302 301 301 303 308 310 310 311 311 319 320 319 320 319 323 322 324 327 321 321 319 321 325 324 327 335 341 344 344 347 348 346 345
308 307 306 305 304 303 303 303 303 303 302 302 302 302 302 301 301 303 308 310 312 312 313 318 321 321 323 325 325 325 324 324 325 324 323 323 323 323 325 334 339 341 346 343 345 344 344
307 306 307 305 303 302 303 303 303 302 302 302 302 302 302 301 301 303 307 310 311 320 322 321 322 323 323 323 326 327 324 324 323 324 325 325 325 324 325 330 338 343 342 341 343 345 343
305 305 304 303 302 302 302 302 302 302 302 302 302 302 302 302 302 307 307 309 308 316 311 308 310 315 313 324 322 327 326 325 322 324 328 328 327 327 326 328 332 340 343 339 338 341 341
305 304 303 303 302 302 302 302 302 302 302 302 302 302 303 302 303 308 311 308 307 308 307 309 310 311 312 314 317 321 326 325 320 326 328 330 331 328 327 328 329 336 341 340 335 336 337
304 303 304 303 302 302 303 303 303 302 302 303 303 303 303 303 305 310 310 308 308 308 307 309 309 311 311 312 314 317 321 324 321 326 330 332 333 332 332 329 329 333 337 339 338 334 334
304 303 303 302 302 302 303 303 302 301 302 303 303 303 303 304 308 308 312 309 307 308 308 312 313 314 314 313 315 318 320 323 324 325 331 333 334 334 334 332 330 334 334 337 339 338 335
302 302 302 302 302 302 302 301 302 303 304 304 305 305 305 305 307 310 310 308 308 309 314 319 316 316 314 313 315 317 319 322 324 325 330 335 336 335 334 334 332 334 331 335 338 337 332
301 301 302 302 303 302 302 303 304 304 304 304 305 306 306 307 308 310 309 308 308 310 314 313 313 312 311 313 317 318 319 321 322 324 328 331 335 334 334 333 333 333 331 327 333 332 332
301 301 302 302 303 303 304 304 303 303 303 303 304 306 307 307 309 309 308 308 309 309 312 312 310 310 310 314 318 318 319 318 323 323 329 329 332 334 330 332 331 331 325 324 325 330 329
301 302 302 303 303 303 303 303 302 302 301 302 303 309 310 311 310 310 308 308 311 311 311 310 309 308 310 311 312 314 315 320 323 322 325 329 331 333 332 328 327 328 325 322 325 325 325
301 302 302 302 303 303 303 302 301 301 300 301 303 309 311 313 312 310 308 310 311 310 309 308 307 307 308 309 311 312 314 322 325 326 322 326 328 332 334 330 327 325 325 322 323 325 325
301 301 302 302 302 302 302 302 302 301 300 301 306 310 313 311 310 309 309 311 310 308 307 307 308 306 306 310 311 312 315 319 324 322 322 322 322 328 331 332 329 326 324 324 323 324 325
301 301 301 302 302 302 302 302 302 301 300 302 308 313 312 312 309 309 310 310 309 308 308 308 309 309 307 311 311 311 314 315 320 320 319 321 322 322 326 329 330 325 325 324 322 322 325
301 301 301 301 302 302 302 301 302 301 302 303 308 313 312 311 309 310 308 308 307 306 308 308 309 308 307 307 311 310 313 317 317 317 316 320 323 323 322 325 328 327 324 324 325 324 325
301 301 301 301 301 301 301 301 302 302 302 305 309 312 311 310 309 309 309 308 307 307 309 309 307 307 307 309 312 314 315 314 314 314 317 320 322 329 325 324 324 327 325 324 324 325 327
300 300 301 301 301 301 302 302 302 303 302 305 310 310 311 310 309 309 310 309 307 308 309 309 309 308 308 309 311 314 313 314 312 313 319 319 322 324 329 326 327 329 327 325 325 327 327
300 300 300 301 301 301 302 302 302 304 303 306 308 309 309 310 311 309 310 309 310 309 309 307 308 308 310 309 309 311 311 311 311 315 314 312 319 325 329 330 330 332 327 327 326 326 328
300 300 300 300 300 300 301 303 305 305 304 307 308 309 306 306 308 310 310 310 310 309 309 307 307 307 307 309 309 309 309 309 311 311 311 310 318 324 331 331 333 334 333 328 327 327 327
299 299 299 300 302 304 304 306 306 306 306 307 307 307 306 307 307 309 310 311 311 310 311 310 307 306 306 307 308 308 307 307 307 310 310 310 315 321 331 332 333 336 334 332 328 328 327
299 300 302 304 304 304 306 306 307 306 306 307 307 305 305 308 308 308 308 309 311 310 311 310 310 310 309 308 307 307 306 307 307 308 309 310 313 319 328 330 337 332 332 333 330 330 327
302 304 303 303 304 305 307 307 307 306 306 307 307 305 304 307 307 308 309 309 311 309 309 310 309 309 308 308 308 308 307 309 310 309 309 311 312 318 328 333 333 334 331 331 333 341 337
304 303 302 302 305 307 307 306 307 307 307 307 308 308 304 305 307 307 309 308 309 310 311 309 309 308 307 307 309 311 310 311 313 311 310 312 313 319 323 333 338 330 326 325 330 342 332
302 302 302 304 306 306 306 306 307 307 307 308 308 308 305 305 304 306 308 309 309 310 310 310 309 309 308 311 314 314 314 315 316 315 313 314 315 317 320 325 330 323 323 331 340 339 327
301 302 304 305 305 306 306 306 307 307 308 308 309 309 306 305 305 306 307 308 308 308 311 310 310 310 311 313 315 315 317 316 314 314 317 316 319 319 319 323 331 318 322 325 331 326 324
302 305 305 305 306 306 306 306 307 307 308 308 309 309 308 305 306 305 306 306 307 307 309 309 309 309 309 311 312 310 311 313 313 317 314 318 315 318 318 319 317 316 317 318 318 319 320

GFSGBSN_925_thetae_042.txt.gz
Theta_e
309 308 307 304 303 303 303 303 303 302 302 302 302 302 301 301 301 301 301 304 306 307 308 308 314 318 314 317 316 322 321 322 317 317 320 318 318 324 331 336 341 348 349 350 348 346 346
308 308 307 304 304 303 302 302 302 302 301 301 301 301 301 301 301 301 303 305 307 308 311 309 317 316 316 316 316 321 320 323 318 323 320 318 319 320 330 332 341 345 346 349 346 343 345
308 308 308 304 302 302 302 302 302 301 301 302 302 302 302 301 302 302 305 308 309 309 311 310 319 317 317 314 317 322 326 322 319 319 318 318 319 324 326 335 334 338 347 349 345 344 346
306 305 303 302 301 301 301 302 301 301 302 302 302 302 302 302 302 302 306 310 310 311 311 314 321 318 318 314 316 319 324 325 326 318 318 318 318 321 323 324 326 339 342 352 349 347 348
306 305 303 302 302 301 302 302 302 302 302 302 302 302 302 303 302 303 308 311 309 315 322 318 320 319 321 319 323 324 321 325 322 319 318 318 318 320 322 323 324 332 339 344 350 349 348
307 304 302 302 302 302 302 302 301 301 302 302 303 303 304 303 303 304 310 310 307 317 321 320 322 321 318 320 316 317 324 325 320 319 319 318 318 319 321 321 328 334 341 340 342 341 347
304 302 302 302 302 301 301 301 301 302 303 304 304 305 305 305 303 306 310 309 304 303 307 305 305 320 312 311 311 317 322 323 323 321 322 321 322 323 322 321 325 332 337 340 339 338 341
302 302 302 302 301 301 302 303 304 303 303 303 303 304 304 306 304 308 309 305 306 306 302 306 307 306 307 308 309 311 318 322 322 324 322 325 325 324 325 323 325 328 329 338 339 339 336
301 302 302 302 302 303 303 303 303 302 302 302 302 302 304 307 305 307 309 309 309 307 302 306 308 308 307 308 309 310 314 321 323 322 323 326 328 327 327 326 326 326 327 330 339 338 334
302 302 302 302 303 303 303 303 302 301 301 301 301 302 304 306 306 308 309 308 308 307 304 309 311 312 310 310 311 314 313 317 323 321 321 324 327 328 329 328 326 326 326 328 333 337 339
302 302 302 303 303 303 303 302 301 301 301 301 301 302 306 306 308 308 308 309 308 306 307 314 310 311 308 309 312 312 313 316 320 322 320 325 327 330 329 329 328 327 326 328 332 333 335
301 302 302 303 303 303 302 302 301 301 301 301 302 302 309 308 307 308 308 309 306 306 311 311 308 307 308 308 310 312 312 314 319 320 322 322 327 329 331 331 331 329 329 330 330 329 335
301 302 302 302 303 303 302 302 301 301 301 301 302 303 310 308 307 309 311 303 305 306 309 309 306 306 306 307 309 310 312 312 317 320 322 323 324 328 332 333 331 331 329 332 333 330 331
301 301 302 302 302 302 302 302 301 301 301 301 301 307 311 311 311 312 310 303 309 308 306 306 305 305 305 308 310 309 311 312 317 318 321 322 323 325 329 333 334 331 327 328 335 327 330
301 301 301 302 302 302 302 302 301 301 301 300 301 309 312 311 312 312 302 306 307 306 306 306 306 306 306 309 311 309 310 314 316 317 319 321 322 326 328 331 331 331 331 322 319 319 320
301 301 301 301 301 301 301 302 302 301 301 300 304 308 310 311 311 308 303 308 308 307 307 306 307 307 306 308 310 310 310 313 316 315 314 317 322 322 327 327 330 325 323 325 317 323 323
301 301 301 301 301 301 301 301 302 301 300 300 305 305 311 311 309 301 304 306 307 306 307 307 308 308 305 304 305 310 309 310 313 314 313 314 316 322 320 324 330 328 325 322 321 317 321
300 300 301 301 301 301 301 302 302 301 302 302 304 307 310 309 303 301 305 306 306 305 307 307 306 306 305 306 308 309 311 313 314 313 314 314 320 323 323 321 321 332 323 320 323 320 318
300 300 301 301 301 301 301 301 302 301 304 305 303 304 309 308 305 305 306 309 308 308 308 308 307 307 307 307 309 313 313 311 312 313 315 315 322 322 323 320 320 320 327 320 317 317 320
300 300 300 301 301 301 301 302 304 303 304 304 303 305 303 303 304 307 308 309 309 309 308 308 308 307 307 307 309 310 312 312 311 311 312 313 311 317 324 321 321 322 323 325 320 322 322
300 299 299 299 300 302 305 306 305 305 305 305 301 303 305 304 305 306 307 309 310 310 309 307 306 307 308 308 308 309 309 308 308 309 311 311 311 311 311 314 318 324 326 325 322 324 324
299 299 300 301 304 305 306 306 306 306 305 306 304 304 302 306 304 306 307 309 312 311 310 310 311 310 306 306 307 309 309 308 309 308 309 309 312 310 313 322 326 329 331 331 323 323 324
300 301 302 304 304 305 306 306 306 306 306 306 305 305 305 308 307 308 308 308 309 309 311 310 310 309 307 307 306 306 306 307 307 310 311 310 310 310 317 323 330 332 328 332 326 323 324
302 303 304 303 305 307 307 306 306 306 306 306 306 306 306 308 308 309 308 308 310 310 311 309 309 310 309 308 305 305 305 306 306 306 309 310 309 309 316 322 334 328 324 325 331 330 329
304 303 302 303 306 306 306 306 306 306 307 307 307 306 305 306 307 308 309 310 308 308 308 309 309 309 306 306 306 306 306 306 307 308 308 309 312 310 318 329 330 326 323 322 324 328 325
303 302 302 305 306 306 306 306 306 307 307 307 307 308 304 306 307 307 309 308 308 309 309 308 307 306 306 307 307 309 310 313 317 313 309 309 312 311 314 327 335 322 321 324 327 326 321
301 303 305 305 305 306 306 306 306 307 307 307 308 308 304 305 304 306 309 307 307 308 309 309 308 307 306 310 313 314 316 316 320 319 313 314 315 316 317 325 327 320 319 325 330 328 322
303 305 305 305 305 306 306 306 306 307 307 308 308 308 307 305 305 306 307 309 308 308 309 309 308 305 307 307 311 312 313 315 315 316 317 317 320 320 319 326 327 318 319 321 318 318 318
306 305 306 306 306 306 306 307 308 308 308 308 308 309 308 305 307 306 307 307 306 307 308 309 309 309 308 305 305 308 312 313 313 317 312 316 315 316 316 320 316 316 321 317 315 316 316

GFSGBSN_925_thetae_045.txt.gz
Theta_e
309 308 305 302 301 301 301 301 301 301 302 302 302 302 302 302 302 302 302 305 308 309 309 310 309 316 313 315 312 317 322 321 314 331 325 324 327 327 333 335 340 353 353 351 355 354 347
307 305 304 302 301 301 301 301 301 301 302 303 303 303 303 303 303 302 304 308 310 309 312 313 313 315 316 311 313 320 320 321 320 320 321 316 320 323 327 329 342 341 343 345 346 348 341
307 306 304 302 302 302 302 301 301 301 303 304 304 305 305 305 304 303 305 311 309 307 320 310 317 316 316 312 315 314 327 319 317 317 317 317 317 322 321 331 330 334 341 340 343 345 346
306 304 302 302 302 301 301 301 303 304 304 303 303 304 304 306 306 303 306 311 309 310 318 315 319 317 317 313 318 321 326 323 326 318 317 317 317 320 322 323 323 334 334 341 342 348 344
304 303 302 302 301 301 302 303 303 302 301 301 301 302 303 306 307 304 309 308 308 314 318 320 320 317 319 318 320 311 315 321 324 323 318 318 317 317 322 323 321 325 336 344 343 345 347
302 302 302 302 302 303 304 302 302 301 301 301 301 301 302 305 307 305 309 308 307 318 318 318 321 315 314 311 309 308 315 321 318 318 317 316 315 315 317 319 330 326 336 337 339 342 348
302 302 302 302 303 304 303 302 302 301 301 301 301 302 302 306 307 307 308 307 301 302 304 304 304 311 308 308 308 310 311 321 318 316 317 316 316 318 318 321 323 329 336 339 338 338 344
302 302 302 303 303 303 302 302 301 301 301 301 301 301 301 308 306 307 309 304 306 307 301 304 305 305 306 306 307 309 311 321 322 320 319 319 318 317 318 320 322 322 325 330 332 335 336
302 302 302 303 303 303 302 302 301 301 301 301 301 301 301 308 306 308 308 308 308 307 301 303 306 307 307 307 308 309 310 316 321 324 321 322 323 321 323 322 322 322 323 326 330 334 335
301 302 302 303 303 303 302 302 302 301 302 301 301 301 303 309 306 306 307 308 309 305 302 307 308 308 307 307 310 311 312 312 318 323 323 322 323 324 323 325 323 321 323 326 328 333 337
301 302 302 302 302 302 302 302 302 302 301 301 301 301 306 308 307 306 308 309 309 304 306 310 306 308 306 305 307 311 311 313 315 317 319 322 323 324 325 325 324 325 323 325 326 328 332
301 301 301 302 302 302 302 302 302 302 301 301 301 301 309 309 307 308 308 311 305 305 309 308 306 305 305 306 308 309 311 315 315 318 317 319 320 323 324 326 326 325 325 325 326 326 331
301 301 301 301 301 301 301 301 301 301 301 300 301 304 311 309 306 309 311 302 304 305 306 306 305 304 304 308 308 309 313 316 317 321 320 319 321 320 325 326 326 327 323 326 329 329 333
301 301 301 301 301 301 301 301 301 301 301 300 300 306 311 311 310 309 308 303 307 308 305 305 305 305 305 309 309 308 308 314 315 316 319 320 322 322 323 328 328 327 328 327 331 333 333
301 301 301 301 300 300 301 301 301 300 300 299 301 307 311 310 309 309 301 305 307 306 306 305 305 306 306 308 309 308 309 314 315 314 316 320 321 316 318 324 329 329 330 326 323 316 322
300 300 300 300 300 300 301 302 301 300 299 300 303 305 309 309 308 306 302 306 307 306 306 306 307 307 307 304 305 309 308 312 315 313 313 315 319 317 320 321 326 331 325 329 319 330 323
300 300 300 300 300 300 301 302 300 301 301 301 305 304 309 308 306 299 303 303 305 306 307 307 307 307 306 305 306 309 308 312 313 313 313 314 316 320 320 321 323 325 330 326 327 321 332
301 300 300 301 300 299 300 302 302 304 303 303 302 304 308 307 304 299 304 306 307 306 306 307 305 305 305 306 308 308 312 312 312 311 315 314 318 324 322 321 319 320 326 318 332 327 317
300 300 300 299 299 300 303 305 305 305 305 305 302 301 307 306 305 304 304 308 308 308 307 307 306 306 306 306 308 311 312 311 312 312 313 314 319 315 322 318 318 318 320 321 321 315 318
299 299 299 300 301 304 306 306 306 305 305 305 302 304 301 299 301 305 306 308 310 309 309 308 307 306 306 306 306 308 311 312 309 309 315 312 315 314 319 316 314 314 315 315 317 319 320
300 300 300 301 304 306 306 306 306 306 305 305 298 302 302 303 303 304 305 307 310 312 310 307 307 310 309 306 306 307 308 307 309 312 311 311 312 312 311 312 312 312 313 314 320 321 322
302 302 303 304 305 307 307 306 306 306 305 305 303 303 300 303 304 307 306 308 309 309 309 311 311 311 308 305 304 304 306 306 307 308 310 310 311 311 313 312 312 314 315 319 321 325 319
303 304 304 303 306 307 307 306 306 306 305 304 303 304 305 308 308 308 309 310 310 309 310 311 310 310 310 309 306 303 303 302 305 308 309 310 311 312 312 313 315 324 323 325 328 324 325
304 304 303 304 307 306 306 306 306 306 306 306 306 306 307 309 309 309 308 309 310 310 309 309 309 310 309 308 306 304 301 303 305 306 307 310 312 314 311 313 332 323 321 321 322 320 321
303 302 302 306 306 306 306 306 306 307 307 307 307 307 306 307 307 309 309 310 309 308 309 309 308 307 306 304 305 305 304 304 305 307 308 308 311 315 313 318 327 324 321 322 322 320 318
301 302 305 306 306 306 306 306 306 307 307 308 307 307 304 306 308 307 309 309 309 308 310 308 306 305 305 307 306 307 308 312 315 309 307 309 310 313 316 322 334 323 318 319 323 322 319
303 305 305 305 305 306 306 306 306 306 307 307 308 308 305 306 305 305 309 309 306 306 308 308 309 306 305 309 311 312 311 310 319 316 313 313 313 313 318 321 325 320 317 320 326 323 317
306 305 306 306 305 306 306 306 307 307 308 308 308 308 307 306 306 305 306 308 309 308 307 309 307 306 307 308 309 308 312 312 314 313 315 316 318 319 320 326 331 315 320 322 316 315 314
305 306 306 306 306 306 306 307 308 308 309 308 308 309 308 306 307 307 307 308 307 307 308 309 308 308 306 306 307 309 312 311 312 314 312 317 313 315 315 319 315 313 318 314 312 312 312

GFSGBSN_925_thetae_048.txt.gz
Theta_e
308 309 308 304 302 301 301 302 303 304 303 302 302 303 304 305 306 305 303 306 310 308 308 314 311 315 313 312 310 318 320 321 321 337 332 330 339 330 343 343 341 354 355 351 353 354 353
309 309 306 302 301 301 303 303 302 302 302 301 302 302 304 304 307 305 304 307 309 309 314 314 311 315 315 308 313 315 322 322 330 331 330 324 334 326 330 335 343 342 348 348 346 345 347
308 307 306 303 302 303 303 302 301 301 301 301 301 302 303 305 307 306 306 309 308 308 317 313 315 315 315 312 314 318 325 323 325 330 322 321 323 329 323 330 329 335 335 334 337 343 345
306 305 304 303 303 303 302 301 301 301 301 301 301 302 302 304 308 305 309 308 308 310 317 316 318 317 316 315 317 313 324 323 320 323 318 320 319 320 321 323 322 330 332 339 340 341 343
302 302 302 303 304 302 302 301 302 302 302 301 301 301 302 303 307 305 308 307 307 319 317 319 319 317 315 313 313 309 309 321 324 319 318 317 316 317 321 323 323 322 339 340 343 341 346
302 302 303 303 303 303 302 302 302 302 302 302 301 301 302 305 306 307 307 307 309 319 318 318 319 313 311 309 308 308 315 320 322 320 320 316 312 313 314 320 329 328 330 336 341 339 346
302 302 303 303 303 303 302 302 302 302 302 302 301 301 301 304 306 307 307 306 301 302 303 304 303 305 307 307 308 309 310 320 316 316 318 314 314 316 316 322 324 327 333 337 337 335 347
301 302 302 303 303 303 302 302 302 302 302 301 301 300 300 304 306 307 308 303 305 306 303 302 303 303 305 306 307 310 310 321 318 318 315 316 315 315 315 317 321 323 323 329 330 335 339
301 301 302 302 302 302 302 302 302 302 301 301 300 300 301 307 306 307 307 306 307 307 301 303 305 306 306 306 308 308 310 311 320 319 318 317 317 316 316 318 319 321 322 323 331 329 334
301 301 301 301 302 301 301 301 301 301 301 301 300 300 304 309 306 306 306 307 309 305 301 307 306 307 306 305 308 309 309 311 314 322 320 319 319 319 317 318 319 318 321 324 324 329 332
301 301 301 301 301 301 301 301 301 301 301 300 300 301 309 310 307 306 307 310 306 302 304 307 305 307 303 304 306 308 312 313 313 314 319 324 321 322 320 318 319 319 321 321 323 326 328
301 301 301 301 301 300 300 301 301 301 300 300 300 301 310 309 308 308 309 309 303 303 306 306 305 305 306 306 307 307 314 313 315 318 316 315 318 321 322 321 321 322 323 322 323 322 327
301 301 301 301 300 300 300 300 301 300 300 299 300 302 311 309 307 308 310 301 302 303 305 305 305 304 305 307 307 307 313 315 314 319 319 319 317 318 320 321 322 322 322 324 325 326 331
301 301 300 300 300 300 300 301 300 300 299 300 300 303 310 308 307 308 305 302 306 307 305 305 305 304 305 305 307 306 311 315 313 313 316 320 321 319 319 321 324 324 321 323 327 328 332
301 301 301 300 300 300 301 300 300 301 301 301 301 305 309 307 308 309 301 304 307 306 305 306 304 305 305 305 307 306 310 316 314 312 315 317 319 316 317 318 322 324 325 321 323 318 324
301 301 301 300 300 300 300 301 303 304 303 302 302 304 308 307 308 305 301 306 305 305 305 305 305 306 306 303 305 306 307 313 314 311 312 314 317 316 318 319 320 323 323 326 321 331 325
301 301 300 299 299 299 302 304 305 305 304 302 304 303 306 307 304 299 302 302 305 305 306 306 305 305 305 305 306 307 308 312 312 312 310 313 314 318 318 321 321 321 328 327 325 323 329
301 300 300 299 300 302 305 306 306 305 305 304 300 302 306 306 303 298 303 304 306 306 305 306 305 304 304 304 306 307 309 312 311 310 313 313 315 320 320 319 316 318 320 322 333 329 319
302 300 300 301 302 304 307 307 306 305 305 305 301 300 306 305 303 302 303 306 307 307 307 306 306 305 305 304 306 309 311 311 311 311 312 313 318 313 318 315 313 315 314 312 312 320 332
302 302 302 303 305 307 307 307 306 306 305 305 300 303 300 298 299 304 305 307 309 308 308 307 307 305 305 305 304 306 310 311 310 310 314 311 310 311 315 315 313 314 314 313 312 317 325
303 303 304 305 308 308 307 306 306 305 305 305 297 301 300 302 302 305 307 306 308 310 309 309 308 309 308 308 305 306 306 308 309 312 310 308 310 311 311 312 312 313 314 314 314 315 319
303 304 305 308 307 306 306 306 305 305 305 303 302 302 300 302 305 307 307 306 309 309 309 309 310 310 310 308 305 304 305 304 308 307 308 306 309 311 312 312 313 314 314 315 315 316 317
304 305 307 307 307 306 306 306 306 306 306 303 302 303 305 308 308 309 309 310 310 309 308 309 311 310 308 309 309 308 301 301 303 306 305 307 308 313 312 310 312 318 317 321 321 319 323
303 305 307 306 306 306 306 306 306 306 306 306 306 306 308 309 309 310 309 309 310 310 311 308 308 310 309 305 304 305 304 304 304 303 303 306 308 313 310 312 323 322 321 321 319 319 319
303 306 307 305 306 306 306 306 306 307 307 307 307 307 307 308 308 309 310 310 309 308 309 310 309 308 303 306 306 304 303 303 304 304 304 305 310 312 314 315 317 324 320 320 322 319 318
305 307 305 306 305 306 306 306 306 306 307 307 308 308 305 307 310 308 309 309 309 308 309 309 305 304 305 307 309 310 308 302 309 306 304 306 310 311 317 319 333 323 317 316 320 321 316
307 306 306 305 306 306 306 307 307 307 307 307 308 308 305 307 306 306 309 310 307 305 306 307 308 305 303 307 310 311 311 310 313 310 310 312 312 311 312 318 321 316 313 318 328 321 315
306 307 306 306 306 306 306 307 308 308 308 307 308 308 307 306 306 306 306 309 309 307 307 308 307 303 306 309 310 309 310 311 312 312 311 312 313 313 314 321 329 312 317 320 315 312 312
307 307 306 306 306 306 306 307 308 308 308 308 308 308 308 307 307 307 307 307 307 308 309 307 308 308 308 309 308 308 311 309 311 314 310 317 312 314 315 316 312 311 313 311 312 312 312

GFSGBSN_925_thetae_051.txt.gz
Theta_e
309 308 305 303 303 302 301 301 301 301 301 301 302 302 302 304 308 308 304 306 308 308 308 316 311 313 313 314 312 316 324 323 329 331 330 328 338 338 337 343 350 356 357 354 353 352 352
304 303 303 304 303 302 301 301 302 302 302 301 301 302 301 303 308 307 305 308 308 308 314 313 312 314 315 311 311 316 325 327 331 329 330 331 335 335 337 347 347 347 350 353 350 349 349
302 303 303 304 303 302 302 302 302 302 302 301 301 301 301 302 307 305 307 308 307 307 317 313 315 315 315 313 316 319 325 326 331 329 330 331 332 333 329 334 337 341 347 343 342 344 347
302 303 304 304 303 303 302 302 302 302 302 301 301 301 301 302 307 307 307 306 307 314 314 317 318 317 317 316 315 315 320 324 327 324 323 322 325 331 325 325 325 332 334 346 345 344 345
302 303 303 303 303 303 302 302 302 302 302 301 301 301 301 302 306 307 307 307 309 316 315 318 319 318 312 310 309 309 311 322 322 328 319 320 320 326 326 328 329 331 333 341 348 344 347
302 302 303 303 303 302 302 302 302 301 301 301 301 301 301 305 306 307 307 308 310 314 315 318 318 315 311 309 308 308 313 323 322 323 320 318 323 322 323 327 325 329 330 341 351 346 346
302 302 302 302 302 302 301 301 301 301 301 301 300 300 301 308 306 307 307 305 308 309 307 307 307 308 309 307 309 311 311 321 321 318 318 318 319 323 321 323 326 331 333 337 344 344 347
301 301 301 301 301 301 301 301 301 301 301 300 299 300 301 310 306 307 308 309 308 307 309 305 304 305 305 305 310 310 313 323 324 321 318 317 318 318 319 319 323 325 331 336 338 338 342
301 301 301 301 301 300 300 301 301 301 301 300 299 300 305 310 306 307 306 307 308 305 307 307 307 308 307 307 310 309 312 314 323 324 319 318 319 318 317 318 319 322 326 331 334 331 336
301 301 301 301 301 301 300 300 300 300 300 299 299 300 308 309 306 306 306 307 309 306 308 310 308 308 308 307 309 309 314 313 314 325 322 323 322 318 318 318 318 320 321 327 330 330 344
301 301 301 301 301 300 300 300 300 300 299 300 300 300 307 309 307 307 307 308 305 303 308 308 308 307 308 309 309 309 313 317 316 317 322 326 323 322 321 320 319 319 319 320 325 331 332
301 301 301 300 300 300 300 300 299 299 301 302 302 301 307 309 308 307 307 306 304 309 308 307 307 306 308 309 309 309 314 315 316 320 320 320 323 324 324 321 319 319 322 321 321 325 336
302 301 301 300 300 300 300 299 300 303 304 304 302 302 309 308 308 307 307 305 309 308 307 307 307 307 308 307 308 310 315 316 318 319 322 321 320 320 324 324 323 321 321 327 327 325 329
302 302 301 300 300 299 299 301 304 305 305 305 303 303 309 307 306 308 304 309 308 308 308 306 306 306 308 307 308 308 312 316 314 315 321 323 319 320 321 324 325 325 324 323 329 325 322
303 302 301 300 299 300 301 304 305 305 305 305 304 306 308 306 306 307 309 310 310 308 307 307 306 307 307 306 307 307 311 315 315 312 317 321 322 318 319 321 323 325 327 324 323 326 327
303 301 300 300 300 301 304 307 306 306 305 305 303 304 307 306 305 304 310 308 307 307 307 307 307 307 307 306 307 307 308 315 315 311 313 316 320 319 319 320 321 324 325 328 327 327 329
305 302 300 300 301 304 307 307 306 306 305 305 303 309 306 306 305 307 311 307 307 307 308 307 307 307 307 307 307 308 307 313 312 310 313 314 314 317 318 323 324 324 326 328 328 328 327
304 303 302 303 304 307 307 306 306 305 305 305 303 309 306 306 310 306 309 308 307 308 307 307 307 307 307 306 306 308 308 310 311 310 310 314 316 317 317 320 320 320 324 326 332 333 331
303 303 303 305 307 308 307 306 306 305 305 305 305 305 305 306 311 310 308 308 308 309 309 309 308 306 306 307 307 309 311 311 311 310 310 313 315 314 311 318 317 321 319 320 323 326 333
303 303 305 308 308 307 306 306 306 305 305 305 306 309 307 305 304 307 306 309 309 308 310 310 309 307 307 307 308 308 310 311 311 310 313 312 312 310 313 314 314 317 316 317 320 331 332
304 305 307 308 307 306 306 306 306 305 305 304 305 307 304 309 308 308 307 307 309 309 310 309 310 310 310 309 308 308 308 310 311 311 313 311 310 309 308 309 311 312 313 314 318 323 329
304 306 307 306 306 306 306 306 306 306 305 304 308 308 305 307 306 308 308 308 309 310 308 309 310 311 312 313 309 308 307 308 310 312 312 311 309 309 309 308 312 314 314 314 316 319 320
303 306 306 306 306 306 306 306 306 306 305 304 303 304 307 308 309 309 310 310 310 309 309 308 310 309 310 308 309 309 309 309 307 309 312 311 311 309 307 311 314 317 316 316 319 322 323
304 307 306 306 306 306 306 306 306 306 306 306 306 306 309 311 308 311 310 310 311 311 311 309 309 310 309 308 308 308 309 309 308 309 308 311 310 310 309 309 320 320 322 319 323 323 322
307 307 306 306 306 306 306 306 306 306 307 307 307 307 308 310 309 310 310 310 310 309 308 309 308 308 307 308 310 310 308 309 310 309 309 309 311 310 311 319 320 324 321 322 325 324 320
307 307 306 306 306 306 306 307 307 307 307 307 307 307 306 309 310 309 310 309 310 308 307 307 307 307 307 309 311 310 311 308 309 309 308 309 310 312 311 319 330 323 318 317 320 328 316
307 307 306 306 306 306 307 307 307 307 307 307 307 308 306 308 309 308 310 310 308 307 307 306 307 308 306 311 311 312 313 310 312 311 308 310 311 312 312 314 318 313 314 318 330 324 315
307 307 306 306 306 306 307 307 308 308 308 307 308 308 308 308 309 307 307 308 309 307 308 307 309 307 309 310 311 311 311 312 312 310 309 310 312 313 312 314 319 311 314 323 318 316 315
308 307 307 307 306 307 307 308 308 308 308 308 308 307 307 307 309 307 307 307 307 307 309 307 308 309 308 308 309 309 311 310 314 314 309 312 313 317 317 317 312 313 313 313 316 318 317

GFSGBSN_925_thetae_054.txt.gz
Theta_e
303 304 304 303 302 302 302 302 302 302 302 302 301 301 301 302 306 305 305 307 308 307 309 314 312 311 318 319 314 317 327 329 321 332 332 333 335 334 334 338 342 350 352 353 353 351 352
303 304 304 304 303 303 302 302 302 302 302 301 301 301 301 302 305 306 306 307 306 307 313 314 311 312 319 316 316 320 327 326 322 329 333 329 330 330 332 335 337 342 345 355 352 352 352
303 303 304 304 303 303 302 302 302 301 301 301 301 301 301 302 305 306 307 306 306 308 314 314 316 318 319 318 316 322 327 326 327 325 329 326 330 331 327 332 335 338 347 347 349 349 349
302 303 303 303 303 302 302 301 301 301 301 301 301 300 301 303 306 306 307 307 308 314 310 317 318 321 319 315 315 319 324 326 331 327 327 329 326 330 326 328 326 330 339 351 351 345 346
302 302 302 302 302 301 301 301 301 301 301 301 300 300 301 306 307 306 307 309 313 310 314 318 322 320 315 312 312 312 314 325 331 323 326 328 326 330 330 325 324 326 333 342 349 347 348
301 301 301 301 301 301 301 301 301 301 301 301 300 300 301 309 307 307 307 308 307 319 319 320 318 318 313 313 313 312 317 324 326 325 321 322 325 326 327 325 326 329 329 335 343 351 351
301 301 301 301 301 301 301 301 300 300 300 300 300 300 302 310 307 308 311 310 318 314 312 312 312 312 312 312 312 315 323 324 324 327 322 321 325 324 323 324 325 329 332 333 346 349 351
301 301 301 301 301 301 300 300 300 300 300 300 300 301 302 309 307 308 310 313 311 311 313 310 310 311 310 310 314 314 320 326 324 328 323 321 321 324 323 323 324 326 333 336 339 345 349
300 301 301 301 301 300 300 300 300 299 300 302 303 301 302 308 307 310 310 310 310 310 313 311 311 311 311 312 313 313 318 322 326 324 323 323 323 321 321 323 323 324 326 332 337 339 342
301 301 301 301 301 300 301 300 299 301 304 305 305 302 302 308 309 310 311 310 310 310 314 313 312 311 312 312 313 312 316 318 322 327 325 323 323 321 321 322 322 323 321 323 331 336 347
303 302 302 301 301 300 300 299 301 304 305 306 306 304 302 309 312 313 311 310 308 309 312 311 311 310 312 313 312 312 315 319 319 321 327 326 325 324 323 323 322 323 322 321 323 333 339
304 302 302 301 301 299 299 300 304 305 305 306 306 304 304 312 311 310 310 309 307 313 313 311 310 310 312 312 311 313 315 317 319 320 321 324 326 326 326 324 323 322 322 322 323 323 334
306 303 302 301 300 299 300 303 306 305 305 306 307 303 308 310 312 310 310 310 313 313 311 311 311 310 311 311 311 313 315 316 317 318 319 321 321 324 326 326 326 324 324 327 326 323 323
307 303 302 300 300 300 302 306 307 306 306 306 306 307 308 310 309 309 310 313 315 312 312 310 310 310 311 310 311 310 312 315 316 317 317 321 321 320 324 327 327 326 326 327 330 326 323
307 305 302 300 301 302 306 307 307 306 306 306 305 309 311 310 308 309 314 316 315 312 310 310 310 311 311 310 310 310 312 313 316 315 316 319 319 322 322 323 327 328 329 326 327 328 329
306 304 303 302 304 306 307 307 307 306 307 306 307 311 311 309 306 309 316 313 313 310 309 310 311 311 312 311 311 311 311 314 315 313 314 318 319 320 322 323 324 327 328 329 328 331 332
304 304 304 305 307 307 307 307 306 305 306 306 308 315 310 309 308 314 317 314 311 310 310 310 311 311 311 311 311 311 311 312 314 312 312 314 314 317 319 322 322 325 327 328 329 329 332
303 304 307 308 308 307 307 306 306 305 305 309 310 314 309 310 314 313 315 312 307 311 310 310 310 311 311 311 311 311 311 310 312 310 310 312 313 316 315 319 324 324 327 327 331 334 331
303 306 308 308 307 307 306 306 306 306 305 308 312 312 310 312 317 316 313 312 311 312 312 312 312 310 310 311 311 310 310 310 311 309 310 313 312 314 313 313 316 321 325 327 327 330 334
305 306 308 307 306 306 306 306 306 306 305 308 312 317 313 312 312 312 313 313 313 310 312 312 312 311 311 311 310 310 310 311 311 309 313 312 310 312 311 314 314 319 322 323 325 330 331
304 306 307 306 306 306 307 306 306 306 305 308 311 312 310 313 311 311 311 311 310 311 311 311 312 312 311 312 311 310 310 310 311 310 313 312 312 311 310 310 309 312 314 317 320 325 330
303 307 306 306 306 306 307 306 306 306 306 310 314 313 311 311 311 312 311 312 312 311 311 310 312 311 312 315 313 313 310 310 311 311 312 312 311 309 310 309 308 308 311 315 317 319 322
305 307 307 307 307 306 306 306 306 306 308 310 309 308 311 309 310 310 311 311 311 311 310 310 310 310 310 311 311 311 313 312 312 312 314 313 312 311 310 309 308 312 313 317 318 319 321
307 307 307 307 307 307 307 307 307 306 308 310 309 308 311 312 311 311 310 311 312 311 312 309 309 310 310 309 310 310 311 311 311 312 311 315 314 313 310 309 309 308 310 316 319 320 321
308 307 307 306 307 307 307 307 307 306 307 310 309 309 310 312 311 312 312 309 309 309 308 309 309 310 309 310 311 312 311 311 311 311 311 310 313 313 310 310 308 313 324 325 325 324 324
308 307 307 307 306 307 307 307 307 307 307 310 310 308 308 312 313 311 311 310 310 309 309 308 307 308 309 311 313 314 314 313 311 311 311 311 312 314 311 311 314 320 316 316 322 332 322
307 307 307 307 307 307 307 308 308 308 307 310 310 310 308 313 312 309 312 310 309 308 309 309 309 310 309 312 315 314 315 314 313 313 312 314 313 316 313 312 313 314 312 312 329 328 318
308 307 307 307 307 307 307 307 308 308 308 311 310 310 311 313 313 311 309 310 310 309 311 310 312 310 310 312 314 314 315 314 315 313 310 313 313 314 314 315 317 313 310 319 319 319 318
309 308 307 307 307 308 308 308 308 308 308 309 311 308 308 309 314 311 310 310 309 310 310 310 312 311 308 309 310 310 313 312 313 315 311 312 311 315 314 315 314 312 311 312 317 318 319

GFSGBSN_925_thetae_057.txt.gz
Theta_e
304 304 304 304 303 303 302 302 301 301 302 301 301 301 301 301 303 305 306 306 306 306 307 313 314 311 319 323 319 319 325 325 324 324 336 337 338 338 338 339 343 348 349 354 353 353 351
303 303 304 303 303 303 302 301 301 301 301 301 301 301 301 301 306 306 306 307 306 307 310 313 311 311 324 323 318 325 328 332 324 324 331 333 334 335 334 335 339 341 344 354 353 354 354
302 302 302 302 302 302 301 301 301 301 301 301 301 300 301 301 308 306 306 307 307 310 310 313 316 320 325 321 318 325 327 325 323 326 331 332 331 333 331 333 334 337 343 349 355 354 355
302 302 301 301 301 301 301 301 301 301 301 301 300 300 300 302 309 306 307 307 310 312 309 314 318 326 322 315 316 322 328 328 326 327 331 329 328 331 331 330 330 336 339 352 353 354 352
301 301 301 301 301 301 301 301 301 300 301 300 300 300 301 304 309 307 308 307 310 310 312 318 326 327 319 314 316 316 323 328 330 328 328 328 329 329 332 329 330 329 337 344 352 350 350
301 301 301 302 301 301 301 300 300 300 300 300 301 301 301 307 307 307 310 307 317 315 322 322 321 322 316 316 316 316 319 327 333 326 330 331 330 330 332 332 328 330 331 337 349 353 351
301 301 301 301 301 301 301 300 300 300 300 303 304 303 301 307 307 309 312 315 323 323 317 316 316 316 316 315 316 319 324 327 331 326 326 328 330 328 331 331 328 327 332 334 340 349 352
302 302 301 301 301 301 300 300 299 300 304 306 307 306 302 307 307 310 312 316 314 315 318 314 314 315 314 315 317 320 324 326 327 331 327 324 325 327 327 326 326 327 329 334 336 345 351
306 304 303 302 302 301 300 299 300 304 306 306 307 307 304 307 307 312 314 313 312 313 317 315 315 315 315 315 316 317 321 326 326 329 330 328 326 325 326 326 326 326 328 334 339 345 351
308 305 304 303 301 300 299 300 303 306 306 306 307 307 305 307 308 314 315 313 313 313 319 316 314 314 315 315 316 315 317 322 325 327 326 327 326 324 325 326 327 327 326 326 332 340 347
308 307 304 303 301 300 300 302 306 306 306 306 307 307 303 307 314 316 314 313 312 313 316 315 314 313 314 315 316 316 316 320 321 323 327 326 325 325 325 325 325 327 327 324 324 330 339
310 306 303 301 300 300 301 305 307 307 306 307 307 306 304 313 314 314 313 313 312 315 314 314 314 314 314 314 314 315 316 317 320 322 322 325 326 326 325 325 325 326 326 326 325 324 329
310 305 303 301 300 302 304 307 308 307 307 307 307 305 309 312 316 313 313 314 316 314 316 314 314 314 315 315 315 315 317 318 318 320 319 320 322 324 327 327 326 326 327 330 328 326 325
307 305 304 302 303 305 307 308 307 307 307 307 306 309 311 312 313 313 315 317 317 316 316 314 313 313 314 314 315 314 315 316 319 318 319 319 321 321 322 327 329 328 328 331 334 329 326
306 305 304 305 306 308 308 307 307 306 307 307 308 313 314 313 312 313 318 319 318 317 315 314 314 314 315 314 312 314 315 316 318 318 318 319 319 322 322 322 325 329 330 328 330 331 331
304 304 305 308 308 308 307 307 307 306 306 307 312 314 314 313 312 314 318 319 318 314 313 313 315 315 316 316 314 315 316 316 317 316 316 318 322 323 321 322 324 326 328 329 328 334 335
304 305 308 309 308 307 307 307 307 306 306 310 313 318 314 314 313 317 320 319 316 313 313 314 315 316 315 316 315 315 316 315 315 316 314 315 318 320 319 323 323 324 327 329 331 329 333
305 307 308 308 307 307 307 307 307 306 306 313 316 319 314 314 319 318 320 317 309 315 314 315 314 315 315 315 316 316 315 315 314 314 314 314 314 317 318 320 321 321 322 323 333 335 331
305 308 307 307 307 307 307 307 307 306 305 310 318 318 315 316 321 321 318 316 315 316 316 316 316 315 315 315 316 315 314 313 313 312 312 314 314 316 316 317 317 320 322 325 325 328 334
304 308 307 307 307 307 307 307 307 306 306 309 318 321 318 316 316 317 318 317 316 314 314 314 315 315 315 315 314 314 314 313 313 312 313 311 313 314 316 317 316 318 320 323 325 329 329
305 308 308 308 308 307 307 307 307 306 308 310 317 316 315 317 316 316 316 315 314 315 313 313 314 314 315 316 313 314 313 313 313 314 312 312 312 313 313 313 313 314 318 321 325 328 333
306 308 308 308 308 307 307 307 307 307 311 314 318 317 315 316 314 315 314 315 314 313 314 313 314 313 314 315 315 316 316 316 314 313 314 312 315 314 313 312 312 312 313 314 319 322 324
307 308 307 307 307 307 307 307 307 309 311 314 313 312 316 310 314 315 314 313 314 314 313 312 312 313 313 313 312 313 313 313 316 315 314 315 316 317 315 312 312 312 311 311 313 316 319
308 308 307 307 307 307 307 307 307 308 311 312 312 313 316 315 313 313 313 311 312 313 314 312 311 312 312 312 311 311 312 312 314 314 312 316 317 318 319 314 314 312 312 312 313 314 318
308 307 307 307 307 307 307 308 307 307 311 313 312 312 314 315 313 313 312 312 311 311 311 311 311 311 311 311 312 314 314 313 313 312 312 312 314 318 318 316 314 311 316 323 321 322 321
308 307 307 307 307 307 307 308 307 307 310 312 312 311 313 318 316 313 313 313 312 312 313 311 311 310 311 312 314 317 316 317 316 315 313 313 312 318 316 315 315 312 319 316 320 325 323
309 307 307 307 307 307 307 308 308 308 310 312 313 312 314 317 315 314 314 313 312 312 313 312 312 312 311 314 315 317 318 315 316 315 314 316 318 318 316 316 313 318 316 314 324 325 318
310 308 307 307 307 307 307 308 308 308 309 312 313 312 315 317 316 314 313 313 313 313 315 314 315 314 312 313 316 314 316 315 314 315 313 317 316 317 317 316 315 317 315 315 317 312 312
311 308 308 307 307 308 308 308 308 308 309 312 315 312 312 314 316 314 314 312 312 311 313 313 314 314 312 311 311 311 314 314 313 320 314 315 316 316 314 314 317 315 315 315 312 311 312

GFSGBSN_925_thetae_060.txt.gz
Theta_e
303 303 303 303 302 302 301 301 301 301 301 301 301 301 300 301 302 308 306 306 307 307 306 309 314 311 317 324 326 323 323 319 320 324 334 342 340 341 342 342 344 347 349 351 351 353 352
302 302 302 302 301 301 301 301 301 301 301 301 301 300 300 301 304 309 307 306 307 308 310 313 312 312 320 329 320 325 328 333 324 320 334 340 338 338 338 338 339 343 343 347 353 353 353
302 302 302 301 301 301 301 301 301 301 301 301 300 301 301 301 306 309 306 307 307 311 311 312 316 318 328 326 319 324 327 332 326 319 331 337 335 335 336 334 333 335 341 344 352 353 357
301 301 302 302 301 302 301 300 300 300 300 300 301 302 303 301 306 308 307 308 308 311 308 312 317 324 331 317 317 322 328 327 326 321 327 330 332 332 333 332 331 333 338 342 348 355 352
303 302 301 301 301 301 300 300 300 300 300 302 305 306 305 302 306 307 307 309 308 309 313 315 325 329 329 316 317 320 327 328 326 327 330 332 331 331 330 333 332 331 336 341 345 355 354
306 304 302 302 302 301 301 301 300 299 303 306 307 308 307 303 307 307 309 312 313 312 322 322 323 324 321 318 318 317 319 328 330 328 329 331 330 330 331 332 334 331 333 335 343 352 353
309 306 304 303 302 301 301 300 299 301 306 306 307 307 308 305 307 308 309 317 321 325 323 321 321 320 318 317 317 319 320 327 332 330 332 331 333 334 332 330 332 329 329 332 333 347 353
312 307 304 304 302 301 300 300 300 304 306 307 307 307 307 307 306 310 310 318 316 316 318 317 316 316 316 317 319 323 324 328 333 331 328 332 334 332 327 330 331 332 330 329 333 343 352
313 308 306 304 302 300 300 300 303 306 307 307 307 307 307 306 306 310 316 316 315 315 316 319 316 317 316 317 318 320 325 326 328 329 330 328 327 327 328 328 329 328 328 328 332 338 347
312 310 305 303 301 300 300 302 306 307 307 307 307 307 307 304 310 316 317 315 315 314 318 318 315 316 315 316 317 317 318 323 326 328 327 329 328 327 326 328 328 328 327 326 328 334 341
312 309 305 303 301 301 303 305 307 308 307 307 307 307 307 302 310 317 316 315 314 314 319 317 316 314 316 316 317 317 317 320 323 326 327 327 329 328 328 326 327 328 328 328 326 327 332
311 306 305 303 303 303 305 307 308 307 307 307 307 307 305 310 311 315 315 315 314 316 316 316 316 314 315 316 316 317 317 318 320 322 323 324 326 326 326 326 326 326 326 328 328 326 327
307 305 304 304 305 307 308 308 308 307 307 307 307 306 305 311 317 315 315 317 316 316 318 316 315 315 316 316 315 316 317 318 317 319 318 319 322 325 327 326 326 326 326 329 329 328 327
305 304 304 305 308 308 308 308 308 307 307 307 308 308 312 313 314 314 316 319 318 319 317 316 315 315 315 316 316 316 316 317 318 318 319 321 321 319 322 327 327 326 327 329 332 331 328
304 304 306 308 309 309 308 308 307 307 307 307 309 314 315 316 314 314 318 320 320 319 317 316 315 314 315 315 315 316 316 316 317 320 320 318 318 320 323 322 324 328 329 326 328 329 332
305 305 307 307 308 308 307 307 307 307 307 308 311 317 317 315 315 315 318 320 320 317 316 316 315 316 317 316 316 316 315 318 317 319 318 318 320 320 321 322 323 323 326 329 330 332 335
305 306 307 308 308 307 307 307 307 307 307 311 314 321 317 317 315 318 320 321 318 316 316 316 317 317 318 317 317 317 317 317 317 317 317 316 317 318 319 322 322 323 325 326 328 331 333
304 307 308 308 308 307 308 307 307 306 307 314 320 321 317 317 320 321 322 319 311 317 317 317 317 317 317 317 318 318 318 317 316 316 316 316 315 317 319 320 321 322 324 324 329 333 333
305 307 308 309 308 308 308 307 307 306 306 310 322 320 317 318 322 322 320 318 317 318 317 317 318 317 317 317 317 317 317 317 315 314 315 315 316 317 317 318 318 320 321 322 323 324 333
305 308 308 309 308 308 308 308 307 307 307 310 321 322 320 318 319 319 320 319 318 315 316 315 316 316 316 317 316 317 316 315 315 314 314 312 314 317 318 318 317 318 319 319 321 324 324
305 308 308 308 308 308 308 308 308 309 311 312 320 318 317 319 319 318 318 318 317 317 315 315 316 315 316 317 316 315 315 316 315 315 313 313 313 314 314 314 314 315 316 317 319 323 327
307 308 308 308 308 308 308 308 308 311 313 316 319 320 318 317 316 318 316 316 315 315 315 317 316 315 314 315 315 316 315 315 316 316 315 315 314 314 315 315 315 315 315 315 317 320 323
308 308 308 308 308 308 308 308 308 312 314 316 316 316 317 313 315 316 315 315 315 314 314 313 313 314 314 314 313 313 313 313 313 316 316 317 319 320 319 316 317 316 314 314 315 316 320
309 308 308 308 308 308 308 308 309 312 312 315 315 317 317 316 315 315 314 314 314 313 314 313 312 312 313 312 312 312 313 312 312 312 313 315 316 319 320 317 322 319 316 314 314 315 315
308 308 308 308 307 308 308 308 308 312 313 316 315 316 319 317 315 315 314 313 313 314 314 313 312 312 311 312 314 315 315 315 313 312 312 313 316 317 317 318 316 315 316 320 323 317 316
308 308 308 308 307 308 308 308 308 310 313 316 315 316 318 319 317 315 315 314 314 314 315 313 313 312 312 313 315 317 316 317 318 317 314 314 313 319 317 315 314 314 318 317 317 319 323
309 308 308 308 307 308 308 308 308 311 313 314 316 316 318 319 316 315 315 316 314 313 315 314 313 313 312 314 317 318 318 316 316 316 315 317 320 317 317 318 315 317 316 316 318 317 319
309 309 308 308 308 308 308 308 308 308 312 313 316 316 317 319 317 316 315 315 315 314 317 315 316 315 314 315 315 314 315 315 314 314 315 317 320 320 318 317 318 317 316 316 319 318 317
310 310 309 308 308 308 308 308 308 308 311 311 318 316 315 317 317 316 316 314 314 314 315 315 316 314 313 313 312 311 315 313 314 318 313 320 317 320 315 315 318 316 315 315 314 315 315

GFSGBSN_925_thetae_063.txt.gz
Theta_e
302 302 302 301 301 301 301 301 301 301 301 301 301 301 301 302 301 304 308 307 306 307 308 309 312 312 316 322 324 321 322 318 317 316 320 336 342 339 344 342 343 346 349 353 352 351 355
302 302 302 302 302 301 301 301 301 301 301 300 301 303 303 303 302 304 307 306 307 307 311 311 311 311 317 327 321 326 330 320 321 319 325 334 341 338 339 340 339 340 341 348 350 354 356
305 304 302 302 302 302 301 300 301 300 300 300 303 306 307 307 303 303 307 306 307 308 311 310 315 316 324 326 320 322 328 331 323 320 323 332 339 339 335 336 335 331 333 335 353 354 356
310 307 304 303 302 302 301 300 300 300 300 303 306 307 307 308 305 304 307 307 308 308 311 311 317 322 329 323 318 320 326 332 328 322 322 331 336 336 331 331 333 330 330 334 338 354 355
314 310 306 304 303 302 301 300 300 299 302 306 307 307 307 308 307 304 307 308 310 309 310 315 321 324 331 317 316 318 325 328 329 323 319 323 326 330 330 330 330 329 328 332 335 351 356
315 312 307 305 304 302 301 300 300 301 305 307 307 307 308 307 308 305 308 310 313 313 318 322 322 324 325 319 317 317 320 325 325 321 322 325 330 329 327 326 331 331 328 328 333 350 355
315 312 308 305 303 301 300 300 300 304 307 307 307 308 308 307 307 304 307 310 318 318 318 326 324 325 318 317 318 317 319 326 328 326 327 328 329 329 327 327 328 329 331 328 329 336 353
315 311 309 304 302 301 300 301 303 306 307 307 308 308 307 307 307 305 306 314 314 314 315 317 321 317 316 317 318 321 320 323 331 330 329 330 329 329 330 330 330 328 330 330 329 327 351
314 312 307 304 302 301 302 303 306 307 307 307 308 308 307 307 306 308 311 315 315 315 314 316 317 315 314 316 317 322 323 323 330 333 327 328 331 331 332 331 327 327 328 327 327 327 351
313 309 306 304 303 303 304 306 307 307 308 308 307 307 307 307 309 310 315 316 315 315 314 318 315 315 315 315 315 319 319 320 325 328 329 327 326 327 330 329 326 324 325 326 325 324 327
309 306 305 305 305 306 307 308 307 308 308 308 307 307 307 305 304 310 315 315 314 314 318 317 315 314 314 314 315 316 317 318 322 324 325 325 327 328 328 325 324 325 326 326 326 323 322
306 305 305 306 308 309 309 308 308 308 307 307 307 308 307 312 311 316 317 315 315 315 319 316 315 314 314 314 315 317 317 316 318 319 321 322 323 324 326 327 326 325 324 324 324 323 324
305 305 307 309 309 308 308 307 308 307 307 307 308 309 307 306 315 315 315 315 315 316 317 315 314 313 313 314 315 315 316 316 315 316 317 317 319 320 322 325 323 324 323 323 325 325 325
305 306 309 309 307 306 307 307 307 307 307 307 310 310 309 312 312 315 315 316 320 318 316 316 315 315 315 315 316 315 315 314 317 316 315 316 319 316 321 323 326 324 321 322 328 328 326
306 306 308 308 308 308 307 307 307 307 307 308 311 314 315 316 316 315 315 320 318 317 316 315 315 314 314 315 314 315 316 314 316 317 318 317 318 318 319 319 321 324 325 321 322 323 324
305 307 308 308 309 309 308 308 307 307 308 310 312 315 319 317 316 314 316 319 317 316 316 316 316 317 317 316 314 314 314 316 318 317 315 316 315 316 317 317 319 318 321 323 322 324 326
306 307 309 309 309 309 309 308 307 307 310 314 315 321 318 318 316 317 320 320 318 317 317 316 316 317 317 317 317 317 317 315 316 316 315 315 314 314 315 317 317 319 319 320 319 323 325
306 307 309 309 309 309 309 308 308 307 309 312 318 323 317 318 320 322 320 318 313 318 318 317 317 317 317 317 317 318 318 317 315 314 315 314 312 313 314 314 315 315 316 319 321 322 324
306 308 310 309 309 309 308 308 308 308 308 309 319 321 317 318 322 321 320 317 315 316 316 316 317 316 316 316 317 317 317 316 314 314 315 312 313 314 315 313 315 316 316 316 318 318 320
306 309 310 309 309 309 309 308 308 311 311 311 319 321 319 317 317 318 319 318 316 316 315 315 316 316 316 316 315 317 316 316 315 315 316 313 311 312 312 313 313 314 314 314 315 316 318
306 309 309 309 309 309 309 308 310 313 314 314 320 318 318 317 317 317 317 317 316 316 315 315 316 315 314 315 315 316 315 315 316 318 315 312 312 312 310 312 313 313 313 313 314 315 317
306 309 309 309 308 309 309 308 311 314 316 316 318 319 318 316 316 316 316 316 315 315 314 314 315 314 313 314 314 314 313 313 313 313 316 314 316 315 316 313 313 314 315 316 314 314 315
308 309 309 309 308 308 308 309 311 314 316 317 317 318 317 314 315 315 315 315 315 315 315 314 313 314 314 313 312 311 311 311 310 311 313 316 317 318 317 316 316 317 316 315 315 314 313
309 309 309 308 308 308 308 309 311 313 314 315 316 318 319 316 315 315 314 314 314 313 314 313 312 313 313 311 311 311 311 311 311 310 309 311 315 316 315 316 318 315 315 317 317 318 318
309 310 309 308 308 308 308 308 311 313 315 316 317 318 320 317 316 315 315 314 314 314 314 313 312 312 311 312 313 314 314 315 316 315 313 310 311 316 316 315 313 313 313 319 318 321 321
309 311 309 308 308 308 308 308 309 313 315 317 316 318 320 321 317 316 317 315 315 315 315 313 313 312 312 312 315 317 317 318 318 315 313 313 314 318 317 316 315 314 316 315 315 318 318
309 311 309 308 308 308 308 308 309 312 314 315 316 316 320 322 316 315 316 316 314 314 315 315 314 314 311 313 315 319 317 314 316 315 315 316 317 317 317 317 315 315 316 315 318 318 317
309 311 310 308 308 308 308 308 308 309 313 315 318 317 316 321 318 317 315 316 315 315 316 315 317 314 313 314 313 315 313 312 311 313 314 317 317 319 318 317 317 314 317 318 316 314 314
309 310 310 309 308 309 309 308 308 309 309 310 317 318 317 319 319 317 317 315 314 314 314 315 316 313 312 314 312 311 312 311 311 313 310 316 312 313 316 316 312 310 312 311 310 310 311

GFSGBSN_925_thetae_066.txt.gz
Theta_e
309 306 305 303 303 302 302 301 301 301 300 300 302 305 306 307 307 305 303 306 306 306 307 311 311 312 316 321 316 325 321 320 319 318 318 330 338 337 339 342 344 344 344 346 352 356 357
318 311 308 305 303 303 302 301 301 300 300 301 305 307 307 307 307 307 304 305 306 307 307 311 312 311 315 320 323 323 322 319 318 316 318 326 338 339 339 342 341 340 339 339 354 357 356
319 315 311 306 304 303 302 301 300 299 300 304 307 307 307 308 307 307 306 306 307 308 308 310 314 318 320 318 322 325 328 323 318 316 320 321 332 336 338 335 335 335 331 332 355 357 358
317 316 311 307 305 303 302 300 300 300 303 306 307 307 308 308 308 307 306 306 308 308 308 310 317 321 323 328 324 323 330 329 321 319 317 324 330 332 337 333 329 330 327 330 352 355 356
316 315 311 307 305 303 301 300 300 302 306 307 307 307 308 308 307 306 306 306 309 311 309 312 320 322 327 321 314 315 323 331 328 324 320 320 323 323 326 329 326 325 330 328 331 354 356
316 315 311 307 304 301 300 300 302 305 307 307 308 308 308 307 306 306 306 308 313 313 316 321 322 322 321 324 317 318 318 330 325 322 319 319 319 326 325 324 329 330 329 326 327 345 356
317 314 311 305 303 301 301 303 305 307 307 307 308 308 307 306 306 306 306 308 310 314 319 320 322 321 321 318 317 316 317 321 322 320 321 325 327 329 328 325 325 326 327 328 328 328 357
315 311 306 305 303 303 305 306 307 307 307 307 308 307 306 307 307 306 307 310 313 313 311 314 319 320 321 316 316 316 318 321 326 326 324 326 327 326 326 326 327 328 327 327 326 333 347
308 306 305 304 304 306 308 308 307 307 308 307 307 306 307 308 306 311 308 313 316 315 310 312 313 318 313 314 315 320 317 318 329 329 327 328 328 328 329 329 330 328 327 328 326 345 358
306 305 305 306 308 309 310 310 307 307 307 306 306 307 307 306 310 305 312 315 315 313 308 313 314 314 313 313 314 320 320 320 324 330 331 325 326 327 329 330 329 326 323 325 325 322 344
305 305 306 309 310 310 309 307 307 307 307 306 307 307 308 308 304 308 314 315 315 311 316 316 312 314 312 311 313 315 316 317 319 321 322 324 325 326 326 325 326 327 324 323 324 323 321
306 307 308 309 308 308 307 307 307 307 307 307 309 309 309 312 310 315 314 315 313 310 317 314 313 313 312 313 314 315 316 315 315 317 317 318 320 322 324 325 324 323 323 320 319 319 322
306 307 308 308 309 309 309 308 308 307 307 309 311 311 310 305 311 312 314 311 312 313 314 313 312 311 311 311 313 314 315 314 313 313 314 315 316 316 319 321 321 322 317 320 322 321 323
306 307 308 309 309 309 309 308 308 308 308 311 312 312 313 312 312 313 314 313 317 315 314 312 312 311 311 312 313 314 313 311 314 314 311 313 316 315 316 318 323 323 317 319 324 323 324
306 307 308 309 310 309 309 308 308 308 309 311 314 314 315 316 316 315 310 314 313 313 315 314 312 312 313 313 312 313 312 313 316 313 313 314 316 316 315 314 316 317 322 318 319 319 320
306 307 309 309 310 310 309 308 308 309 311 312 315 315 316 318 316 313 310 316 315 315 315 313 314 314 314 315 314 311 313 313 316 314 311 314 315 313 315 314 313 312 316 319 316 322 324
307 308 310 309 310 310 309 309 308 310 312 314 317 315 317 317 316 310 315 318 316 315 315 315 314 314 314 315 314 313 314 314 314 313 310 310 309 312 312 311 313 312 311 312 314 317 321
306 308 310 309 309 309 309 309 309 311 313 313 313 314 316 317 316 313 313 314 314 313 313 313 314 314 314 313 314 314 313 314 313 313 313 310 308 311 313 312 313 313 311 308 313 317 318
306 308 310 309 309 309 309 309 311 312 312 310 312 314 316 316 314 313 314 314 314 314 314 313 313 313 312 312 314 314 314 314 313 312 312 310 308 310 311 310 309 311 311 310 307 310 316
306 309 309 309 309 309 308 311 313 314 314 311 312 312 310 308 309 313 314 314 314 315 313 314 313 311 311 311 310 313 313 314 314 315 318 310 305 308 310 311 310 310 311 311 308 309 311
308 309 309 309 309 309 308 312 314 315 316 315 311 313 311 311 311 310 312 313 315 314 312 311 312 313 310 311 310 311 311 310 312 315 312 307 309 310 309 311 311 311 312 313 313 312 311
308 310 310 309 309 309 309 312 314 315 316 316 312 312 309 309 309 311 310 311 314 313 312 312 312 312 310 311 312 312 310 309 310 308 310 309 313 313 314 314 314 315 314 315 314 314 314
308 310 310 309 309 308 309 312 313 315 316 315 315 315 307 308 309 309 310 312 313 312 312 311 312 311 311 311 310 309 307 307 308 309 307 312 313 313 315 313 314 314 313 314 315 318 321
308 310 310 309 309 308 309 312 314 315 316 316 317 315 309 311 310 311 312 313 313 312 312 311 310 311 310 308 308 308 308 308 308 308 303 309 311 311 312 312 315 310 310 312 319 320 320
308 310 310 309 309 308 308 310 314 315 316 316 316 317 312 311 312 314 312 313 312 312 313 312 312 309 307 307 308 310 309 313 313 312 311 306 306 311 313 313 312 313 311 315 316 319 317
308 310 311 310 309 308 308 311 313 314 315 316 317 316 315 310 312 314 313 312 311 311 312 313 311 310 307 307 310 313 316 314 315 312 308 308 308 310 314 315 316 312 315 315 313 317 316
308 310 311 310 309 308 308 308 311 313 316 317 317 316 317 311 311 311 312 311 311 310 310 312 312 310 306 307 311 315 314 311 310 311 310 309 309 310 313 314 316 314 313 314 317 314 312
308 309 311 310 309 309 308 308 309 313 312 315 318 317 316 313 312 315 313 313 311 309 310 310 311 308 306 304 303 302 306 309 308 309 311 314 316 315 316 315 315 311 313 316 313 309 309
308 309 311 310 310 309 309 308 308 308 308 310 316 317 317 315 313 317 317 314 314 312 309 309 309 308 306 303 305 298 308 308 305 303 308 312 309 309 311 316 312 308 308 308 307 306 307

GFSGBSN_925_thetae_069.txt.gz
Theta_e
318 316 313 308 306 304 303 302 300 300 300 302 305 307 307 307 308 307 307 306 305 306 307 308 310 311 315 319 315 325 312 315 319 319 317 324 334 334 340 341 344 348 346 342 343 354 356
317 316 313 309 307 305 303 301 300 300 301 305 307 307 308 307 308 308 307 306 305 306 307 309 310 312 314 313 319 323 315 319 319 318 317 330 333 335 337 338 342 340 341 339 337 355 355
316 315 315 309 307 305 302 301 300 301 304 307 307 307 307 307 308 307 306 306 305 306 308 310 314 317 318 313 323 322 320 320 320 318 315 321 333 335 337 340 335 338 340 331 356 357 359
316 315 314 310 305 302 301 300 301 304 307 307 307 307 308 307 307 306 306 306 306 307 309 310 317 320 320 323 323 322 321 322 319 317 318 318 329 329 335 335 328 329 325 327 358 357 356
316 315 312 306 304 302 302 303 305 306 307 307 307 307 307 307 306 306 306 305 308 310 309 313 320 321 326 324 323 324 325 329 320 318 317 322 326 324 324 327 325 324 330 328 355 354 358
316 309 306 305 304 304 304 306 307 307 307 307 307 307 306 306 306 307 306 310 312 311 318 320 321 321 318 320 316 314 320 329 324 318 317 318 317 321 323 325 331 331 329 326 328 354 356
305 306 304 304 305 306 307 308 310 308 307 307 306 306 306 307 308 307 306 310 307 310 320 314 315 317 320 319 316 315 317 326 319 318 318 318 324 327 328 325 327 326 326 327 326 330 356
306 305 305 306 307 309 310 310 309 307 306 306 306 306 307 308 307 306 308 308 312 311 310 313 318 319 320 319 315 316 320 323 322 323 322 323 327 326 327 326 326 326 328 327 326 333 338
306 306 307 308 309 310 309 307 307 307 307 306 306 307 308 309 306 310 305 312 313 312 309 310 313 315 315 315 314 315 315 319 325 326 325 325 327 326 327 328 328 327 327 327 328 338 355
306 307 308 308 309 308 309 308 308 308 307 307 308 309 309 306 308 307 310 313 313 311 307 309 312 315 313 311 313 318 318 320 325 327 326 326 326 329 328 328 327 329 325 327 325 321 323
306 307 309 309 310 310 309 309 309 308 308 308 309 310 310 309 310 310 314 313 314 309 315 314 312 313 310 311 313 315 315 316 320 323 327 331 325 325 325 326 326 328 326 323 323 321 335
306 307 308 309 310 310 309 309 309 309 309 310 311 311 310 309 308 313 311 314 312 311 317 313 312 311 311 311 313 314 314 314 314 316 316 317 318 321 323 323 323 324 322 317 316 316 320
306 307 309 310 311 310 309 309 309 309 310 312 312 312 312 308 310 309 313 311 310 312 313 312 312 311 310 311 313 314 314 312 313 314 315 315 315 313 315 319 320 318 317 319 321 320 321
307 307 309 311 310 310 309 309 308 309 312 313 314 313 314 315 314 314 313 309 314 315 314 312 310 310 310 310 312 312 310 310 313 311 309 312 315 315 314 315 317 320 317 318 323 321 323
305 307 310 311 310 310 309 309 309 311 313 314 316 315 316 317 316 315 309 311 314 313 314 313 313 313 313 313 311 312 312 312 312 311 313 313 315 313 314 312 314 316 318 317 316 316 319
305 307 310 310 310 309 309 308 311 313 315 315 318 317 316 315 316 312 312 314 314 313 313 312 313 313 314 314 314 309 312 312 314 311 310 312 314 312 313 312 312 311 312 316 314 321 323
305 308 311 310 309 309 309 309 312 314 315 317 317 311 315 315 314 309 315 315 315 314 314 313 313 313 313 313 313 313 312 313 312 312 308 308 309 312 310 311 312 310 309 308 310 314 319
307 309 309 309 309 309 309 311 313 315 315 316 313 312 315 315 311 308 310 312 313 314 312 312 312 312 312 311 311 311 313 312 312 311 311 308 305 310 312 309 310 308 309 305 309 312 313
307 309 310 310 309 308 310 313 314 315 315 314 312 312 315 315 313 311 311 313 313 313 312 312 312 311 310 310 313 312 313 313 314 311 312 310 306 310 310 308 307 309 309 308 304 305 310
307 310 310 309 309 308 311 314 315 315 316 315 309 311 307 306 305 311 312 312 314 312 312 311 312 310 309 310 308 312 312 312 311 316 318 309 304 308 311 310 308 310 310 309 307 309 310
306 310 310 309 308 309 311 314 315 315 316 314 307 311 308 309 309 309 310 312 314 312 310 309 312 311 310 311 311 311 310 309 309 311 310 305 308 310 310 312 313 313 313 313 313 311 312
306 310 310 309 308 310 312 314 315 316 316 315 311 312 305 306 306 309 308 311 313 313 310 311 311 311 309 311 311 312 310 309 309 308 307 308 312 313 313 313 312 313 312 312 313 313 313
306 310 311 309 308 309 311 314 315 315 316 314 314 312 306 307 307 308 309 312 311 311 311 311 311 310 311 311 309 307 306 307 308 310 307 310 310 310 314 311 311 311 312 312 318 321 320
306 309 311 310 308 308 309 314 314 315 316 316 316 312 307 310 309 310 312 312 312 311 312 310 310 310 310 307 307 306 305 306 307 307 303 308 308 308 311 310 311 308 309 312 319 318 317
305 309 311 310 309 308 309 313 314 315 316 316 316 315 307 310 310 312 312 312 311 309 312 311 311 308 305 305 307 308 309 311 310 307 307 303 306 308 311 311 310 312 312 313 316 318 316
305 309 311 310 309 308 309 310 312 315 317 317 316 316 310 309 312 312 312 311 310 309 310 312 309 306 305 305 306 311 314 313 313 309 305 306 304 308 310 312 315 310 314 313 313 317 314
305 308 311 310 310 308 308 308 312 313 315 317 317 316 314 309 309 310 310 310 308 307 308 308 310 308 304 303 303 302 307 308 306 310 309 305 309 308 309 309 312 313 310 312 316 313 311
305 309 310 310 310 309 308 308 309 310 309 317 316 316 315 310 311 313 311 311 310 307 309 308 308 305 303 302 300 298 299 299 304 306 311 308 310 305 313 312 312 309 310 315 311 307 307
305 308 310 311 310 310 309 308 308 308 308 311 316 315 316 313 312 316 316 316 313 311 306 305 305 305 303 301 299 296 308 307 303 302 306 308 307 306 310 310 309 308 307 306 306 306 305

GFSGBSN_925_thetae_072.txt.gz
Theta_e
316 316 316 312 309 306 303 301 300 300 302 306 307 307 308 308 307 307 307 306 306 305 306 307 309 311 313 316 315 323 311 319 330 324 323 324 332 334 341 341 343 351 349 345 343 354 356
316 316 315 313 308 304 302 301 301 303 306 307 307 308 308 308 307 307 306 306 306 305 306 307 310 315 314 309 316 319 312 321 325 325 317 326 330 333 336 337 340 341 342 340 337 349 354
316 316 314 309 305 303 302 302 304 306 308 307 308 308 307 307 307 306 306 306 306 305 306 307 313 316 316 309 324 317 314 318 320 318 314 326 332 335 336 340 335 335 335 333 356 355 355
316 313 306 305 304 304 305 306 307 307 308 307 308 308 307 306 306 306 306 306 306 306 307 309 316 320 320 321 324 318 319 320 319 318 318 319 330 329 332 333 326 326 325 327 356 356 355
310 308 305 305 306 307 308 310 310 310 309 307 306 306 306 305 306 307 307 307 311 309 309 314 319 320 325 322 325 322 319 322 319 317 318 318 327 329 322 326 326 324 330 327 351 355 357
307 306 306 307 308 310 311 311 310 308 306 305 305 305 305 307 307 308 306 312 313 312 317 319 321 320 316 320 317 323 323 321 320 315 316 318 318 319 321 324 334 331 328 326 327 355 357
306 306 307 309 311 312 311 309 307 308 307 307 307 306 308 308 308 307 307 313 305 309 320 313 313 314 317 319 314 319 327 322 317 316 315 316 320 322 324 325 326 326 326 327 325 335 355
307 307 309 309 310 311 310 310 309 309 308 308 307 308 309 309 307 306 308 308 311 310 310 313 317 317 317 319 315 312 327 322 320 318 319 322 326 323 325 326 326 326 327 327 326 325 336
306 307 309 309 311 312 310 309 309 309 309 308 309 310 309 308 308 308 305 311 311 310 309 309 313 315 314 316 315 312 321 320 320 322 322 325 327 325 326 327 327 326 326 326 329 325 353
307 307 309 310 311 311 311 309 309 309 309 309 311 310 310 306 307 310 309 311 312 310 306 308 311 313 311 311 312 315 317 320 325 325 323 325 325 327 327 328 326 329 325 328 329 321 325
306 307 309 312 312 311 310 309 310 309 309 311 311 311 311 307 312 310 312 312 310 307 311 312 312 313 309 310 313 314 315 317 322 327 326 328 326 327 327 327 325 327 324 326 325 320 338
306 306 310 311 310 310 310 309 310 310 311 313 312 313 311 308 308 312 312 314 309 311 316 312 311 310 310 311 312 313 314 312 315 315 317 323 317 322 324 323 325 323 318 314 314 315 319
305 306 311 310 310 310 309 309 310 311 313 314 314 313 313 312 309 311 314 309 310 312 312 314 310 310 310 311 312 313 311 311 312 314 315 314 314 313 313 318 318 317 316 318 320 319 321
305 308 311 310 310 309 309 310 311 313 315 315 315 313 314 315 315 314 312 309 315 314 314 312 310 311 311 310 310 311 310 311 311 309 309 313 315 313 312 314 317 317 317 317 322 321 321
305 308 311 311 310 309 309 311 313 314 315 316 317 316 314 313 313 314 309 312 315 313 313 313 313 313 313 313 310 311 310 311 311 310 312 312 314 311 312 311 312 316 316 314 314 314 318
305 308 311 311 309 309 310 312 314 315 315 317 318 316 314 314 314 311 312 313 314 313 312 312 314 312 314 312 312 311 311 311 311 309 309 310 313 311 311 311 310 310 310 317 315 321 323
305 308 309 310 309 309 311 313 314 315 316 316 315 310 314 314 313 308 312 314 314 313 313 312 312 313 312 313 311 311 312 312 312 311 306 308 308 311 309 309 308 309 308 307 310 313 318
305 308 311 309 308 310 312 313 315 314 316 316 311 312 315 312 309 305 310 313 311 313 312 312 312 312 311 310 312 312 314 314 313 310 310 307 304 308 310 308 308 307 308 304 313 313 311
305 308 311 309 308 311 313 314 315 315 315 315 311 309 314 312 311 308 311 312 312 312 311 311 312 310 309 309 312 312 313 312 311 315 311 309 305 307 311 308 307 308 308 305 302 304 310
305 308 311 309 308 311 313 315 315 315 315 314 306 310 306 304 303 309 311 311 312 311 310 311 310 309 309 309 308 311 311 311 310 316 316 309 305 307 307 309 307 312 312 310 305 309 309
305 308 311 310 308 311 313 315 315 315 315 312 304 308 306 308 308 308 309 311 313 312 309 308 311 310 310 310 310 311 309 309 309 310 309 304 310 310 311 312 312 312 313 313 312 311 311
305 308 311 310 308 310 313 314 316 315 315 314 311 308 303 304 305 308 307 310 311 311 309 310 311 310 308 309 310 311 310 309 309 307 307 306 313 311 313 312 311 312 312 312 312 312 310
305 308 311 310 308 309 313 314 315 316 316 314 312 308 305 306 305 307 309 311 311 310 310 309 310 309 310 310 308 308 306 305 307 308 306 308 309 309 311 310 310 313 311 312 319 320 320
305 307 311 310 308 308 312 313 315 316 316 316 315 307 306 309 307 309 311 311 311 310 311 310 308 309 309 305 305 303 303 305 305 304 301 307 306 305 310 307 307 305 308 310 318 318 317
304 307 310 310 308 308 310 312 315 316 316 316 315 312 305 309 308 311 311 311 310 309 311 311 310 307 303 305 305 308 308 310 309 305 304 301 305 307 310 308 307 311 314 316 317 316 315
304 307 310 310 309 308 309 310 314 315 316 316 315 316 307 308 310 312 311 311 309 309 310 311 308 305 303 302 305 310 311 312 313 309 304 304 303 306 307 311 312 308 313 311 312 314 313
304 307 309 310 310 308 308 308 312 310 315 316 316 315 311 309 308 308 309 308 306 306 307 307 309 307 302 302 302 301 305 306 304 309 309 305 304 307 309 307 310 312 310 311 314 312 310
304 306 309 311 310 309 308 308 308 309 309 316 315 315 315 309 309 310 310 309 308 306 308 307 307 304 301 300 300 300 297 303 300 304 309 306 303 306 308 309 312 309 309 314 309 307 307
304 306 309 311 311 310 308 308 308 308 308 309 315 312 315 312 310 314 314 313 312 309 305 303 305 304 301 300 298 295 299 302 302 300 303 304 305 306 307 307 307 307 307 305 305 305 305

GFSGBSN_925_thetae_075.txt.gz
Theta_e
316 316 315 314 308 304 303 302 303 305 307 307 307 308 309 309 308 308 307 306 306 305 305 306 308 311 314 316 313 320 311 319 333 327 324 328 333 341 350 350 348 353 352 347 347 355 356
316 314 309 309 306 305 305 307 309 311 312 312 309 307 307 308 308 307 306 306 306 306 305 306 309 310 314 311 316 320 315 337 328 322 324 328 330 337 344 344 345 342 343 339 340 346 357
308 307 306 307 308 309 309 310 310 311 311 311 308 308 307 307 307 306 306 306 306 305 305 306 310 315 316 312 324 321 327 332 327 319 323 328 333 339 339 344 339 339 336 345 355 351 356
307 306 307 309 310 310 311 312 312 310 308 308 307 306 306 306 308 307 307 307 307 307 306 308 315 319 322 323 325 323 322 323 326 317 319 324 332 336 337 335 330 331 330 334 358 356 356
307 307 309 310 311 312 312 311 310 309 308 308 307 306 306 308 310 309 307 312 310 308 309 315 318 321 324 322 327 323 320 320 319 317 317 320 330 336 329 335 334 331 339 333 359 357 358
307 308 311 311 312 312 312 312 311 311 310 308 308 308 308 310 310 309 307 315 316 317 319 320 321 323 321 323 323 322 321 319 319 318 319 319 325 335 333 335 346 339 334 331 347 360 359
307 309 310 310 312 312 312 312 311 310 309 309 309 310 310 310 310 308 310 314 311 316 321 316 315 319 315 317 322 323 322 320 317 320 320 320 330 334 340 334 330 330 332 332 330 349 352
307 308 309 311 312 312 311 312 309 309 309 309 310 311 311 310 308 307 308 311 312 311 315 314 317 317 317 317 316 326 323 324 318 320 321 321 330 332 331 329 330 330 332 332 330 334 337
306 307 310 312 311 311 311 311 309 309 309 310 312 311 310 309 308 308 305 310 310 310 315 313 315 316 316 318 316 324 326 323 320 320 322 324 331 330 330 330 332 331 334 331 331 329 357
305 306 311 311 311 311 310 310 309 309 310 312 313 311 311 308 307 310 310 310 310 310 313 312 313 315 315 317 314 320 327 325 323 320 323 328 328 335 331 331 331 336 329 329 331 331 331
305 306 311 311 310 311 310 309 309 311 313 313 313 312 311 308 311 312 311 312 309 308 313 312 314 312 312 314 316 318 322 321 326 325 327 330 330 336 334 333 330 333 329 330 331 330 336
305 306 310 311 310 309 309 309 311 313 314 314 314 313 312 309 308 311 312 312 308 314 317 314 313 314 314 314 314 315 318 317 321 326 327 326 324 328 329 329 329 328 325 323 323 325 330
305 306 309 310 309 309 309 311 313 314 315 315 315 314 314 313 313 314 314 312 314 317 316 315 312 312 313 313 314 317 317 318 323 329 329 320 317 316 316 325 326 327 327 329 329 328 333
305 306 309 311 310 309 311 313 314 314 315 316 316 315 313 313 312 314 310 316 319 317 316 315 313 314 313 314 314 315 316 317 315 316 323 329 324 316 315 317 325 328 328 329 332 330 330
305 306 309 308 309 309 312 313 314 314 315 317 318 316 314 311 313 312 316 319 317 315 315 315 315 315 315 314 316 316 315 315 314 314 324 320 317 314 314 314 316 321 326 321 324 321 328
306 306 310 310 309 311 312 314 314 314 315 316 316 314 314 312 312 312 317 316 316 314 314 314 317 315 316 315 316 316 315 314 315 312 312 315 318 313 313 314 315 319 316 325 325 330 330
307 305 310 310 309 312 313 314 315 315 315 316 313 318 314 312 311 315 316 316 315 314 313 315 315 315 315 316 315 315 315 315 315 314 313 312 316 316 315 314 314 317 318 319 323 323 329
308 305 310 310 309 312 314 314 315 315 316 315 313 318 314 312 317 312 315 314 312 313 312 314 314 314 314 314 315 316 316 315 314 313 314 312 314 315 313 311 310 313 313 314 327 327 323
310 305 310 310 309 312 314 314 315 315 315 314 316 314 313 311 317 315 314 314 312 313 313 313 313 312 312 313 316 315 315 312 314 317 315 313 313 316 315 314 313 315 314 312 313 317 324
311 305 309 310 309 312 314 315 316 315 314 312 313 315 314 311 308 314 314 315 314 311 312 312 312 313 313 314 314 314 314 312 311 317 316 312 313 315 317 316 314 316 314 313 315 321 319
312 305 309 310 309 312 313 315 316 315 315 312 311 313 309 314 313 313 313 313 313 313 311 312 312 312 313 316 315 314 313 313 312 312 313 314 316 316 315 314 314 314 314 313 314 315 319
314 305 309 311 308 312 313 314 316 316 315 313 317 313 309 310 309 312 312 313 313 312 312 312 312 312 313 314 313 315 313 313 313 312 313 313 317 315 315 313 313 313 313 313 313 313 314
314 305 308 311 309 310 312 314 315 316 314 316 311 306 312 309 311 312 312 311 313 312 312 311 311 312 313 312 311 310 310 310 311 312 314 316 316 316 316 314 313 312 313 313 315 320 317
311 305 308 311 310 308 311 313 315 315 316 316 313 308 314 314 312 312 312 313 313 312 313 312 312 312 310 307 308 310 310 311 311 310 308 314 315 316 315 312 313 313 313 312 317 320 321
309 305 308 311 310 308 310 312 312 316 316 316 315 312 314 315 312 313 313 313 312 312 313 313 311 310 308 309 313 314 314 314 313 311 310 310 313 317 317 313 312 312 313 316 315 316 318
313 305 308 310 310 308 308 310 311 313 316 316 315 314 312 316 315 313 314 313 314 313 313 313 310 307 308 310 313 317 318 317 316 313 310 311 312 315 317 314 313 313 315 314 316 315 316
313 305 307 310 310 309 308 308 310 309 312 316 315 315 312 318 313 313 315 313 310 311 314 313 312 311 307 312 316 317 317 311 317 316 315 317 317 316 316 316 313 313 314 314 316 317 314
308 304 307 310 310 310 308 308 308 308 308 314 314 314 315 317 315 311 311 312 311 312 315 312 313 310 309 314 315 313 315 310 311 311 313 315 317 318 317 318 317 313 313 316 314 312 311
304 305 307 309 310 310 309 308 308 308 308 309 313 311 314 316 315 312 313 312 312 312 312 310 311 311 308 311 309 310 312 308 310 316 309 314 314 318 317 316 313 311 311 310 309 309 309

GFSGBSN_925_thetae_078.txt.gz
Theta_e
312 308 308 310 311 311 311 311 312 313 313 311 309 308 309 308 307 307 307 306 306 306 306 305 307 309 318 319 315 327 316 313 329 330 329 329 335 337 345 349 350 356 353 346 344 355 355
307 307 308 309 310 311 312 312 313 313 311 310 308 308 307 308 307 306 306 306 306 306 306 305 307 310 317 316 322 324 320 321 329 326 325 326 329 334 340 348 350 349 349 342 340 349 353
307 308 309 311 312 312 312 312 312 311 310 309 309 308 309 307 307 307 308 307 307 306 306 305 308 318 317 316 326 321 328 326 325 323 324 325 327 333 339 344 345 346 344 344 347 344 352
308 310 312 313 312 312 312 312 312 312 312 312 310 310 311 311 310 309 309 307 310 310 307 306 310 321 321 322 326 322 327 329 322 323 324 327 329 334 339 342 343 346 341 343 352 350 353
310 310 311 313 312 312 311 311 312 312 312 311 310 309 311 312 312 310 307 315 313 308 307 310 321 323 321 326 327 323 324 326 322 321 323 326 329 334 338 341 344 345 350 341 356 355 358
308 309 311 312 312 312 311 311 312 311 310 309 309 311 313 312 311 309 307 312 316 320 320 321 322 322 323 324 326 322 321 322 322 321 321 325 331 333 337 341 343 351 346 339 354 359 358
306 308 310 312 312 311 311 311 310 310 309 310 310 312 312 311 310 306 313 317 319 324 318 318 317 320 322 323 325 324 323 321 322 322 322 323 330 331 332 339 339 344 343 343 345 356 355
305 306 311 312 311 311 311 311 309 309 310 311 313 313 312 311 307 308 312 317 316 314 317 318 317 318 318 323 325 325 325 326 323 324 323 323 327 326 330 338 337 339 340 338 334 340 340
305 306 309 311 311 311 310 309 310 311 312 313 313 312 311 308 308 311 314 314 313 313 318 317 317 317 319 319 323 326 326 327 323 324 323 323 325 327 334 339 337 339 343 337 337 334 344
305 306 308 310 311 310 309 310 311 312 313 313 313 312 310 309 311 314 315 313 313 313 317 316 315 316 318 320 319 325 324 326 323 323 324 322 329 330 335 336 336 338 338 335 333 335 345
306 305 308 311 310 309 310 312 313 314 314 314 313 313 311 310 315 317 314 314 312 313 318 314 316 316 320 320 321 324 324 326 325 323 324 326 331 333 335 335 334 335 336 336 334 335 334
307 305 308 311 310 309 311 312 313 314 314 315 314 314 314 313 313 314 313 314 312 318 320 316 316 318 318 318 319 325 327 323 327 324 324 328 329 335 334 332 333 333 333 334 334 334 336
312 305 307 311 309 310 312 313 314 314 314 315 315 314 314 314 318 315 316 317 318 320 318 316 316 317 317 318 319 322 325 324 329 327 328 329 332 329 329 335 334 332 332 336 338 333 334
317 305 307 310 309 311 312 314 314 314 314 316 317 314 315 314 314 315 317 320 321 319 319 317 315 316 316 318 320 322 323 325 323 326 327 327 329 327 321 329 333 333 331 332 337 333 333
321 306 307 311 310 312 313 314 315 315 315 316 317 318 318 315 314 315 320 321 320 319 317 317 316 316 317 318 320 323 322 322 319 322 328 329 323 318 318 319 323 332 332 329 332 331 333
323 307 307 311 309 312 313 314 315 314 315 316 320 320 318 314 314 316 321 319 319 317 316 317 318 317 318 319 321 323 322 318 319 318 319 325 323 319 317 318 321 327 329 330 330 334 336
323 308 307 311 309 312 313 314 315 314 315 316 319 320 317 315 315 321 321 320 318 317 316 318 318 319 318 319 320 320 319 318 318 318 319 321 323 320 319 322 324 324 327 328 329 329 333
323 309 307 311 309 312 313 315 315 314 315 318 319 320 316 315 322 320 320 318 313 316 317 317 317 317 319 318 319 320 320 318 317 318 320 319 322 322 321 316 316 320 324 327 330 331 330
323 310 307 311 309 312 313 315 316 315 314 318 319 317 316 317 321 320 318 317 315 317 315 316 317 317 316 318 320 319 317 315 318 319 321 318 322 322 319 318 318 322 320 322 324 328 331
323 313 306 311 309 312 313 315 316 315 314 315 317 317 318 318 318 320 320 319 317 314 316 316 316 317 319 318 319 318 317 315 316 318 317 318 320 323 323 323 321 321 319 319 323 329 331
323 316 306 311 309 311 313 314 315 315 314 316 317 316 315 317 318 318 318 316 316 316 315 315 317 317 319 320 319 319 317 316 316 316 317 320 323 321 319 318 319 318 318 318 322 324 328
323 317 306 310 310 310 313 314 315 315 316 315 318 316 315 315 315 316 313 316 314 315 315 314 317 317 319 320 320 320 319 320 318 317 318 318 322 320 320 317 317 317 317 317 316 318 322
322 312 306 310 310 308 312 314 315 315 317 317 316 313 316 311 314 314 314 314 314 314 313 313 313 316 317 316 315 315 315 316 316 318 319 319 320 320 319 316 315 315 316 316 317 318 319
321 308 305 309 311 308 310 313 315 315 317 318 316 316 317 315 315 315 315 314 315 315 315 314 314 315 313 312 313 314 315 315 315 315 315 319 320 318 319 316 315 318 317 316 317 320 320
321 309 306 309 310 309 309 312 311 315 315 318 318 317 317 317 316 316 315 314 314 315 315 314 313 313 312 314 315 316 316 316 315 314 314 316 317 317 318 316 316 315 315 316 319 321 320
319 315 305 308 310 310 308 309 311 309 315 318 317 317 318 318 317 315 316 316 315 315 316 314 314 311 313 315 317 320 318 320 319 317 314 314 317 318 316 318 317 319 318 317 317 322 320
317 308 305 308 311 310 308 308 308 309 310 317 317 317 318 319 317 316 316 315 315 315 315 315 315 313 313 315 321 321 322 318 321 319 319 318 317 319 318 319 316 317 317 316 315 323 319
315 304 305 308 311 311 310 308 308 308 308 313 316 314 319 318 318 316 315 315 315 316 316 316 315 313 313 318 319 319 321 319 320 318 318 320 322 322 320 320 321 317 316 317 320 318 316
307 304 305 308 310 311 310 308 308 308 309 309 315 313 315 319 320 317 316 316 316 315 315 315 315 313 312 317 317 317 319 316 319 322 314 320 318 321 318 320 319 317 318 316 315 315 314

GFSGBSN_925_thetae_081.txt.gz
Theta_e
308 311 313 314 314 314 314 314 313 314 311 310 309 308 307 306 307 308 307 306 306 306 306 306 306 308 319 322 320 328 320 310 320 334 334 331 338 344 348 350 354 358 353 348 351 352 357
308 309 310 312 312 313 313 313 313 313 313 313 312 312 310 308 306 306 309 307 307 307 306 306 306 308 320 320 321 327 322 318 322 331 331 330 336 340 342 350 352 353 354 346 346 347 358
308 309 311 311 312 312 312 312 313 313 313 313 313 313 310 308 311 310 311 309 307 307 306 306 306 315 321 320 324 322 321 320 326 329 330 327 329 334 339 347 351 351 350 345 347 351 356
308 309 311 313 313 313 312 312 312 312 312 311 311 309 310 310 309 310 309 308 312 309 309 306 308 319 326 318 324 323 322 323 328 326 325 326 326 330 337 343 347 352 350 350 348 349 354
306 307 311 313 313 312 312 312 312 311 311 311 310 310 311 312 312 311 308 310 314 308 307 307 318 323 323 323 327 324 328 326 326 325 324 326 330 330 337 343 347 350 352 348 352 352 356
306 307 311 313 312 312 312 312 312 310 310 310 311 312 312 312 312 308 306 312 319 321 319 320 322 321 323 323 325 326 327 327 324 325 326 328 330 331 337 343 346 349 349 347 353 355 356
306 306 310 312 312 311 311 310 310 310 311 312 313 313 313 312 311 307 313 319 324 328 322 324 321 321 322 321 325 324 325 326 324 324 326 325 331 331 334 336 339 341 344 351 352 351 358
306 306 308 311 311 310 310 310 311 311 312 313 313 313 312 310 308 306 314 321 318 317 319 321 319 318 322 325 326 326 323 326 325 325 325 325 329 331 331 334 339 342 345 341 347 349 358
307 306 307 310 311 310 310 312 312 313 313 314 312 312 310 309 309 314 318 317 316 317 319 320 320 318 321 324 325 326 325 325 326 325 326 326 326 328 329 332 340 343 344 341 341 345 344
313 306 307 310 310 310 311 312 313 314 314 314 313 312 310 309 312 317 318 316 317 317 320 320 319 319 319 321 323 325 325 326 326 327 326 326 327 327 327 332 338 342 340 338 339 340 346
321 307 307 310 309 311 312 312 314 314 314 315 314 313 313 310 317 318 317 317 317 317 322 317 318 318 320 321 323 326 324 327 327 324 326 326 326 327 330 334 336 335 338 340 337 338 343
323 309 307 311 309 311 312 313 314 314 314 315 314 314 314 316 316 316 315 317 317 318 322 318 318 318 320 321 322 325 325 326 326 324 325 327 325 331 331 333 333 333 336 338 338 337 340
323 314 307 311 309 312 313 314 315 314 314 315 316 314 314 316 320 319 317 319 321 323 323 318 318 318 321 321 322 325 325 327 328 327 326 327 328 332 331 333 333 334 338 341 340 338 337
323 318 306 311 309 312 313 314 315 314 314 315 316 316 318 318 319 318 319 322 326 324 321 319 318 319 320 320 321 325 327 328 327 327 325 329 334 333 334 334 335 334 336 337 339 336 334
323 321 306 311 309 312 313 314 315 314 315 315 316 319 320 320 318 319 322 327 327 321 319 318 317 319 319 320 322 325 327 326 327 328 327 330 332 329 332 333 331 335 336 331 333 333 332
323 322 306 311 309 312 313 315 315 314 314 315 320 321 322 319 319 320 323 325 322 319 319 318 318 319 320 321 323 324 325 324 325 324 325 328 331 327 324 325 328 330 333 334 332 337 335
323 323 306 310 309 312 313 315 315 315 314 316 320 322 321 319 319 323 328 323 320 319 319 319 319 321 320 320 322 325 325 322 322 324 325 328 329 326 324 326 329 330 332 333 332 334 335
323 323 307 309 309 312 313 315 315 315 313 318 321 321 319 319 322 322 323 322 315 320 319 319 318 321 321 322 324 325 323 322 320 322 326 326 327 327 326 325 323 326 330 332 334 335 333
323 323 309 309 310 311 313 314 315 314 314 317 322 318 318 318 323 322 321 320 319 320 319 320 319 318 320 322 321 321 321 318 321 322 325 324 325 327 326 324 324 325 327 329 330 331 334
324 323 314 308 311 310 313 314 315 315 314 315 320 320 319 319 321 321 322 322 320 317 319 319 320 318 320 320 322 322 319 318 319 319 322 323 325 326 327 326 325 327 326 326 328 331 332
322 323 314 308 311 309 312 314 314 315 316 317 319 317 319 320 319 320 320 318 319 319 318 319 321 321 320 319 321 322 320 320 319 318 322 323 324 325 323 323 324 325 325 324 327 329 331
321 322 306 308 311 308 312 314 314 314 317 318 321 319 316 317 318 317 314 318 317 317 318 318 321 320 321 321 323 321 321 321 322 320 322 321 324 324 322 320 321 321 321 321 324 325 328
322 319 307 308 311 308 311 313 315 314 319 319 318 316 319 313 317 317 317 317 316 316 315 316 318 321 322 320 320 321 321 321 322 323 321 322 323 323 321 321 318 319 320 320 321 322 327
320 320 307 307 311 310 310 312 313 314 318 319 319 320 320 317 318 317 316 316 317 317 316 315 316 318 317 317 318 319 319 320 320 319 320 322 323 322 321 322 320 322 320 319 320 321 324
320 319 312 307 311 310 308 311 310 311 316 320 319 321 321 318 318 318 316 316 316 316 316 316 315 316 315 317 318 319 319 319 318 317 318 320 323 321 321 322 320 319 319 318 319 323 323
317 317 308 307 311 311 308 308 310 309 312 319 319 321 321 321 318 317 318 318 318 317 317 316 315 314 316 318 319 322 320 319 322 318 316 316 320 321 321 321 321 322 320 320 319 325 322
316 314 305 308 310 311 309 308 308 309 309 316 318 319 322 321 318 318 320 319 317 317 318 317 316 315 317 319 323 325 328 324 324 321 321 319 320 320 320 321 321 322 320 318 320 326 322
315 305 305 308 310 311 310 308 308 308 308 312 318 316 320 321 320 318 317 317 316 319 319 318 316 316 316 321 322 323 325 324 325 323 322 322 324 323 321 322 322 320 318 319 325 322 321
309 304 305 307 310 311 311 310 309 310 311 313 318 318 317 322 323 318 317 318 318 318 318 317 318 315 316 319 319 320 324 322 323 325 319 323 321 325 321 327 323 320 321 322 321 320 318

GFSGBSN_925_thetae_084.txt.gz
Theta_e
310 311 312 314 315 314 314 314 314 314 314 314 314 313 311 310 309 307 307 308 307 307 307 306 306 306 316 324 320 327 320 316 313 324 337 336 338 346 350 353 356 362 355 356 357 355 354
308 308 311 312 314 314 314 313 313 313 313 314 314 314 312 311 310 310 310 310 308 307 307 306 306 307 319 321 323 328 323 315 318 328 337 333 334 342 346 348 354 353 353 349 351 357 355
306 307 311 313 315 313 313 312 312 312 312 312 312 311 311 311 311 312 311 309 308 308 307 307 306 316 320 321 321 326 322 318 320 327 336 332 331 340 341 346 351 351 357 348 351 358 359
306 307 311 314 314 313 312 312 312 311 311 310 310 310 311 311 312 312 311 308 308 310 310 307 306 319 321 321 319 324 322 320 321 325 331 330 330 332 337 340 352 355 353 351 350 356 357
306 306 309 314 313 312 312 312 311 310 310 310 311 311 312 313 313 311 308 306 311 308 308 306 317 322 324 324 320 324 321 322 325 329 328 327 327 328 332 339 348 352 356 353 351 354 358
307 306 308 312 312 312 310 310 310 310 311 312 313 314 313 313 311 307 306 309 317 322 313 317 321 324 321 328 320 323 327 325 328 328 327 326 327 331 332 339 349 349 349 351 353 355 358
310 306 307 311 312 311 310 311 311 311 312 313 313 312 311 309 308 307 310 319 323 327 325 326 325 325 323 324 323 325 327 327 327 327 328 328 330 331 332 336 342 343 345 353 352 350 359
320 307 306 310 311 310 311 312 312 313 313 313 314 312 311 308 309 307 310 323 319 318 319 325 324 321 322 322 326 326 327 328 325 327 328 329 330 328 329 333 337 340 342 348 349 350 361
323 312 306 310 309 310 312 312 313 314 314 314 314 312 310 309 309 310 318 318 316 317 318 319 320 322 322 325 327 325 326 326 325 326 326 328 326 327 329 330 334 337 341 346 350 347 349
323 318 306 310 309 311 312 313 314 314 314 314 314 313 311 310 312 319 320 317 318 317 319 320 320 321 320 323 327 326 324 326 326 325 325 326 326 326 330 330 332 337 339 345 350 353 363
323 322 307 309 309 311 312 313 314 315 313 314 315 314 314 311 315 319 319 316 318 318 322 320 320 320 320 321 324 325 326 325 326 326 325 326 326 326 328 329 330 337 339 342 340 341 340
323 323 308 309 309 311 313 313 314 314 314 314 315 314 314 317 315 317 316 317 319 319 323 321 319 319 319 320 322 324 327 326 325 328 325 327 326 327 327 328 329 335 338 340 341 339 339
323 323 311 308 310 311 313 314 315 314 314 314 315 316 314 316 321 320 319 319 322 322 326 322 319 319 318 320 322 324 327 327 328 329 327 325 327 326 328 329 332 335 336 340 344 343 340
323 323 315 308 310 311 313 314 315 315 314 315 315 316 317 316 320 320 320 323 328 328 327 323 320 319 318 320 322 323 326 327 327 327 325 327 327 327 330 331 333 334 334 339 343 339 338
322 323 317 307 311 310 313 314 315 315 315 314 315 318 319 322 322 320 322 329 328 326 322 321 320 319 320 321 321 323 325 326 325 327 329 326 327 328 329 331 333 334 336 336 337 336 336
323 323 320 307 311 310 313 314 315 314 314 313 317 321 324 322 320 321 326 326 327 324 320 319 320 320 322 322 322 323 325 326 327 326 327 328 327 330 331 332 334 335 333 336 337 341 339
323 322 322 307 311 309 312 314 315 315 313 313 318 324 323 322 319 323 329 326 324 319 319 321 320 322 324 324 326 327 329 327 326 326 327 327 332 335 332 333 334 333 333 334 334 335 336
322 323 323 308 310 309 312 314 315 315 313 316 322 325 322 319 319 325 327 326 315 320 318 321 320 321 324 324 327 327 329 326 322 323 326 327 333 335 330 328 329 331 333 334 336 340 336
322 323 323 309 310 309 312 314 315 315 316 316 325 320 318 318 324 330 325 320 320 320 320 320 320 319 321 325 324 325 326 324 321 323 326 327 330 333 329 326 326 327 328 330 332 334 339
321 322 323 308 310 310 311 313 314 314 316 316 324 320 321 319 320 323 324 323 322 319 319 320 320 319 318 322 323 323 320 320 320 321 327 326 326 333 330 327 326 327 327 329 330 333 335
322 322 318 306 310 310 310 313 314 314 317 318 323 318 319 320 320 320 320 321 320 320 319 320 322 318 318 322 321 321 320 320 320 321 323 323 326 328 329 324 326 326 326 327 329 330 348
322 322 316 307 310 311 310 312 313 313 318 322 320 322 317 318 319 318 314 318 318 317 319 319 321 322 320 320 322 322 321 322 324 321 323 322 326 327 324 322 324 325 325 326 326 328 335
320 321 320 307 309 311 309 312 311 314 320 321 320 318 321 314 319 319 318 318 317 317 315 318 321 323 324 321 322 322 321 322 323 324 324 324 325 326 326 322 321 324 324 323 324 325 341
317 321 321 311 309 311 309 311 310 311 316 321 320 323 324 318 319 318 317 318 318 318 317 316 318 321 319 318 319 320 320 321 321 321 321 324 324 324 324 324 324 323 322 321 322 323 333
319 319 320 306 309 311 309 309 311 311 312 317 319 324 325 320 318 318 316 316 317 317 317 316 316 317 316 318 320 321 321 321 321 321 320 320 324 324 323 323 323 322 321 320 321 322 330
317 318 311 306 310 311 310 308 309 309 310 316 320 320 326 324 319 317 318 319 320 318 318 317 316 316 317 319 320 322 321 321 321 320 318 319 322 325 323 322 323 324 321 321 319 323 325
317 313 305 307 310 311 310 308 308 309 309 311 321 318 324 327 319 320 322 321 318 319 319 318 317 317 318 321 323 326 332 326 328 322 321 318 320 322 322 322 324 323 320 319 320 325 325
314 305 305 307 310 311 311 309 308 309 310 311 321 318 320 325 321 318 317 318 317 320 322 320 318 318 318 323 323 327 328 330 327 326 325 322 322 322 320 322 325 322 319 320 328 325 323
314 304 305 307 308 311 312 311 312 313 313 315 321 320 320 323 324 318 318 319 319 319 320 317 319 318 318 322 320 322 326 323 323 327 321 326 325 331 325 330 324 323 326 324 323 323 322

GFSGBSN_925_thetae_087.txt.gz
Theta_e
307 308 312 315 315 315 314 314 314 314 314 314 314 311 312 311 309 311 310 309 308 308 307 307 306 306 314 322 319 323 319 318 317 316 322 336 339 338 348 350 355 350 355 358 355 354 354
306 307 309 313 315 314 314 314 314 314 314 314 313 313 311 310 311 312 313 310 309 308 307 307 307 306 319 316 327 323 319 317 313 318 325 336 339 335 345 347 357 356 355 358 355 354 353
306 306 309 314 314 314 313 312 312 312 312 310 311 312 313 313 312 313 313 310 308 307 309 309 309 314 319 318 326 326 321 315 315 318 333 337 338 331 340 343 349 354 357 353 357 356 357
307 306 307 313 314 313 312 311 310 310 310 311 312 312 314 313 313 313 312 309 306 310 310 312 307 318 319 316 321 323 322 319 316 320 333 336 334 328 330 334 345 352 356 362 356 358 358
315 307 306 311 313 312 311 310 311 312 312 313 314 314 314 314 313 311 308 306 310 309 309 307 312 320 322 322 320 319 323 321 318 322 325 329 330 327 327 330 336 350 358 358 354 358 359
322 311 306 308 312 312 311 311 312 313 313 314 313 312 312 312 311 308 306 307 313 321 315 316 317 321 322 325 323 320 322 321 319 323 325 328 324 324 324 326 337 350 355 356 356 360 359
322 319 307 308 310 310 311 312 312 313 313 314 313 311 310 310 309 308 306 319 320 321 324 321 319 326 324 323 322 321 324 322 324 328 327 325 323 324 326 327 330 338 345 354 354 357 363
322 322 308 308 309 311 311 312 313 314 314 314 314 312 310 309 310 309 307 319 322 316 316 323 323 323 324 322 322 323 325 326 326 327 325 324 325 326 328 330 331 332 340 349 355 358 357
323 323 312 308 310 310 312 313 313 314 314 313 314 314 312 311 311 311 312 318 319 317 316 317 317 324 322 320 324 324 324 327 325 325 326 326 327 328 329 327 329 330 336 342 353 355 351
323 323 317 307 310 309 312 313 314 314 314 313 314 315 314 312 313 315 318 320 320 318 315 318 317 318 321 321 325 326 325 326 325 323 324 325 326 327 327 326 326 327 331 336 348 351 355
323 323 322 307 311 309 312 313 314 314 314 313 314 315 314 313 312 315 317 316 317 318 320 320 318 320 319 320 323 326 324 324 325 324 323 323 324 324 325 326 327 328 333 344 347 348 352
324 323 323 308 310 309 312 313 314 315 314 314 314 314 315 317 317 320 321 320 318 319 323 325 319 319 318 318 319 322 324 323 323 324 324 323 323 323 324 325 326 328 328 342 342 348 354
322 322 323 310 309 309 311 313 314 315 314 314 314 314 314 315 317 319 320 318 321 322 326 326 324 322 317 317 318 319 325 325 325 324 324 326 324 324 324 325 324 325 327 339 345 346 344
320 321 322 314 308 310 310 313 314 315 314 314 313 313 315 316 317 319 321 320 328 326 325 324 324 323 322 317 318 320 323 325 325 325 325 327 324 323 325 323 324 325 331 335 346 344 338
320 321 323 318 307 311 310 312 313 314 315 314 312 316 318 317 319 320 321 329 330 325 324 323 320 319 320 319 320 320 323 325 325 324 325 324 324 324 325 327 328 328 332 330 331 334 334
321 322 323 322 307 311 310 312 313 314 314 315 313 318 318 321 322 323 325 324 327 324 324 321 320 323 326 324 326 329 327 325 325 325 326 328 330 324 325 327 329 328 332 331 329 338 339
321 322 323 323 308 311 309 312 313 314 314 315 317 320 323 323 323 324 327 326 324 323 323 320 321 323 324 326 326 329 332 328 325 326 324 325 329 329 327 325 329 333 333 332 329 332 335
321 321 322 322 308 311 309 312 313 314 314 317 318 325 323 322 323 325 327 325 322 321 318 320 320 322 327 328 327 330 330 327 324 324 323 328 326 331 332 332 331 333 332 331 331 333 337
320 321 322 318 307 311 309 311 312 313 315 316 321 325 320 317 325 328 326 324 325 321 320 320 320 319 322 327 328 325 327 324 324 323 323 327 327 332 331 330 327 328 329 328 327 328 332
320 322 322 309 308 311 309 311 311 312 315 317 323 326 321 320 322 323 324 325 323 319 319 320 320 319 318 323 323 324 324 322 320 323 326 324 325 331 334 330 326 326 326 325 326 328 344
320 322 322 318 308 311 310 311 311 312 316 317 325 321 317 318 318 318 319 320 319 320 319 320 323 322 319 323 323 323 321 320 319 321 323 324 327 325 328 329 328 325 325 326 327 343 350
319 321 322 321 308 310 311 310 311 311 320 324 321 320 321 317 320 320 317 318 318 316 317 319 322 322 320 322 322 325 322 321 323 322 322 321 325 326 330 328 323 323 325 326 326 340 344
316 318 321 321 312 310 311 309 311 311 316 323 323 322 326 323 319 317 317 317 316 319 317 316 319 325 322 321 320 319 318 319 322 323 324 324 325 327 328 323 322 325 324 323 327 340 343
318 319 320 320 307 311 311 308 310 310 309 315 322 321 327 325 318 318 316 316 317 318 319 317 318 322 318 317 318 318 318 319 321 320 318 325 326 325 326 324 327 323 320 321 323 341 340
318 318 319 307 308 311 311 308 309 309 310 311 320 322 328 329 318 317 317 318 318 317 316 316 316 316 315 316 319 322 320 321 321 321 319 318 324 325 324 322 323 323 322 321 330 342 339
318 317 307 306 309 311 311 308 308 309 309 312 320 318 325 331 318 317 319 319 321 319 319 317 316 315 316 318 320 324 326 330 326 321 317 316 322 324 325 326 326 324 320 318 321 342 336
317 306 305 307 309 312 311 309 308 309 310 311 319 319 323 329 319 321 322 321 320 322 320 318 317 317 316 322 324 330 331 330 331 329 320 318 321 321 322 325 326 322 319 318 323 331 332
318 308 305 307 308 311 312 312 312 313 313 315 320 320 321 325 322 319 319 322 322 321 321 320 319 319 319 325 328 329 329 331 328 325 325 325 322 323 321 325 329 327 325 329 328 322 324
318 312 305 307 308 310 312 313 313 313 313 316 323 321 320 324 325 319 319 318 319 318 319 318 318 320 317 326 325 326 328 324 323 328 322 326 324 329 330 328 325 324 324 322 320 322 320

GFSGBSN_925_thetae_090.txt.gz
Theta_e
306 306 311 314 315 315 313 312 312 314 314 314 313 311 311 312 312 313 313 310 309 309 310 309 307 306 315 320 316 319 320 315 318 319 318 320 332 337 341 347 358 361 358 358 356 354 355
308 307 307 312 313 314 314 313 312 313 313 312 311 311 313 313 313 314 314 312 310 308 307 311 312 306 317 312 316 322 319 316 318 317 318 323 337 337 336 343 354 354 358 358 355 353 352
316 308 306 308 311 311 312 311 310 310 311 311 312 315 315 313 313 315 314 310 309 306 308 311 317 313 318 313 323 323 319 318 317 314 323 320 331 337 334 333 351 352 357 358 356 355 354
322 314 307 308 309 311 311 311 312 312 312 312 314 314 314 314 313 313 310 307 305 309 310 317 317 318 315 313 314 323 321 318 314 314 318 331 332 333 330 327 330 355 358 363 357 356 355
322 321 309 308 310 309 311 312 312 312 313 313 313 314 313 312 310 308 306 305 309 314 308 311 313 319 317 320 318 319 323 319 314 315 318 324 327 327 326 327 328 340 359 360 362 356 357
321 322 313 307 310 310 311 312 312 313 313 313 313 313 313 311 309 308 305 311 311 317 317 316 317 319 319 323 319 320 322 321 316 317 320 322 323 324 320 322 329 334 353 356 358 360 359
321 322 319 307 310 310 311 312 313 313 314 313 313 313 312 310 310 309 308 316 318 320 319 314 315 322 323 322 322 319 322 320 317 321 322 325 321 322 322 322 325 328 330 335 357 357 352
322 322 322 308 309 309 311 312 313 313 314 313 313 314 313 311 310 310 310 314 319 316 311 321 319 320 321 321 321 319 320 318 320 324 326 323 322 321 324 325 327 329 331 351 359 350 352
323 323 323 312 308 309 310 312 313 313 314 314 313 314 314 314 313 311 311 315 317 316 314 314 320 321 321 320 321 319 320 322 324 325 325 323 322 323 326 326 328 327 330 337 358 351 350
323 323 322 318 307 310 309 312 313 313 314 314 313 313 315 314 313 314 313 317 318 317 311 314 316 316 317 320 320 322 323 324 324 324 323 323 324 326 325 327 326 324 325 328 357 355 358
321 321 322 321 307 310 309 312 313 313 314 314 313 313 314 314 314 313 318 319 318 313 318 322 315 318 317 317 322 324 324 323 326 322 320 321 324 324 325 327 325 324 325 327 351 350 351
319 320 321 322 308 309 309 311 313 313 314 314 313 313 313 315 316 317 317 318 317 315 319 325 319 321 318 316 319 319 322 322 322 323 322 321 321 321 323 323 322 323 326 338 346 350 354
318 319 320 322 311 308 310 311 312 313 314 313 314 313 311 313 315 316 316 314 316 320 323 325 323 322 319 316 317 316 320 322 321 323 321 321 323 322 321 321 320 322 323 332 342 350 351
320 320 320 323 318 308 310 310 312 313 313 313 313 312 313 314 315 315 317 317 326 325 324 321 322 316 320 316 315 316 318 322 321 321 321 324 325 323 322 321 321 321 322 332 343 346 346
321 321 322 323 322 308 310 310 312 313 313 314 314 313 317 314 317 318 316 322 326 324 323 323 319 318 321 321 324 324 325 321 322 320 323 324 324 323 322 321 321 322 327 325 333 337 333
320 321 321 322 321 308 311 309 312 312 313 315 315 315 317 318 321 320 316 320 322 323 322 322 319 322 324 323 324 327 329 326 325 322 320 322 325 324 325 321 322 324 325 330 325 334 336
320 321 322 322 310 309 311 309 312 311 313 316 317 313 320 318 322 314 320 320 323 321 321 320 319 322 324 325 326 328 330 327 323 322 320 323 323 325 327 323 323 326 328 326 325 327 334
320 321 321 313 307 309 311 309 311 310 312 317 315 318 319 322 318 317 319 323 321 322 320 318 318 324 326 327 326 328 330 326 324 322 322 322 321 326 328 327 325 327 328 326 328 330 336
321 320 322 322 310 309 311 309 311 310 310 315 315 315 320 320 319 320 321 323 323 324 320 319 319 319 322 324 324 326 327 325 324 321 321 319 322 327 327 325 324 324 327 324 322 323 331
319 320 321 322 317 308 311 309 311 310 310 316 315 319 311 310 314 317 322 324 322 321 320 319 319 317 318 322 322 322 325 324 322 321 330 323 321 324 327 325 324 326 325 323 320 324 347
315 317 320 321 321 311 311 309 311 310 316 318 316 315 311 311 312 314 319 321 318 317 315 316 320 321 320 320 321 321 321 320 319 330 322 319 325 323 322 324 326 326 325 322 328 334 341
315 316 318 321 320 310 311 309 311 311 316 322 317 318 317 314 311 312 313 313 314 314 313 315 323 320 318 319 319 322 318 319 321 320 321 318 322 323 324 325 322 321 321 322 335 343 348
316 318 319 321 309 310 311 309 309 309 313 319 321 320 318 319 311 312 313 315 316 317 314 316 320 323 318 318 317 315 315 314 318 319 320 320 320 326 327 324 320 320 320 325 338 343 347
317 318 319 310 307 311 311 308 308 308 309 314 319 319 320 324 311 312 313 314 315 315 315 314 315 318 317 314 313 315 315 317 318 316 316 319 320 320 326 322 326 320 319 333 342 343 342
316 317 308 306 309 311 311 308 308 309 309 313 318 318 320 324 316 314 313 313 315 314 314 315 314 313 310 312 314 316 315 316 318 318 313 316 319 322 328 325 319 321 320 320 334 342 342
316 309 305 306 309 311 311 309 309 310 311 314 321 319 319 321 313 317 316 316 316 313 314 315 314 312 313 312 317 320 327 327 326 323 311 311 315 322 323 328 328 322 319 318 329 342 335
315 313 305 306 308 311 312 312 312 313 313 317 321 320 320 321 316 313 316 314 315 316 313 312 313 313 311 316 320 320 323 326 327 327 324 315 315 317 321 322 326 324 325 323 328 331 328
315 318 306 306 308 309 311 312 313 313 313 318 322 322 319 317 318 316 317 317 315 313 315 313 316 314 312 318 321 320 319 319 319 323 323 322 318 320 319 322 324 323 324 327 323 321 325
314 317 310 305 307 308 310 312 313 313 312 316 320 320 321 317 319 318 317 317 317 317 313 312 312 312 310 314 317 317 317 317 316 319 318 321 319 324 324 324 320 318 319 319 318 321 320

GFSGBSN_925_thetae_093.txt.gz
Theta_e
313 309 307 309 313 313 314 313 313 312 311 311 311 312 314 314 314 313 313 313 314 312 310 310 307 307 314 316 312 313 319 310 317 319 320 318 329 334 340 341 358 359 358 358 357 357 356
321 314 308 308 310 312 312 311 311 312 311 312 314 314 314 314 314 314 315 313 310 310 309 310 311 306 316 307 311 323 316 312 317 322 318 319 330 333 338 338 356 356 356 358 356 356 355
321 321 311 307 310 310 310 311 312 312 312 313 315 315 314 313 313 314 313 311 309 307 308 312 315 314 317 309 320 323 316 318 318 318 315 317 328 337 336 337 345 356 361 358 356 354 356
321 321 318 307 309 309 311 311 311 312 313 314 314 314 314 312 313 310 309 306 306 308 313 316 319 317 311 312 316 319 320 318 317 317 318 320 322 332 336 333 328 357 359 362 358 356 354
321 321 321 308 309 309 311 311 312 313 313 314 314 313 312 311 309 309 307 306 308 319 309 319 315 317 312 317 319 316 321 318 314 314 314 321 327 328 328 325 325 341 364 361 362 356 355
321 321 322 313 307 309 310 311 312 313 313 313 313 312 312 310 310 310 307 313 312 318 316 314 317 317 319 322 320 317 317 319 314 313 317 320 321 324 319 321 330 335 349 358 360 359 356
322 322 322 319 307 310 309 311 312 313 313 313 313 313 313 313 311 311 310 314 315 315 319 312 314 319 321 321 321 317 321 319 317 318 320 321 323 324 323 322 324 328 329 345 361 355 355
322 322 322 322 308 309 309 311 312 313 313 313 313 313 313 314 313 312 310 311 316 315 314 316 318 317 319 320 321 318 320 318 318 319 323 323 324 322 322 322 325 329 330 361 356 354 356
321 320 321 322 310 308 309 310 312 313 313 313 313 313 313 314 314 312 312 312 315 316 314 313 319 319 319 319 321 320 317 318 319 321 324 325 324 322 324 325 326 326 329 352 358 352 351
319 319 320 321 315 307 310 310 312 313 313 313 313 313 313 314 313 313 314 314 316 315 310 314 314 315 319 318 319 319 320 321 323 320 322 324 324 324 324 325 325 327 326 329 355 353 358
318 317 319 320 319 307 310 309 311 312 313 313 313 313 312 312 314 313 318 316 317 312 320 321 317 315 314 316 320 322 321 322 324 322 321 323 324 324 324 324 324 326 328 325 351 347 350
318 319 319 320 321 308 310 309 311 312 313 313 313 313 313 312 314 316 316 316 314 314 322 324 320 321 317 316 318 318 322 322 322 323 321 322 320 322 322 323 323 325 324 335 344 346 349
320 320 321 322 322 311 309 309 311 312 312 312 313 314 313 312 314 316 315 312 316 318 321 322 322 319 317 316 316 317 319 322 322 322 321 320 321 321 320 320 319 320 321 328 347 349 349
320 321 321 321 322 312 310 309 310 312 311 311 314 314 312 312 313 313 316 316 325 324 323 320 321 316 320 319 319 318 318 318 320 319 319 323 323 322 321 321 320 318 318 327 344 345 345
320 320 320 321 320 307 310 309 311 312 310 312 315 313 314 314 314 315 314 320 323 323 322 322 318 319 321 321 323 324 324 320 321 319 321 321 323 322 322 320 319 321 320 320 330 332 336
321 320 318 317 307 308 311 309 310 311 310 314 315 315 315 318 320 317 314 319 320 322 321 321 319 320 324 323 322 325 326 325 322 321 318 321 323 322 324 322 319 319 320 326 324 340 340
318 320 319 321 314 308 310 309 310 311 311 315 315 315 317 319 321 313 318 317 321 320 320 320 319 322 323 324 325 325 327 325 322 321 319 321 321 323 325 323 321 323 326 323 322 327 336
316 319 320 321 321 308 310 310 309 310 312 316 312 318 317 320 317 313 318 321 320 321 320 319 320 322 324 325 325 325 327 325 322 321 322 319 318 325 324 324 324 321 322 323 326 329 339
315 316 320 320 321 315 310 310 309 310 310 314 312 313 319 317 316 317 317 322 321 322 321 317 318 319 321 323 323 324 325 324 324 319 318 319 320 325 324 323 321 323 321 322 320 322 345
315 315 316 319 320 315 310 310 310 310 314 315 313 312 309 310 310 316 321 322 320 319 318 317 317 316 320 321 321 320 321 324 322 324 330 322 318 323 325 324 321 324 325 322 319 324 335
314 315 316 318 319 309 311 309 310 310 317 318 310 311 310 311 310 315 316 320 316 315 312 314 319 319 320 319 319 321 319 317 320 331 320 319 322 323 321 321 322 324 325 320 321 325 337
314 315 316 317 308 310 311 308 310 310 315 318 315 316 315 314 310 311 308 313 314 312 313 316 322 319 317 318 319 320 317 317 320 320 321 315 322 324 325 325 322 321 320 321 336 345 345
314 315 316 307 308 311 311 308 309 310 315 317 319 317 315 314 308 312 312 315 315 314 314 316 319 321 317 317 317 314 313 313 314 320 317 318 319 325 327 324 322 319 319 318 335 344 344
314 314 306 306 308 311 310 308 309 309 311 315 317 317 317 321 309 310 312 313 314 314 314 313 314 317 316 312 312 314 313 314 315 312 314 316 319 321 327 324 326 319 320 323 345 344 341
313 314 305 306 308 311 311 310 310 311 312 316 317 316 317 321 317 312 313 314 313 312 313 314 313 312 308 310 315 316 318 316 320 312 310 313 316 324 329 327 323 321 320 322 322 345 340
312 314 307 305 308 310 311 312 312 312 313 317 318 318 317 311 314 314 314 314 315 311 312 313 312 310 310 311 315 319 325 326 325 322 311 311 313 321 328 331 332 324 323 323 329 345 339
312 314 311 305 307 309 311 312 313 312 313 318 320 321 318 316 314 313 315 315 313 312 312 311 313 311 311 314 320 318 323 324 324 325 322 315 313 319 326 327 328 324 323 321 327 333 331
313 314 315 305 307 307 310 312 313 312 312 318 321 321 318 315 315 316 316 315 314 311 313 311 314 311 312 317 319 317 317 317 317 321 321 320 317 322 316 321 326 321 322 321 320 323 328
312 313 316 307 306 307 308 310 312 312 311 317 320 321 321 315 317 318 316 317 317 314 311 310 312 311 310 314 315 313 314 314 314 319 317 319 318 323 321 322 319 318 318 317 319 320 321

GFSGBSN_925_thetae_096.txt.gz
Theta_e
320 320 316 309 314 315 313 313 314 314 313 313 314 315 315 315 315 314 312 314 315 314 312 312 309 308 314 312 311 313 319 308 318 326 318 320 326 338 343 342 350 358 357 358 357 354 355
320 320 320 309 310 312 311 311 311 312 313 314 314 314 313 312 313 313 313 312 312 313 313 311 311 311 315 308 313 323 319 310 316 326 319 320 332 335 337 339 354 355 356 359 359 356 355
320 320 320 310 309 309 311 311 311 312 313 314 313 312 313 312 312 312 310 307 307 306 310 314 312 316 315 308 316 324 313 315 320 319 314 318 329 334 336 337 337 356 359 358 358 357 357
320 320 320 315 308 309 310 311 312 312 313 313 313 312 312 311 310 310 308 308 306 309 312 315 316 316 306 311 316 324 317 319 320 318 318 317 323 331 335 332 325 357 356 362 358 357 355
321 321 321 320 307 309 309 311 312 313 313 313 313 313 313 312 310 309 308 308 309 316 313 317 315 315 310 316 317 317 319 315 316 316 315 319 320 329 327 324 324 338 361 360 362 355 356
321 321 320 321 309 309 309 311 312 312 313 313 313 312 312 313 312 310 309 314 313 318 316 315 317 316 318 321 319 315 319 315 311 311 316 317 318 323 318 320 331 336 350 357 360 359 356
320 320 320 321 314 308 309 310 312 312 313 313 313 312 312 313 313 312 310 316 311 311 319 313 313 316 317 320 319 315 317 317 315 315 318 319 323 326 325 322 325 329 334 353 359 357 357
319 318 319 319 319 307 309 309 311 312 313 313 313 313 312 313 313 312 311 310 315 316 314 314 317 315 316 318 318 315 319 318 316 318 321 321 325 323 322 321 325 327 350 361 357 355 354
318 318 318 319 320 309 309 309 311 312 312 313 312 312 312 312 313 312 312 313 315 315 313 313 316 317 317 317 318 319 317 316 316 321 323 325 325 323 322 323 326 326 332 358 358 352 351
317 318 318 319 321 313 308 310 310 311 312 312 312 312 312 312 312 312 313 314 315 314 311 316 315 316 318 318 319 318 318 318 319 319 322 325 324 323 323 325 323 326 330 348 354 351 350
319 320 319 319 322 320 308 310 310 311 312 311 311 311 312 312 312 312 315 315 315 310 319 321 318 314 313 316 318 319 319 320 321 321 322 325 322 323 324 323 323 327 329 344 352 347 348
320 320 320 319 321 321 308 310 309 311 311 310 310 312 313 312 312 314 315 315 312 313 325 323 319 319 315 313 315 318 321 320 320 321 321 323 320 321 322 322 323 324 327 338 342 341 350
320 320 320 319 321 313 309 310 309 311 311 310 311 314 313 312 312 315 314 312 316 320 320 322 321 317 316 319 315 315 321 322 322 323 323 321 321 320 320 321 319 321 326 334 351 351 348
321 320 318 318 311 307 310 310 309 311 311 310 314 314 312 311 311 312 316 315 323 324 321 320 319 317 320 319 321 319 317 316 319 318 318 322 322 321 319 320 319 317 322 330 346 349 346
317 320 318 319 314 308 309 310 309 311 310 312 315 313 312 315 312 313 312 317 321 322 322 321 318 319 320 320 322 322 321 318 320 318 321 321 323 321 320 319 318 318 318 319 327 330 343
316 317 318 319 321 314 308 310 309 310 310 312 315 315 314 317 317 315 312 317 319 320 320 319 321 320 322 321 321 324 325 323 322 320 317 319 322 320 323 320 318 319 318 323 321 335 342
316 315 316 318 320 321 311 310 309 310 311 314 314 313 315 318 317 312 317 316 319 318 319 318 319 321 322 323 324 324 325 324 321 320 318 319 319 321 322 322 320 322 322 320 321 328 335
315 314 315 316 319 321 313 311 309 309 311 316 311 317 315 318 316 311 315 319 319 320 319 318 319 321 322 323 324 324 325 324 321 319 320 318 317 323 322 321 321 323 321 320 324 327 331
314 314 315 316 319 317 311 311 309 309 314 315 312 312 316 315 317 313 315 322 321 320 319 316 317 319 320 323 321 322 324 322 322 321 317 318 319 323 322 322 320 322 322 320 317 327 341
313 314 315 315 317 309 311 309 309 310 318 315 312 312 309 308 308 315 320 320 320 318 315 315 317 315 319 320 320 320 320 322 320 321 326 319 317 321 322 323 320 324 323 323 318 323 329
313 314 314 315 307 310 311 308 309 310 317 314 307 312 310 312 309 315 314 313 314 312 310 314 318 318 319 318 318 320 317 315 321 326 319 317 321 321 321 321 321 322 320 319 318 319 330
313 315 314 306 308 310 310 308 309 311 316 316 315 315 312 312 307 311 308 313 313 313 312 313 319 319 316 318 318 319 316 316 319 318 319 314 323 323 325 323 323 320 320 324 324 339 344
313 314 307 306 308 311 310 309 309 311 314 315 316 315 309 311 307 310 311 314 315 313 313 314 315 320 317 316 317 315 313 312 314 316 317 317 321 324 326 322 320 318 321 321 322 339 341
312 313 309 305 308 310 311 310 311 311 314 315 316 315 309 311 307 309 312 313 314 313 313 312 312 316 316 310 311 311 311 312 312 308 312 316 317 320 325 322 324 317 319 322 335 342 340
312 313 312 306 307 310 311 312 312 312 314 316 317 315 314 318 314 311 313 313 312 310 313 313 312 310 306 309 315 319 315 315 318 312 311 312 317 322 326 324 322 321 322 324 324 341 339
311 312 314 306 306 308 311 312 312 312 315 317 318 318 313 311 312 315 312 312 314 311 311 312 310 308 310 310 315 318 320 325 324 321 312 311 313 321 324 329 330 321 322 322 327 338 338
311 312 313 309 306 307 310 312 312 311 314 320 320 320 316 311 311 312 314 314 311 310 310 310 311 310 311 314 318 317 322 323 324 324 321 314 312 321 325 326 325 323 320 321 327 327 333
310 311 313 313 305 307 308 310 311 311 313 319 319 320 318 311 312 314 315 314 312 310 312 310 312 310 310 316 317 315 314 315 318 320 320 319 316 320 316 321 326 320 321 325 320 321 327
310 311 312 314 305 306 307 308 310 311 311 317 319 318 320 314 314 317 315 315 315 314 310 308 311 310 310 313 312 311 312 312 312 318 317 321 317 321 317 319 317 317 318 318 319 323 324

GFSGBSN_925_thetae_099.txt.gz
Theta_e
320 320 319 312 313 312 312 312 312 312 312 314 315 315 314 314 314 313 313 314 313 313 311 308 307 309 312 314 312 310 322 308 335 325 323 322 330 341 350 345 346 355 356 354 352 352 354
320 320 319 314 309 309 310 311 312 312 313 313 314 313 314 314 313 313 313 313 313 311 311 311 309 308 316 313 313 326 320 325 331 321 319 323 332 339 341 342 348 354 355 358 356 355 355
320 320 319 317 308 309 310 311 311 312 313 312 312 313 313 313 312 311 310 309 308 307 310 313 313 315 315 314 313 324 322 321 327 320 319 321 331 336 338 340 340 354 359 357 356 356 356
320 320 320 320 308 309 309 311 311 312 312 313 312 312 312 312 310 309 306 305 305 310 311 314 315 316 312 311 316 321 318 321 320 319 317 319 324 334 337 336 333 358 356 363 359 357 355
319 319 319 320 310 309 309 310 311 312 312 313 312 312 313 312 312 310 308 309 314 310 311 315 315 315 314 315 317 319 317 317 320 317 315 318 318 332 331 331 335 353 363 360 364 357 358
317 318 318 319 316 308 309 309 311 312 312 312 312 312 312 312 312 312 310 313 315 316 317 317 317 319 319 320 318 319 317 315 315 315 317 320 323 334 331 332 343 349 357 358 363 360 354
318 317 317 318 319 308 309 309 310 311 312 312 312 312 312 312 312 312 312 315 315 315 320 318 316 316 317 319 316 316 316 314 315 317 322 323 333 343 340 330 330 333 342 358 362 356 358
317 317 317 318 319 312 308 309 310 311 312 311 311 311 311 312 312 311 311 313 316 316 319 316 317 316 316 316 318 317 318 319 316 317 321 326 332 334 329 326 328 340 353 360 359 356 356
317 318 319 318 320 318 308 310 309 310 311 311 310 310 310 311 311 312 311 313 315 315 317 316 316 318 318 317 319 319 320 318 317 321 323 324 328 329 325 326 328 329 337 356 359 354 350
319 320 320 320 321 322 309 309 309 310 311 311 310 310 311 312 311 312 314 313 313 314 318 323 317 318 320 319 321 319 320 319 320 320 326 328 325 331 325 325 327 329 330 353 355 352 354
318 317 319 319 321 320 308 310 309 309 311 311 309 310 312 312 311 313 314 314 314 311 322 323 320 315 317 318 320 319 318 321 321 324 325 327 327 328 328 326 327 329 331 350 352 353 353
317 318 317 318 315 308 309 310 309 309 310 310 310 311 313 311 311 313 314 313 311 318 326 323 320 319 317 319 317 320 321 322 322 324 325 326 322 326 328 325 326 328 343 346 346 350 353
316 317 317 317 312 309 308 310 309 309 310 310 311 314 313 312 313 314 313 314 320 325 321 322 322 318 321 320 320 320 322 324 325 327 327 324 324 322 323 325 323 326 334 346 348 347 345
316 316 318 319 321 319 309 309 310 309 310 310 313 313 310 311 311 313 316 322 326 323 323 322 320 320 323 322 323 320 323 324 321 326 327 326 324 324 323 324 325 326 328 339 348 348 345
316 315 316 318 320 321 318 310 310 309 310 311 315 314 312 314 311 314 319 323 324 323 323 322 320 322 322 322 323 323 321 323 323 323 328 327 326 323 322 323 324 323 326 330 338 339 346
316 315 315 316 319 320 320 312 310 309 311 313 314 314 314 314 314 315 321 319 321 321 321 320 323 322 323 324 323 325 325 324 323 322 321 325 326 323 324 324 321 323 324 326 328 341 345
315 314 315 316 317 320 316 312 309 309 311 317 313 320 315 317 316 321 323 320 320 320 321 320 322 322 323 324 325 325 326 324 322 322 322 323 325 326 325 327 326 325 325 327 327 332 337
314 314 315 315 317 316 312 311 308 309 314 317 313 324 316 316 322 318 322 321 318 321 320 320 321 323 324 325 325 325 326 325 322 321 325 323 325 327 326 324 323 327 326 327 329 332 333
313 314 315 315 313 310 311 309 308 309 315 315 319 319 316 313 323 321 319 322 322 321 318 318 318 320 322 324 324 323 324 323 323 323 323 324 326 327 327 327 325 328 326 326 326 332 335
313 314 315 309 307 310 310 308 309 310 316 315 316 320 316 316 313 320 322 321 320 318 317 318 319 319 322 323 323 323 321 322 320 323 327 323 326 328 325 327 326 329 325 324 326 329 330
312 314 312 306 308 311 310 309 309 311 316 313 316 319 313 322 317 317 318 315 316 316 314 318 321 320 321 321 322 322 319 319 323 325 322 323 329 326 325 325 324 324 322 329 324 329 331
312 314 310 306 308 311 310 310 310 312 314 316 323 323 315 315 311 315 313 317 315 316 316 316 317 318 319 321 322 322 319 320 321 322 323 321 329 327 328 325 325 323 323 328 332 326 328
311 313 311 306 307 310 311 311 311 312 315 316 315 315 315 312 313 316 316 316 316 315 315 315 315 317 320 318 317 317 316 316 318 320 324 325 328 330 329 326 324 326 324 326 332 335 339
311 312 313 307 307 309 311 312 312 312 315 314 316 318 316 315 314 314 314 315 315 315 316 314 314 317 318 313 313 314 317 316 316 315 318 325 328 328 333 327 331 324 325 328 335 344 344
311 311 313 310 306 308 311 312 312 312 315 317 317 317 318 318 316 315 315 315 315 315 315 315 314 313 312 315 322 324 321 320 323 317 319 320 326 330 334 330 327 323 325 326 328 337 342
311 311 312 313 306 307 309 311 312 311 314 316 319 317 316 320 318 317 317 316 319 318 317 315 314 311 315 320 322 325 325 327 325 322 318 321 325 326 332 333 331 325 324 323 326 341 340
311 310 311 313 306 307 308 309 311 311 313 318 320 318 316 320 317 316 319 319 316 315 317 316 316 316 316 323 326 328 330 326 329 326 326 322 323 326 330 331 328 324 324 323 334 332 338
311 310 311 313 309 306 307 308 310 310 311 317 319 318 318 318 317 316 316 318 316 316 320 317 318 317 319 325 326 326 328 326 325 324 324 325 323 326 324 327 327 324 325 328 326 327 333
313 311 310 312 314 306 307 308 309 310 311 315 318 318 319 319 319 316 314 314 314 316 318 314 318 317 318 323 322 321 325 320 322 330 320 328 323 330 325 327 323 322 323 322 323 326 330

GFSGBSN_925_thetae_102.txt.gz
Theta_e
320 320 319 313 309 310 311 311 312 312 313 314 315 314 314 314 313 313 313 313 313 312 310 309 308 309 318 321 318 318 323 308 318 326 326 326 333 346 354 351 350 357 358 353 352 354 353
320 320 319 318 309 309 310 311 312 312 312 313 313 314 313 312 313 312 311 310 310 309 308 308 308 309 319 320 316 328 324 322 325 324 323 323 331 345 352 348 350 353 356 354 353 355 355
319 319 319 319 308 309 309 311 311 312 312 312 312 313 313 313 312 312 310 308 307 307 309 309 310 317 318 319 317 327 323 325 324 324 324 323 328 344 344 343 341 353 361 358 356 358 355
318 319 319 319 310 309 309 310 311 312 312 312 312 312 312 313 312 310 308 307 306 311 310 311 310 318 318 313 322 322 321 326 326 322 323 325 332 343 342 340 339 359 360 366 358 358 354
317 317 318 319 316 308 309 309 311 312 312 312 312 312 311 312 312 312 310 310 315 310 311 314 320 317 318 315 320 319 316 321 322 320 319 323 328 342 340 340 347 361 366 363 364 356 354
317 317 318 319 318 308 309 309 310 311 311 311 311 311 311 311 312 312 311 314 315 317 319 319 318 322 321 322 320 319 318 319 320 320 320 322 329 342 344 342 347 356 360 362 363 357 349
317 318 318 318 318 311 308 309 309 310 311 311 310 310 310 310 311 312 315 319 323 324 322 322 320 320 321 320 321 321 319 318 319 318 321 322 328 345 350 344 337 346 354 363 361 353 350
318 319 319 318 319 319 308 309 309 310 311 311 310 309 310 310 311 311 312 320 320 319 322 320 320 320 319 319 321 323 318 320 319 319 322 323 327 340 343 338 335 349 356 364 360 356 358
317 317 317 317 319 321 309 310 310 309 310 311 310 309 310 311 311 312 317 318 316 317 323 320 319 320 321 320 322 323 321 321 319 319 323 323 322 335 340 338 335 340 346 357 362 356 354
317 317 317 317 317 310 309 310 310 309 310 310 310 310 311 312 314 315 319 317 315 316 323 322 320 321 321 322 322 320 321 322 319 320 321 324 327 333 338 336 332 338 340 347 357 356 356
317 317 316 317 311 308 308 309 310 309 309 310 310 310 313 313 316 318 318 316 316 317 324 323 320 318 322 323 324 322 321 322 322 320 323 324 327 332 333 335 331 333 334 340 345 346 349
316 316 317 318 320 317 309 309 310 309 309 310 310 312 314 312 314 317 316 316 316 322 327 323 321 322 321 321 323 323 323 323 323 322 323 326 327 330 332 329 330 338 344 343 340 342 348
316 316 316 318 319 321 319 311 310 309 310 310 312 313 313 312 319 316 315 319 322 326 324 323 323 322 322 322 323 324 324 325 327 326 323 326 327 328 329 333 330 334 338 347 352 348 349
315 315 315 317 319 320 321 315 311 309 310 312 315 311 311 312 315 316 320 324 323 324 324 323 322 323 323 324 324 324 324 325 326 327 325 326 328 327 326 330 334 334 334 342 349 352 344
314 315 315 315 318 320 318 314 311 309 310 316 315 315 317 317 315 315 324 322 324 324 324 323 323 322 323 323 323 324 325 325 325 327 329 326 325 325 326 325 327 331 336 335 338 341 343
314 314 314 316 316 318 313 312 309 310 313 318 320 320 320 318 317 321 322 322 324 323 323 323 324 324 323 324 323 323 324 325 326 326 327 328 328 325 324 325 325 326 327 334 336 341 343
313 314 315 315 313 310 311 310 309 310 316 318 320 323 320 319 320 324 323 323 323 323 324 323 323 324 324 324 325 324 325 326 324 325 326 327 327 328 327 325 325 326 326 327 329 333 335
313 314 315 310 308 310 311 308 309 312 317 320 322 323 320 317 323 323 323 324 318 322 322 322 322 322 324 324 325 325 327 327 324 325 325 326 327 329 327 327 327 328 326 327 328 331 333
312 314 314 306 309 311 310 309 310 313 318 320 325 324 321 319 322 323 324 323 323 322 321 321 321 321 322 324 325 324 324 325 325 326 327 328 326 328 328 328 328 328 328 329 328 328 331
312 313 313 307 309 311 310 309 310 314 317 319 324 324 323 324 323 322 323 322 321 318 322 322 321 321 322 323 324 325 323 324 323 325 326 325 327 327 328 328 328 329 329 329 329 329 329
311 313 312 307 308 310 310 310 311 314 315 318 323 323 321 322 320 321 320 319 319 319 318 320 323 322 322 323 324 323 323 323 324 330 326 327 328 328 326 326 326 329 329 328 330 329 329
311 311 312 307 307 310 311 311 311 314 316 324 326 324 322 320 320 319 315 319 318 318 317 317 317 318 322 324 325 324 323 324 326 326 327 326 329 329 327 328 328 328 327 328 330 330 328
311 311 313 308 307 309 311 312 311 314 318 322 323 322 323 314 320 319 319 318 318 317 317 316 316 315 323 322 321 322 321 322 323 326 326 326 326 329 326 328 329 330 328 328 330 334 334
311 311 312 312 307 308 310 311 311 313 317 319 321 324 322 319 318 317 317 317 317 318 318 317 315 316 321 319 319 321 321 322 322 323 323 327 328 327 327 330 331 329 329 330 330 334 341
311 311 311 313 307 307 308 310 311 312 316 320 321 323 323 319 318 318 318 318 319 319 318 318 318 318 318 320 323 325 324 324 323 322 324 325 326 327 329 329 328 327 328 329 330 336 341
310 310 311 312 312 307 307 309 311 311 315 319 322 321 323 320 320 319 320 319 320 320 320 319 319 318 322 323 324 327 326 326 326 324 323 324 327 324 328 328 331 330 326 326 327 338 337
311 311 311 311 313 307 307 308 310 310 313 319 322 320 323 322 321 321 321 321 320 321 319 320 320 320 322 323 325 325 327 328 327 325 327 325 326 325 325 325 327 329 326 326 333 335 335
311 312 312 311 312 308 306 307 309 310 311 316 322 320 324 322 321 320 320 321 321 321 321 322 321 321 320 321 323 326 327 330 328 326 326 326 326 326 326 326 328 329 328 332 333 329 333
311 312 313 311 312 312 306 307 308 309 310 315 322 320 320 324 322 320 318 317 318 319 320 321 321 320 321 322 322 324 328 324 327 328 325 330 328 328 329 331 328 328 330 330 330 330 333

GFSGBSN_925_thetae_105.txt.gz
Theta_e
320 320 319 317 309 309 310 311 312 312 313 314 315 315 314 313 314 313 312 312 311 311 309 308 308 306 319 325 323 326 324 312 316 329 330 330 336 347 351 353 352 358 358 354 352 355 354
319 319 319 319 309 309 310 311 312 312 312 312 313 313 314 314 313 312 311 310 309 307 307 306 307 308 321 325 319 327 325 316 317 328 329 328 334 342 352 354 353 355 357 357 356 357 354
318 318 319 319 309 309 309 311 311 312 312 312 312 311 312 313 312 311 308 305 305 307 309 309 308 317 322 323 320 327 322 318 319 326 327 326 327 342 350 351 347 356 359 356 356 357 356
317 318 319 319 315 309 309 310 311 312 312 312 311 311 311 312 312 312 311 309 309 314 307 309 310 321 324 317 323 325 324 324 324 325 324 324 327 336 348 345 349 360 358 364 357 359 356
318 318 318 319 317 309 309 309 310 311 311 311 310 310 310 310 312 312 312 311 314 312 307 310 322 324 321 315 324 323 324 326 324 325 324 325 328 342 348 349 353 361 368 363 365 356 356
318 319 319 319 318 312 308 309 310 310 311 311 311 310 310 310 310 311 311 314 317 316 318 321 322 323 322 322 324 320 319 323 325 323 323 324 329 347 349 349 350 360 364 364 365 354 354
318 319 319 319 320 319 308 309 310 310 310 311 311 310 310 310 310 311 316 322 327 329 326 326 322 323 322 322 323 322 321 321 322 323 323 322 328 345 348 347 344 358 365 365 361 351 353
317 317 317 317 319 318 309 310 310 309 310 310 311 310 310 311 311 311 312 323 321 321 325 321 321 322 322 321 325 323 322 322 320 322 324 323 326 333 345 348 341 344 359 362 358 351 352
317 317 317 317 315 311 309 310 310 309 309 310 310 310 310 312 310 312 320 321 320 320 325 320 320 322 322 322 323 324 322 322 322 321 323 326 324 327 344 348 342 344 358 358 358 356 353
316 316 316 317 314 310 309 309 310 309 309 310 310 310 311 313 314 319 320 321 320 320 327 322 322 324 323 323 323 324 321 323 321 321 323 325 326 325 342 344 342 342 353 356 352 358 357
317 316 316 317 318 320 315 310 310 310 309 309 310 311 313 313 318 319 321 320 320 322 328 323 321 322 324 325 324 323 322 323 323 321 322 323 325 326 334 340 340 338 339 356 356 353 347
316 315 315 316 318 319 321 316 311 310 309 310 311 313 314 313 315 319 320 320 321 324 329 324 323 323 324 323 325 324 322 324 326 323 322 325 326 328 332 333 337 337 342 344 346 347 349
315 315 315 315 317 319 320 319 313 309 310 311 315 311 313 317 321 320 320 323 326 326 324 323 323 322 323 322 324 325 325 325 327 326 325 324 327 328 331 333 334 341 346 350 350 347 346
314 314 314 315 316 320 317 316 312 309 311 315 313 312 313 319 319 319 323 328 326 324 325 323 322 323 323 323 324 325 325 326 327 327 326 323 328 328 330 334 334 338 341 349 355 351 347
314 314 315 316 314 312 313 313 309 310 313 318 315 319 321 321 320 320 326 329 326 325 324 323 323 323 323 322 324 324 325 325 326 328 330 326 327 327 327 329 332 334 339 339 345 348 352
313 314 315 310 309 312 312 310 309 311 315 318 323 322 322 322 323 323 327 322 324 324 323 323 325 324 325 324 322 323 325 325 326 326 328 331 329 327 326 326 327 330 332 336 338 344 350
313 314 315 308 309 311 310 309 310 313 317 317 322 325 321 322 324 328 325 324 323 323 324 324 323 323 324 324 324 324 327 326 325 326 326 329 329 329 327 326 327 327 329 330 334 335 337
312 313 314 307 309 311 310 309 310 314 318 320 325 327 320 322 327 325 324 323 318 322 322 323 323 323 324 325 324 323 325 328 326 325 326 326 328 331 330 327 325 327 326 328 330 334 333
312 312 314 307 309 310 310 310 311 314 315 321 328 324 321 322 327 324 324 323 323 323 322 323 323 323 323 325 325 324 324 326 326 325 328 328 326 330 330 329 327 327 329 328 327 328 331
312 312 313 308 308 310 311 310 311 314 315 318 326 325 323 322 321 324 325 324 323 320 322 322 323 322 323 324 325 326 325 325 325 325 330 328 327 328 331 332 330 330 327 328 329 331 330
311 311 313 311 307 309 311 311 311 315 316 319 324 324 324 324 321 321 322 320 321 322 320 320 323 321 323 325 325 326 324 324 324 328 326 325 327 327 329 329 329 330 328 327 330 330 331
311 312 312 313 308 308 311 311 311 316 318 324 328 323 321 321 319 321 315 320 319 319 318 319 318 317 321 325 327 327 325 325 326 327 326 326 327 332 332 327 328 328 330 331 329 329 329
311 311 311 313 311 307 310 311 311 315 321 326 325 323 324 317 321 321 321 320 319 317 318 317 317 316 319 324 324 324 323 324 326 327 328 327 327 328 330 325 327 328 328 328 328 328 329
311 311 311 312 313 307 308 311 311 312 316 324 325 327 323 321 321 319 318 318 318 320 320 318 316 316 324 323 322 323 324 324 324 324 325 327 328 328 330 327 331 329 329 330 331 331 333
311 311 311 311 313 310 307 309 311 311 316 321 326 327 324 322 320 319 319 319 320 321 320 319 319 319 320 321 323 326 325 325 325 325 324 325 329 330 331 327 331 330 330 331 331 336 343
311 311 311 311 313 312 307 308 310 311 314 321 326 325 327 325 321 320 320 320 322 322 322 320 320 320 321 323 324 331 332 331 331 329 324 324 326 330 331 334 330 335 331 328 329 331 335
311 311 312 312 312 313 308 307 309 310 311 315 325 325 327 324 323 321 324 321 321 321 321 322 321 320 320 325 325 325 327 330 334 329 331 329 328 327 326 330 331 331 328 326 332 336 334
312 311 312 313 312 313 311 307 308 309 310 315 326 324 328 325 323 321 320 321 322 322 323 325 322 323 320 321 323 325 325 328 327 325 331 327 330 331 328 333 336 329 330 335 335 332 333
311 311 311 312 313 312 312 307 308 309 310 313 325 322 324 327 324 320 320 320 320 319 321 322 322 324 321 323 323 324 326 324 326 326 326 325 329 333 331 334 331 330 331 332 331 331 333

GFSGBSN_925_thetae_108.txt.gz
Theta_e
319 319 319 317 309 309 310 311 312 312 312 312 312 313 313 314 313 311 310 310 309 308 308 307 307 306 316 326 325 326 322 317 311 315 331 334 338 349 352 352 352 358 358 356 355 355 352
318 318 319 319 309 309 309 311 311 312 312 312 311 311 312 312 312 311 308 306 305 305 305 305 306 307 320 326 321 331 324 318 315 321 329 331 334 342 348 353 355 355 356 356 354 355 356
318 318 318 319 313 309 309 310 311 312 312 311 310 310 310 311 312 312 311 310 307 310 309 309 308 317 323 325 321 326 325 315 316 323 330 330 331 337 345 354 351 356 362 357 360 359 361
318 318 318 319 318 309 309 309 310 311 311 311 310 310 309 309 310 312 312 312 310 315 308 309 309 320 327 321 322 327 324 319 317 322 328 328 327 329 336 348 350 360 359 364 356 358 359
319 319 319 318 318 313 309 309 310 310 311 311 311 310 310 310 310 310 312 311 313 314 307 309 320 323 326 318 319 325 325 324 325 325 326 325 325 329 337 351 354 361 364 365 362 356 357
318 318 318 318 318 319 309 309 310 310 310 311 311 311 310 310 311 310 312 313 318 315 317 321 322 326 325 322 322 324 324 326 325 326 326 326 327 331 341 353 358 362 358 355 364 358 356
318 317 317 318 318 316 310 309 310 310 309 310 311 311 310 310 311 310 311 320 327 328 327 329 325 325 324 323 324 322 321 325 326 325 325 324 326 333 346 349 351 351 355 361 358 353 356
316 317 317 317 314 311 309 309 310 310 309 309 310 311 310 311 312 310 311 323 322 322 325 328 320 322 323 323 324 323 321 323 324 324 324 324 323 328 339 346 351 355 359 361 354 354 355
317 316 316 317 318 314 310 309 309 310 310 309 310 310 310 312 313 311 317 322 321 321 326 321 321 321 322 322 325 324 323 322 322 321 323 325 325 325 328 341 356 355 357 357 356 353 353
316 315 316 316 318 320 320 314 311 310 310 309 309 310 311 314 314 319 321 321 320 322 327 322 321 323 323 322 324 325 323 323 323 322 322 323 326 326 327 336 344 359 352 351 354 358 360
315 315 315 315 316 319 320 321 315 312 309 309 310 311 314 314 316 321 323 319 320 323 334 324 322 324 324 324 324 324 323 323 324 322 322 323 324 327 326 340 341 349 349 350 355 357 352
315 314 315 315 316 319 320 319 316 311 309 310 312 315 314 313 313 316 319 320 321 326 334 325 323 323 324 324 325 324 324 324 324 325 322 323 325 326 327 332 337 343 349 348 349 356 366
314 314 315 316 314 312 313 313 312 309 310 313 316 311 312 320 323 320 320 322 327 329 328 324 323 322 324 323 325 325 322 324 326 326 324 323 326 326 328 332 336 339 350 356 362 368 361
314 314 315 311 309 312 312 310 310 310 312 316 315 310 319 316 321 321 323 329 333 330 324 323 322 323 325 323 324 324 325 325 325 326 326 325 324 327 328 331 334 335 339 344 350 352 359
313 314 315 309 309 311 311 310 309 310 314 317 316 316 322 323 320 322 326 331 329 326 323 323 322 323 326 323 325 324 326 324 325 327 329 331 325 326 329 330 333 335 338 338 346 346 347
312 313 315 309 309 311 311 310 310 312 315 317 318 325 322 321 323 325 329 325 324 323 322 323 326 326 327 326 321 323 325 325 327 328 327 331 334 327 328 328 329 332 333 336 336 351 354
313 313 315 308 309 310 311 310 310 313 316 318 320 327 319 322 324 328 330 324 323 322 323 325 325 326 326 325 325 326 327 328 328 328 327 329 332 331 327 327 327 327 330 332 333 336 341
312 313 315 308 308 310 311 310 311 313 316 322 323 329 321 323 328 328 325 323 318 323 321 323 322 324 326 326 324 324 327 328 326 325 326 327 329 333 331 328 327 327 327 330 332 337 336
312 312 314 310 308 309 311 311 311 312 315 318 326 328 321 323 327 326 324 323 324 324 322 323 324 323 324 325 326 328 327 327 325 323 329 329 330 329 332 332 328 326 327 327 326 329 335
312 312 314 314 308 308 310 311 311 312 315 316 327 327 325 324 323 324 325 325 324 321 322 322 323 322 323 325 325 327 329 324 324 322 333 326 329 329 331 334 333 332 326 327 329 327 328
312 312 312 314 310 308 310 311 311 312 316 319 325 327 326 326 323 323 324 323 322 322 321 320 323 322 322 325 329 329 327 324 325 328 324 324 327 327 330 330 330 332 332 331 328 329 330
313 311 312 313 314 308 309 311 311 313 318 323 329 329 323 322 322 322 317 322 320 320 319 320 319 319 317 323 327 328 327 327 329 327 325 325 326 327 330 330 330 330 329 332 329 328 329
314 312 311 313 314 311 308 310 311 312 319 329 327 325 325 319 321 322 323 321 320 318 320 318 318 317 317 323 324 324 324 324 326 329 331 331 327 328 329 328 327 330 329 330 331 330 329
315 313 311 312 312 315 308 309 311 311 311 319 328 327 329 325 321 321 319 319 319 321 320 319 318 316 321 324 323 321 323 324 324 324 328 330 333 330 331 330 334 331 332 333 330 330 337
316 313 311 311 312 313 310 308 310 310 312 316 324 328 329 329 321 320 319 320 320 320 321 319 320 320 320 319 321 324 326 326 327 328 325 326 330 328 329 328 329 333 334 333 332 336 339
316 313 312 312 312 313 313 308 308 310 311 315 325 328 328 328 323 322 320 322 321 324 324 323 321 320 320 321 323 329 330 334 332 329 327 327 327 331 334 329 335 336 332 329 329 334 337
317 314 312 312 313 313 313 308 308 309 309 311 320 327 327 328 324 323 324 324 322 322 323 324 323 321 321 323 327 329 335 331 334 329 328 332 331 331 329 332 337 333 331 328 331 339 337
317 314 312 311 312 313 313 311 307 309 309 311 321 326 327 330 327 322 321 322 323 322 324 325 324 323 322 322 322 325 330 335 331 327 326 333 332 330 333 336 338 329 334 334 335 335 334
315 313 312 311 311 312 313 313 307 308 309 310 320 326 324 327 327 322 321 319 319 319 321 322 323 323 325 324 326 325 325 324 325 325 328 330 330 333 332 334 333 333 335 332 329 331 335

GFSGBSN_925_thetae_111.txt.gz
Theta_e
318 319 319 319 309 309 310 311 311 312 311 311 310 311 311 311 312 311 310 307 306 306 306 306 306 306 314 323 322 323 320 317 316 313 314 331 336 343 354 350 352 358 352 348 347 351 353
318 318 319 319 311 309 309 310 311 311 311 311 310 310 309 309 310 311 311 311 308 307 307 307 306 307 319 322 328 327 326 320 313 312 316 328 333 338 349 350 355 356 355 354 354 357 357
318 318 318 319 315 309 309 309 310 311 311 311 311 310 309 309 309 310 311 312 311 309 313 308 309 316 320 323 322 330 326 317 314 314 321 328 331 331 340 353 351 354 361 359 359 359 357
318 319 318 318 318 312 309 309 310 310 310 311 311 311 310 310 310 310 310 312 311 312 314 308 309 319 322 323 321 322 325 317 314 318 322 327 330 328 328 349 357 363 358 362 358 359 354
317 317 317 318 319 320 309 309 310 310 310 310 311 311 311 310 310 311 310 312 312 315 310 309 319 319 326 320 319 322 326 321 316 317 321 326 326 324 325 337 354 355 361 353 356 356 352
317 317 317 317 317 317 313 310 310 310 309 310 310 311 311 310 310 311 310 311 319 316 321 319 321 323 325 325 320 319 325 323 319 322 324 325 324 324 326 336 357 361 357 354 355 357 356
317 318 318 317 316 312 310 310 310 310 309 309 310 310 311 310 310 312 311 316 324 326 323 327 326 326 324 324 323 323 324 325 324 324 325 325 324 324 327 334 353 352 355 361 357 356 357
316 316 316 316 318 318 314 310 310 310 310 310 310 310 310 310 311 313 310 317 322 320 321 326 327 320 322 323 323 322 321 323 326 323 323 322 321 322 326 349 352 355 357 355 355 353 354
315 315 316 316 317 318 319 320 315 312 311 310 309 310 310 312 314 312 312 318 321 321 322 325 325 319 320 320 323 322 320 320 323 323 322 321 322 322 323 349 356 353 356 355 355 352 350
315 315 315 316 317 318 319 320 319 314 311 309 309 310 313 315 316 318 320 321 321 321 324 322 318 322 322 320 321 323 322 321 321 319 319 320 322 324 322 333 350 357 352 352 353 353 357
314 314 315 316 314 315 314 314 314 313 309 310 311 314 315 314 313 317 321 320 320 321 334 328 322 323 323 321 323 323 323 321 322 321 320 319 320 322 325 337 348 352 347 353 351 352 356
313 314 316 311 310 312 313 312 312 310 310 311 314 316 312 314 314 315 318 320 320 324 334 328 322 322 323 322 324 323 323 321 321 323 323 320 321 322 325 342 343 350 354 352 350 353 359
313 313 315 310 310 311 311 311 310 310 311 314 315 316 310 319 323 322 320 321 328 329 328 326 322 322 322 323 324 323 323 322 322 324 324 322 320 324 326 340 345 349 351 355 359 359 360
313 314 315 310 310 311 311 310 310 310 312 315 317 315 311 312 320 321 321 326 336 331 328 323 321 322 325 325 324 324 322 320 322 322 323 322 321 325 325 331 344 346 346 350 355 358 359
313 313 315 308 309 310 311 310 310 311 314 316 317 319 318 319 319 320 323 331 330 324 322 323 323 326 326 325 325 324 324 322 322 321 324 328 330 324 325 325 328 334 341 336 348 348 344
313 314 316 309 308 309 311 310 310 311 315 317 318 319 322 325 323 321 328 329 322 321 322 325 326 326 327 327 324 324 327 326 327 327 325 328 332 330 325 326 326 333 331 333 336 353 356
312 313 314 314 308 309 310 310 311 311 316 321 320 323 325 323 324 327 330 327 324 320 322 323 324 326 326 327 325 327 328 328 328 326 323 325 329 330 328 326 326 326 327 329 329 333 347
313 312 314 315 309 308 309 311 311 311 316 318 325 329 322 324 327 328 326 322 318 322 321 322 322 323 326 326 326 328 328 328 325 323 325 326 327 328 330 328 325 324 324 326 329 330 332
313 312 312 314 315 308 309 310 311 311 313 316 325 324 326 322 325 326 323 322 323 323 321 322 324 322 323 323 327 328 327 327 326 322 327 324 328 329 329 329 330 326 324 324 323 321 324
315 313 312 313 315 312 308 310 311 311 312 316 326 330 326 324 322 324 325 326 324 321 321 321 323 322 323 325 327 330 326 326 324 323 326 322 324 329 329 332 332 332 331 328 324 322 323
317 315 313 312 314 316 309 309 310 311 314 318 327 327 328 328 323 323 322 323 321 322 320 320 322 322 319 322 327 328 327 326 326 325 323 322 324 327 328 330 330 329 330 330 330 328 328
319 316 314 312 312 315 312 308 310 311 316 321 327 329 328 325 322 322 318 322 320 319 320 320 319 318 318 317 326 329 327 325 328 327 329 324 324 327 328 328 329 330 331 330 330 331 327
320 317 315 312 312 314 316 308 309 310 316 323 329 330 331 326 324 321 324 321 319 321 321 319 319 318 318 324 324 322 317 319 321 328 329 329 332 333 330 329 329 329 333 332 332 338 344
320 319 316 314 313 313 315 310 308 308 309 313 321 326 332 331 330 323 319 319 320 321 318 319 320 319 320 318 318 318 318 318 325 326 324 328 330 331 330 330 333 334 330 331 339 341 340
320 320 316 314 313 313 313 314 308 308 309 310 315 326 333 335 330 328 319 320 321 320 320 321 320 320 318 319 320 323 324 327 330 327 327 325 329 330 331 329 330 334 332 331 335 341 338
321 320 318 315 314 312 313 313 310 308 309 311 316 325 330 331 329 327 321 322 322 323 323 324 321 320 319 320 322 329 335 333 334 328 325 327 328 331 332 336 334 335 331 329 327 342 339
322 320 319 315 313 312 312 313 313 308 308 309 313 320 326 330 327 328 325 325 321 322 324 327 326 324 321 320 323 328 334 331 333 331 330 329 329 330 333 334 337 332 331 331 331 340 339
321 320 319 314 313 312 311 313 313 309 308 309 313 321 325 331 328 328 322 323 324 324 326 324 325 326 326 326 324 330 334 332 326 327 330 330 332 330 331 334 334 329 332 337 333 330 337
321 319 316 313 313 312 311 312 313 310 308 308 314 322 322 329 329 326 322 320 319 319 320 322 324 326 326 326 326 327 331 326 328 332 325 332 328 331 332 333 329 329 330 327 327 335 335

GFSGBSN_925_thetae_114.txt.gz
Theta_e
318 318 319 319 310 309 309 310 310 311 311 311 310 309 309 309 309 310 311 311 310 307 306 305 305 306 315 321 321 321 320 320 320 317 312 322 334 337 352 350 353 353 353 348 350 349 350
318 318 318 318 313 309 309 309 310 310 311 311 311 310 310 309 309 309 310 311 311 310 311 309 307 310 319 318 324 324 321 318 317 313 311 315 331 333 346 350 352 353 353 350 349 352 357
318 319 319 319 318 312 309 309 309 310 310 310 311 311 310 310 309 310 310 310 311 311 313 309 309 315 318 315 325 326 325 321 317 315 315 314 320 329 330 355 354 352 357 354 356 356 359
317 317 317 317 319 320 311 309 310 310 310 310 310 310 310 310 310 310 311 310 313 312 314 308 309 318 316 316 321 322 325 314 313 312 313 321 324 324 325 349 353 353 358 366 357 356 354
317 316 317 317 316 317 314 311 310 310 309 309 310 310 310 310 310 310 311 310 311 315 312 309 320 318 322 324 320 322 322 317 314 314 316 321 323 324 323 346 358 354 362 357 356 355 354
317 316 317 318 318 315 311 310 309 309 309 309 309 310 310 310 310 310 312 310 315 319 321 319 320 320 320 325 319 319 321 321 313 313 316 318 321 320 321 331 355 359 357 354 355 357 356
316 315 316 317 318 319 319 315 312 311 310 310 309 309 310 310 310 312 312 311 318 320 322 323 324 323 324 323 322 320 323 322 317 319 321 323 321 322 323 327 348 353 355 359 356 355 357
315 315 316 316 316 318 319 320 319 315 312 310 309 309 310 311 314 314 312 312 317 321 317 320 324 324 325 322 323 322 322 322 321 322 322 321 321 321 327 347 352 354 355 354 354 355 355
314 315 316 317 313 316 316 315 316 315 312 309 309 311 314 315 314 314 313 314 319 317 317 321 324 325 321 319 321 321 318 318 324 324 321 319 321 322 340 351 348 353 354 353 356 351 351
314 315 315 310 311 312 313 312 312 313 309 310 312 315 315 312 317 316 317 320 318 319 319 323 318 319 318 318 319 320 319 319 319 322 320 318 320 322 322 352 350 356 350 352 352 351 353
313 314 314 310 310 311 311 311 312 310 310 311 314 315 312 311 312 312 318 320 318 319 330 327 321 322 320 318 320 321 321 320 321 320 318 317 318 319 320 350 344 347 350 350 349 353 352
313 315 314 310 310 310 311 311 310 310 311 312 315 316 311 314 318 318 321 321 318 320 331 328 321 320 322 320 320 321 321 319 319 320 319 319 318 318 321 344 341 344 352 351 349 352 356
313 315 316 309 309 310 310 310 310 310 311 314 316 316 312 312 320 321 319 318 325 326 325 327 323 320 320 321 323 322 322 321 319 321 320 320 321 328 344 347 348 348 347 357 357 356 357
313 314 317 310 308 309 310 311 310 310 312 316 317 316 315 314 316 315 317 321 333 330 328 323 319 320 323 323 323 322 320 320 318 319 319 321 320 329 333 346 350 347 343 354 359 359 357
312 313 314 316 309 308 309 310 310 310 313 318 317 317 319 322 320 318 317 325 326 319 319 323 322 322 323 322 323 322 321 319 321 318 320 325 326 327 330 333 345 346 345 341 344 346 349
313 312 313 314 313 308 309 310 310 311 313 319 319 319 319 322 323 319 320 326 321 319 321 321 324 324 324 324 323 324 325 326 326 324 319 324 326 327 328 324 339 336 334 334 334 351 351
315 313 312 313 315 311 308 309 310 310 313 317 323 316 323 324 323 317 323 324 321 318 321 321 321 325 325 325 323 324 325 326 325 321 323 322 324 326 323 323 322 323 324 324 327 339 344
317 315 313 311 313 315 309 309 310 310 313 317 319 320 326 322 319 317 321 319 319 319 317 320 319 323 324 322 324 326 327 326 326 321 325 323 321 325 325 323 326 321 323 321 324 327 328
319 318 315 313 312 314 314 308 309 310 312 315 315 316 322 322 318 316 318 320 321 318 318 319 320 318 318 323 325 325 325 325 325 324 323 321 325 327 327 325 326 328 327 324 319 316 320
320 319 317 314 311 313 315 309 309 310 311 315 317 321 319 314 313 319 321 322 321 319 319 318 318 317 316 322 322 326 325 326 324 324 326 323 320 327 326 326 328 330 328 327 320 319 320
320 321 318 315 313 312 314 313 308 310 313 317 319 318 322 324 317 318 317 319 318 320 316 314 316 315 314 312 321 325 325 323 323 325 321 318 319 325 327 325 329 329 329 329 327 331 326
321 321 320 317 314 313 313 314 308 310 313 320 319 326 324 325 316 316 315 319 316 317 317 316 315 315 313 320 324 325 319 319 322 321 326 322 324 326 326 325 326 330 333 343 343 343 349
322 320 320 319 316 313 313 314 310 309 311 316 322 325 324 324 325 324 316 317 319 318 320 317 316 314 315 319 317 318 315 312 319 322 323 323 325 327 326 327 325 332 337 343 343 348 349
322 321 321 320 317 314 313 313 313 308 308 310 316 320 325 327 329 328 326 319 319 317 316 315 316 315 317 316 314 313 313 321 322 321 319 324 323 324 326 325 331 332 331 339 343 343 343
320 321 322 320 318 315 313 313 313 310 308 308 309 319 325 328 328 327 325 318 318 317 316 316 318 316 314 314 314 317 323 323 326 325 324 321 323 326 326 326 331 334 331 332 336 343 342
320 320 321 321 320 315 313 313 313 313 308 308 310 316 321 325 326 326 327 320 317 319 319 320 319 315 315 313 317 325 329 329 330 328 321 323 321 325 329 334 330 333 330 330 330 340 338
320 320 321 321 319 315 313 312 312 313 309 308 309 312 321 325 324 326 327 320 317 315 318 320 321 321 314 313 316 325 329 328 330 329 325 322 324 327 332 333 334 331 328 328 332 335 336
320 320 321 320 318 314 313 312 312 313 311 308 309 315 318 324 324 325 323 318 318 317 318 316 317 317 318 320 319 325 326 325 326 324 327 323 323 324 330 332 330 327 329 333 330 328 335
319 320 320 319 316 313 313 312 312 313 312 308 309 314 312 321 323 324 321 321 318 318 313 314 315 320 317 320 320 320 327 320 320 324 323 325 322 324 326 328 324 325 327 325 325 332 330

GFSGBSN_925_thetae_117.txt.gz
Theta_e
318 318 318 318 314 309 309 309 310 310 310 310 310 310 310 310 309 309 309 310 310 311 310 309 306 306 315 317 316 319 321 316 318 316 315 323 335 337 341 350 353 355 352 348 349 350 349
317 317 318 318 318 310 308 309 309 310 310 310 310 310 310 310 310 309 310 310 310 311 311 311 308 311 319 312 319 324 320 317 319 317 311 322 332 332 334 344 353 352 352 351 349 350 351
317 317 317 318 317 319 312 309 309 310 309 309 310 310 310 310 310 309 310 311 310 311 312 310 308 315 317 310 324 322 319 319 319 317 311 313 322 327 327 346 352 353 356 352 353 353 353
317 316 317 317 316 315 314 312 310 309 309 309 309 310 310 310 310 309 310 311 310 313 315 308 309 318 315 314 323 322 324 319 317 315 314 317 315 323 325 346 350 353 355 359 354 352 352
316 315 316 317 318 318 314 311 310 310 309 309 309 309 309 310 309 310 311 312 311 313 314 309 320 318 322 323 322 321 322 316 312 312 313 316 321 322 326 346 353 353 360 355 356 348 355
316 316 316 316 316 318 319 319 315 313 311 310 310 309 309 309 310 312 313 311 318 318 319 319 319 318 318 323 319 320 322 318 312 312 314 316 318 318 318 328 347 357 359 354 357 352 355
315 316 316 316 312 314 317 317 318 317 313 311 309 309 310 312 314 314 313 311 314 314 323 320 319 321 322 323 320 318 320 318 316 317 318 321 321 321 321 325 344 352 356 358 354 351 357
314 315 315 310 312 313 313 313 314 315 312 309 310 312 315 314 313 313 311 310 315 317 316 318 322 323 324 324 321 320 320 322 319 318 320 320 321 320 323 336 351 352 355 355 353 353 355
315 315 313 311 311 312 311 311 312 312 309 310 311 314 315 311 312 314 315 316 317 316 315 318 321 323 323 319 319 321 318 319 321 321 321 321 322 321 347 350 353 351 354 354 355 351 350
313 314 313 310 310 311 311 311 311 310 310 311 313 315 313 310 317 315 315 317 317 315 318 322 317 320 317 318 319 319 317 318 318 322 321 319 320 322 349 348 347 354 349 350 353 351 353
313 316 312 309 310 310 310 311 310 310 310 312 314 315 312 309 311 311 315 318 317 317 322 323 322 320 317 318 319 321 319 319 319 320 317 318 318 320 322 349 342 344 348 349 349 353 351
312 313 316 309 308 309 310 310 310 310 311 314 316 316 312 313 316 318 318 319 317 321 327 326 321 320 321 319 320 320 320 318 318 319 317 317 318 316 319 331 342 347 347 348 349 347 352
312 312 314 315 310 308 309 310 310 310 311 315 318 315 314 312 318 318 315 318 322 325 324 325 324 319 319 320 321 320 320 319 318 320 320 319 320 341 343 348 347 348 347 352 355 356 354
313 312 312 314 314 310 308 309 310 311 311 316 319 316 317 318 317 316 318 320 325 327 327 322 320 319 322 320 322 322 320 320 318 318 318 320 333 343 341 344 348 345 343 350 356 358 354
316 313 312 312 314 314 309 308 310 311 311 316 318 317 317 320 319 318 316 323 319 319 318 321 322 322 322 322 323 322 319 317 322 317 319 321 324 322 341 342 342 346 344 338 345 344 350
318 316 314 312 312 314 314 308 309 311 311 316 318 319 318 320 321 319 318 324 324 317 320 319 323 322 324 323 322 323 324 325 325 321 317 322 324 324 328 342 342 340 336 342 339 348 350
320 319 316 314 311 313 315 310 309 310 311 316 320 316 320 321 323 314 321 321 323 317 318 319 322 323 324 323 322 324 326 325 324 321 320 321 322 325 323 326 342 324 326 324 330 335 341
320 320 319 316 313 311 314 315 308 310 311 315 314 314 321 320 317 313 319 320 318 318 317 319 318 320 319 322 323 324 325 325 324 323 322 321 319 324 326 322 322 324 322 319 324 327 328
321 321 321 318 315 312 312 315 309 309 310 314 313 314 320 319 320 315 315 319 320 318 318 319 319 318 320 322 324 325 324 324 323 323 321 320 322 331 327 322 323 328 327 324 314 314 319
322 321 321 320 317 314 313 314 314 309 310 316 314 317 317 313 310 315 317 319 319 318 317 315 315 312 315 314 319 323 323 324 322 323 325 322 320 327 332 325 324 330 328 326 319 325 324
321 321 321 320 319 316 313 313 315 309 310 317 315 317 318 324 324 317 314 316 318 317 315 313 314 313 312 320 322 323 321 318 320 325 322 316 319 323 327 326 325 328 339 341 338 338 328
319 320 321 321 320 317 314 313 314 310 310 320 318 326 323 324 319 321 313 316 316 316 315 315 314 314 317 319 322 321 318 315 320 318 322 318 321 324 324 326 329 341 341 341 344 347 349
319 319 320 321 321 319 316 313 313 313 309 311 315 320 322 323 323 323 320 317 315 317 318 314 314 312 317 317 316 315 314 316 321 323 322 322 322 323 325 324 329 332 338 342 343 346 345
319 319 319 319 321 320 317 313 313 313 309 308 312 316 322 326 328 326 326 323 317 316 317 314 313 313 314 314 310 314 318 320 321 320 317 321 321 320 324 323 331 332 332 340 343 342 342
319 319 319 318 320 320 318 313 312 313 312 309 308 314 321 327 327 326 325 318 317 316 316 316 317 314 311 312 312 316 320 321 323 323 322 318 319 324 326 326 329 334 331 332 334 343 339
316 319 319 318 319 320 319 313 313 312 313 310 308 311 316 324 320 326 326 321 316 317 320 320 318 313 310 311 315 324 323 327 327 325 318 319 318 322 325 330 332 331 330 328 330 343 335
317 318 319 318 319 320 318 313 313 312 313 311 308 312 315 325 322 324 325 322 314 314 319 316 318 320 312 310 315 323 326 326 325 326 323 320 321 324 327 328 329 330 328 329 333 331 334
317 317 317 318 319 319 317 312 312 312 313 311 308 312 313 320 321 323 323 320 317 316 317 315 317 316 315 318 317 324 323 323 323 321 324 320 322 322 325 328 327 326 328 331 328 327 334
315 315 316 317 319 318 313 311 312 312 312 312 307 313 310 312 318 324 324 324 320 316 312 312 315 316 315 318 317 319 325 320 319 321 320 321 319 323 323 324 322 324 326 324 325 332 333